     2              OBSERVATION DATA    GPS                 RINEX VERSION / TYPE
teqc 1998Mar9 19980312 00:57:48UTC                          PGM / RUN BY / DATE
                                                            COMMENT
Original Marker Name: unknown                               COMMENT
Campaign Name: Cholame 1989                                 COMMENT
4-Character Station Name: MERC                              COMMENT
6-Character Antenna Code: TI4100                            COMMENT
Vertical Measurement Point: PAE                             COMMENT
Vertical Offset to Rinex Ref. Point: 0.0000                 COMMENT
Radial Measurement Point: PAE                               COMMENT
Radial Offset to Rinex Ref. Point: 0.0842                   COMMENT
Antenna Height from Field Measurement: 1.3580 m             COMMENT
Original XYZ: -2604767.0745 -4500693.8839 3682019.2879      COMMENT
New XYZ position is based on association with SCEC monument COMMENT
E1F1C4M5+0011. Position of that monument is believed to be  COMMENT
valid to within 1 m horizontally; vertical accuracy         COMMENT
should be no worse than 3-times this value.                 COMMENT
                                                            COMMENT
Revised Rinex header created by UCSD GPS archive for        COMMENT
GSAC on 15-Apr-1999 (1999:105) 00:43:23 GMT                 COMMENT
For assistance contact dagnew@ucsd.edu or hjohnson@ucsd.edu COMMENT
                                                            COMMENT
MERC                                                        MARKER NAME
unknown UCLA                                                OBSERVER / AGENCY
UN01 TI 4100 1.9                                            REC # / TYPE / VERS
UN01 TI 4100                                                ANT # / TYPE
 -2604748.0000 -4500676.0000  3681999.0000                  APPROX POSITION XYZ
        1.3554        0.0000        0.0000                  ANTENNA: DELTA H/E/N
     1     1     0                                          WAVELENGTH FACT L1/2
     4    P1    P2    L1    L2                              # / TYPES OF OBSERV
     0                                                      INTERVAL
  1989    11    20     9    50   29.000000                  TIME OF FIRST OBS
  1989    11    20    16    28   59.000000                  TIME OF LAST OBS
     0                                                      # OF SATELLITES
                                                            END OF HEADER
 89 11 20  9 50 29.0800000  0  4G 2G 6G11G 9
  23045872.824    23045873.734     2977025.804 9  -1722206.396 9
                  21533482.244   -18115051.844 1
  23226111.593    23226114.448      840232.019 8  -3127695.319 8
  24359130.562    24359131.061      815444.210 9  -2145269.218 9
 89 11 20  9 50 59.0800000  0  4G 2G 6G11G 9
  23060707.749    23060708.726     3054981.441 8  -1661461.781 8
                  19825428.836   -13350944.593 1
  23205868.084    23205872.298      733850.781 9  -3210589.773 8
  24342702.230    24342702.496      729113.778 9  -2212539.607 9
 89 11 20  9 51 29.0800000  0  4G 2G 6G11G 9
  23075553.005    23075555.085     3132998.411 9  -1600669.372 9
                  18190657.016    -9365979.891 1
  23185667.223    23185669.794      627688.258 8  -3293313.779 8
  24326266.852    24326268.467      642745.329 9  -2279839.649 9
 89 11 20  9 51 59.0800000  0  4G 2G 6G11G 9
  23090410.403    23090413.842     3211075.180 9  -1539830.390 9
                  26623683.334     -739675.964 1
  23165506.514    23165509.602      521747.579 8  -3375864.920 8
  24309823.503    24309824.658      556339.183 9  -2347169.138 8
 89 11 20  9 52 29.0800000  0  4G 2G 6G11G 9
  23105279.379    23105281.359     3289211.332 9  -1478945.110 9
                  26500965.999    -1886391.603 1
  23145389.026    23145392.709      416031.785 9  -3458240.857 7
  24293374.542    24293374.227      469896.141 9  -2414527.348 8
 89 11 20  9 52 59.0800000  0  4G 2G 6G11G 9
  23120159.600    23120162.445     3367406.199 9  -1418014.062 9
                  26082739.426    -3809858.476 1
  23125316.093    23125317.971      310543.526 9  -3540439.472 9
  24276917.218    24276919.701      383416.951 9  -2481913.674 8
 89 11 20  9 53 29.0800000  0  4G 2G 6G11G 9
  23135051.047    23135051.947     3445658.266 9  -1357038.439 9
                  25433742.047    -6519454.263 1
  23105286.321    23105288.149      205286.116 9  -3622458.209 9
  24260454.689    24260454.497      296902.047 9  -2549327.871 5
 89 11 20  9 53 59.0800000  0  4G 2G 6G11G 9
  23149952.297    23149954.711     3523966.789 9  -1296018.841 9
                  24880471.989   -10005739.851 1
  23085300.056    23085303.708      100262.102 9  -3704295.078 8
  24243983.897    24243985.950      210352.319 6  -2616769.545 1
 89 11 20  9 54 29.0800000  0  4G 2G 6G11G 9
  23164864.386    23164866.017     3602330.633 9  -1234956.165 8
                  23958128.466   -14273439.179 1
  23065360.696    23065362.643       -4525.709 9  -3785947.902 8
  24227508.028    24227508.551      123768.639 3  -2684237.674 6
 89 11 20  9 54 59.0800000  0  4G 2G 6G11G 9
  23179785.606    23179787.545     3680748.574 9  -1173851.299 8
                  23052497.635   -19321873.015 1
  23045464.734    23045467.504     -109074.406 9  -3867414.398 8
  24211025.020    24211027.963       37151.007 7  -2751731.989 8
 89 11 20  9 55 29.0800000  0  4G 2G 6G11G 9
  23194719.995    23194720.739     3759220.539 9  -1112704.328 8
                  21847844.494   -25154739.792 1
  23025616.307    23025619.593     -213380.824 9  -3948692.100 9
  24194536.632    24194537.868      -49499.396 8  -2819251.734 8
 89 11 20  9 55 59.0800000  0  4G 2G 6G11G 9
  23209662.192    23209663.934     3837745.236 9  -1051516.270 8
                  20672582.404   -29213322.386 1
  23005812.567    23005816.553     -317442.513 8  -4029779.104 8
  24178041.531    24178042.035     -136181.879 9  -2886796.537 8
 89 11 20  9 56 29.0800000  0  4G 2G 6G11G 9
  23224614.951    23224616.325     3916321.699 9   -990287.916 9
                  19163252.948   -23260153.995 1
  22986059.065    22986061.235     -421256.526 9  -4110673.108 8
  24161539.713    24161541.186     -222895.873 9  -2954365.890 9
 89 11 20  9 56 59.0800000  0  4G 2G 6G11G 9
  23239577.367    23239578.789     3994949.107 9   -929019.829 9
                  17686346.235   -18088322.702 1
  22966350.909    22966354.062     -524819.848 9  -4191371.775 8
  24145033.021    24145034.388     -309640.302 9  -3021958.934 9
 89 11 20  9 57 29.0800000  0  4G 2G 6G11G 9
  23254549.018    23254550.593     4073627.023 8   -867712.359 9
                  16172095.062   -13701017.620 1
  22946691.565    22946694.402     -628129.271 9  -4271872.596 9
  24128520.659    24128522.725     -396414.659 9  -3089575.301 8
 89 11 20  9 57 59.0800000  0  4G 2G 6G11G 9
  23269529.828    23269531.400     4152354.279 8   -806366.488 8
                  29502764.694    -2701220.312 1
  22927081.077    22927084.404     -731181.927 9  -4352173.325 8
  24112001.861    24112003.478     -483218.043 9  -3157214.281 8
 89 11 20  9 58 29.0800000  0  4G 2G 6G11G 9
  23284521.615    23284522.474     4231129.889 9   -744982.949 8
                  29579268.131    -3420103.603 1
  22907521.556    22907523.626     -833975.146 9  -4432271.930 8
  24095478.551    24095479.438     -570049.859 9  -3224875.403 7
 89 11 20  9 58 59.0800000  0  4G 2G 6G11G 9
  23299521.711    23299522.223     4309953.411 9   -683562.058 9
                  29083436.274    -4919789.359 1
  22888009.867    22888012.405     -936506.079 9  -4512166.130 9
  24078949.749    24078949.964     -656909.163 8  -3292557.971 8
 89 11 20  9 59 29.0800000  0  4G 2G 6G11G 9
  23314530.481    23314531.472     4388823.553 8   -622104.847 8
                  28827135.321    -7202771.764 1
  22868549.330    22868552.762    -1038771.796 9  -4591853.666 8
  24062414.987    24062418.041     -743795.107 8  -3360261.304 7
 89 11 20  9 59 59.0800000  0  4G 2G 6G11G 9
  23329546.213    23329548.116     4467739.279 9   -560612.086 9
                  28231748.156   -10262044.080 1
  22849140.113    22849142.163    -1140769.638 9  -4671332.479 9
  24045877.482    24045878.042     -830707.083 8  -3427984.946 7
 89 11 20 10  0 29.0800000  0  4G 2G 6G11G 9
  23344573.239    23344573.832     4546700.503 9   -499083.909 9
                  27441380.623   -14104165.053 1
  22829780.726    22829784.140    -1242496.536 8  -4750600.187 8
  24029333.018    24029334.391     -917644.262 8  -3495728.198 7
 89 11 20 10  0 59.0800000  0  4G 2G 6G11G 9
  23359606.734    23359608.833     4625706.559 8   -437520.784 8
                  26669067.503   -18727669.322 1
  22810475.519    22810478.484    -1343949.607 9  -4829654.518 9
  24012785.336    24012786.759    -1004605.428 8  -3563490.163 7
 89 11 20 10  1 29.0800000  0  4G 2G 6G11G 9
  23374649.569    23374651.182     4704756.127 7   -375923.734 9
                  25563433.764   -24132585.319 1
  22791222.540    22791225.886    -1445126.190 9  -4908493.396 8
  23996232.990    23996234.121    -1091590.015 8  -3631270.358 8
 89 11 20 10  1 59.0800000  0  4G 2G 6G11G 9
  23389699.704    23389701.651     4783848.533 7   -314293.307 8
                  24281112.524   -30315080.461 1
  22772022.075    22772024.749    -1546023.583 9  -4987114.722 9
  23979674.978    23979676.768    -1178597.044 8  -3699068.060 7
 89 11 20 10  2 29.0800000  0  4G 2G 6G11G 9
  23404758.394    23404760.743     4862983.266 7   -252629.938 8
                  22928661.994   -28565724.301 1
  22752874.999    22752879.883    -1646638.671 9  -5065516.070 9
  23963113.619    23963116.097    -1265625.794 8  -3766882.636 8
 89 11 20 10  2 59.0800000  0  4G 2G 6G11G 9
  23419824.891    23419827.232     4942159.273 7   -190934.394 8
                  21581552.222   -22968985.803 1
  22733783.556    22733786.441    -1746968.772 9  -5143695.330 9
  23946549.585    23946551.492    -1352675.508 7  -3834713.550 9
 89 11 20 10  3 29.0800000  0  4G 2G 6G11G 9
  23434898.342    23434901.954     5021375.577 7   -129207.450 8
                  19886590.850   -18151479.316 1
  22714746.154    22714749.702    -1847010.833 9  -5221650.152 8
  23929980.409    23929982.255    -1439744.911 7  -3902559.796 9
 89 11 20 10  3 59.0800000  0  4G 2G 6G11G 9
  23449982.867    23449983.356     5100631.380 8    -67449.694 8
                  18319487.892   -14114292.700 1
  22695763.794    22695766.975    -1946762.253 9  -5299378.521 8
  23913409.009    23913410.341    -1526833.464 7  -3970420.981 8
 89 11 20 10  4 29.0800000  0  4G 2G 6G11G 9
  23465071.071    23465073.524     5179926.370 9     -5661.415 8
                  29642642.950    -5257332.538 1
  22676838.332    22676840.960    -2046220.256 9  -5376878.240 9
  23896834.052    23896833.857    -1613940.007 8  -4038296.177 8
 89 11 20 10  4 59.0800000  0  4G 2G 6G11G 9
  23480167.539    23480169.278     5259259.765 8     56156.778 7
                  29234738.216    -6428937.917 1
  22657968.466    22657970.951    -2145382.064 9  -5454147.167 8
  23880254.314    23880254.630    -1701063.657 8  -4106184.732 8
 89 11 20 10  5 29.0800000  0  4G 2G 6G11G 9
  23495271.811    23495273.513     5338631.144 8    118004.599 8
                  29099301.414    -8377074.689 1
  22639154.955    22639157.569    -2244244.716 8  -5531182.992 8
  23863671.082    23863673.135    -1788203.433 9  -4174085.850 7
 89 11 20 10  5 59.0800000  0  4G 2G 6G11G 9
  23510383.075    23510384.727     5418038.922 8    179880.768 8
                  28420768.292   -11110981.906 1
  22620400.054    22620402.692    -2342805.545 9  -5607983.623 9
  23847087.402    23847086.888    -1875358.539 9  -4241998.924 7
 89 11 20 10  6 29.0800000  0  4G 2G 6G11G 9
  23525500.921    23525502.435     5497483.020 9    241785.225 8
                  27853982.550   -14622092.982 1
  22601702.128    22601705.357    -2441062.070 9  -5684547.127 9
  23830498.076    23830500.451    -1962527.802 9  -4309923.071 6
 89 11 20 10  6 59.0800000  0  4G 2G 6G11G 9
  23540624.919    23540625.666     5576962.537 9    303717.278 8
                  26917278.334   -18914438.391 1
  22583062.587    22583065.125    -2539011.131 9  -5760871.045 9
  23813908.610    23813910.258    -2049710.469 9  -4377857.625 7
 89 11 20 10  7 29.0800000  0  4G 2G 6G11G 9
  23555755.745    23555758.202     5656476.987 8    365676.576 8
                  25976171.939   -23987597.466 1
  22564483.180    22564485.307    -2636650.233 9  -5836953.448 9
  23797315.777    23797316.708    -2136905.356 9  -4445801.734 7
 89 11 20 10  7 59.0800000  0  4G 2G 6G11G 9
  23570894.024    23570895.022     5736025.480 9    427662.393 8
                  25023440.957   -29845644.135 1
  22545962.434    22545965.492    -2733976.414 9  -5912792.018 9
  23780721.098    23780722.207    -2224111.595 9  -4513754.660 7
 89 11 20 10  8 29.0800000  0  4G 2G 6G11G 9
  23586037.259    23586038.455     5815606.985 9    489673.929 8
                  23781592.013   -33510107.066 1
  22527501.821    22527505.374    -2830987.097 9  -5988384.746 8
  23764124.654    23764125.887    -2311327.945 8  -4581715.474 8
 89 11 20 10  8 59.0800000  0  4G 2G 6G11G 9
  23601187.188    23601189.755     5895221.379 9    551711.076 8
                  22297333.014   -27582272.455 1
  22509101.874    22509104.831    -2927679.260 8  -6063729.261 8
  23747525.020    23747527.143    -2398553.878 9  -4649683.722 8
 89 11 20 10  9 29.0800000  0  4G 2G 6G11G 9
  23616344.050    23616345.938     5974867.718 9    613773.154 8
                  20536716.367   -22435267.026 1
  22490763.576    22490765.875    -3024050.579 9  -6138823.766 8
  23730926.201    23730927.734    -2485787.961 8  -4717658.324 8
 89 11 20 10  9 59.0800000  0  4G 2G 6G11G 9
  23631506.548    23631508.324     6054545.253 9    675859.493 9
                  19029684.338   -18071625.666 1
  22472485.718    22472489.346    -3120098.280 8  -6213666.115 8
  23714324.973    23714325.015    -2573029.189 7  -4785638.460 8
 89 11 20 10 10 29.0800000  0  3G 2G11G 9
  23646672.383    23646677.528     6134253.530 8    737969.750 8
  22454270.390    22454274.166    -3215819.267 9  -6288253.895 8
  23697720.750    23697722.851    -2660276.491 8  -4853623.314 9
 89 11 20 10 10 59.0800000  0  4G 2G 6G11G 9
  23661847.428    23661849.262     6213991.640 8    800103.328 9
                  21210189.986    -7217696.190 9
  22436118.401    22436120.493    -3311211.202 9  -6362585.244 8
  23681116.871    23681119.579    -2747528.933 7  -4921612.122 9
 89 11 20 10 11 29.0800000  0  4G 2G 6G11G 9
  23677027.465    23677028.996     6293758.962 8    862259.620 8
  21201204.080    21201205.063    -7264916.862 9   9342849.381 8
  22418028.225    22418031.559    -3406271.699 9  -6436658.348 8
  23664513.258    23664515.116    -2834785.387 9  -4989604.123 8
 89 11 20 10 11 59.0800000  0  4G 2G 6G11G 9
  23692211.222    23692214.370     6373554.906 8    924438.260 9
  21192254.879    21192254.806    -7311944.233 9   9306204.688 8
  22400002.127    22400005.562    -3500997.714 9  -6510470.827 7
  23647908.705    23647910.257    -2922044.552 9  -5057598.226 9
 89 11 20 10 12 29.0800000  0  4G 2G 6G11G 9
  23707401.228    23707403.834     6453379.201 8    986638.966 9
  21183342.882    21183343.903    -7358776.489 9   9269712.015 9
  22382041.475    22382044.216    -3595386.400 9  -6584020.406 8
  23631303.952    23631304.597    -3009305.899 9  -5125594.120 8
 89 11 20 10 12 59.0800000  0  4G 2G 6G11G 9
  23722595.648    23722600.056     6533231.007 7   1048861.084 9
  21174467.236    21174470.455    -7405411.763 9   9233372.846 8
  22364143.951    22364147.476    -3689435.307 9  -6657305.245 8
  23614697.728    23614697.998    -3096567.901 9  -5193590.533 8
 89 11 20 10 13 29.0800000  0  4G 2G 6G11G 9
  23737797.018    23737799.165     6613109.807 7   1111104.268 9
  21165632.283    21165634.711    -7451848.235 9   9197188.592 8
  22346312.507    22346315.151    -3783141.693 9  -6730323.196 8
  23598092.660    23598093.013    -3183829.476 9  -5261586.587 8
 89 11 20 10 13 59.0800000  0  4G 2G 6G11G 9
  23753002.466    23753005.256     6693014.684 9   1173367.766 9
  21156833.303    21156836.065    -7498084.348 9   9161160.439 7
  22328546.465    22328548.390    -3876503.140 9  -6803072.372 8
  23581487.850    23581488.386    -3271089.490 9  -5329581.411 7
 89 11 20 10 14 29.0800000  0  4G 2G 6G11G 9
  23768213.640    23768214.842     6772945.533 8   1235651.510 9
  21148073.715    21148075.210    -7544117.948 9   9125290.102 8
  22310846.559    22310849.147    -3969516.738 9  -6875550.473 8
  23564882.708    23564882.998    -3358346.769 9  -5397574.089 6
 89 11 20 10 14 59.0800000  0  4G 2G 6G11G 9
  23783428.487    23783430.749     6852901.426 9   1297954.747 9
  21139353.267    21139354.947    -7589947.334 9   9089578.896 8
  22293212.888    22293216.194    -4062180.011 9  -6947755.612 8
  23548278.791    23548280.303    -3445600.230 9  -5465563.797 6
 89 11 20 10 15 29.0800000  0  4G 2G 6G11G 9
  23798648.690    23798650.607     6932881.840 9   1360277.088 9
  21130669.985    21130672.035    -7635570.538 9   9054028.359 8
  22275646.969    22275650.118    -4154490.171 9  -7019685.577 8
  23531676.109    23531678.266    -3532848.641 8  -5533549.535 7
 89 11 20 10 15 59.0800000  0  4G 2G 6G11G 9
  23813872.008    23813874.100     7012886.088 9   1422618.010 9
  21122027.443    21122030.472    -7680985.890 8   9018639.776 9
  22258148.005    22258151.738    -4246444.801 8  -7091338.534 8
  23515074.637    23515076.283    -3620090.883 8  -5601530.469 8
 89 11 20 10 16 29.0800000  0  4G 2G 6G11G 9
  23829101.812    23829103.690     7092913.369 9   1484976.905 9
  21113425.875    21113426.803    -7726191.436 9   8983414.667 8
  22240717.991    22240721.077    -4338041.319 9  -7162712.431 8
  23498474.731    23498476.839    -3707325.686 9  -5669505.616 8
 89 11 20 10 16 59.0800000  0  4G 2G 6G11G 9
  23844335.079    23844337.171     7172963.126 9   1547353.299 8
  21104864.069    21104865.145    -7771185.357 9   8948354.461 8
  22223357.601    22223359.524    -4429277.276 9  -7233805.353 8
  23481876.005    23481878.184    -3794551.728 9  -5737473.937 8
 89 11 20 10 17 29.0800000  0  4G 2G 6G11G 9
  23859571.892    23859574.284     7253035.494 9   1609747.322 8
  21096342.264    21096344.875    -7815965.876 9   8913460.541 8
  22206064.735    22206066.539    -4520150.099 9  -7304615.337 8
  23465278.928    23465280.726    -3881767.930 9  -5805434.589 8
 89 11 20 10 17 59.0800000  0  4G 2G 6G11G 9
  23874813.303    23874815.522     7333129.634 9   1672158.319 8
  21087862.392    21087863.319    -7860530.966 9   8878734.502 9
  22188841.729    22188844.919    -4610656.847 9  -7375140.059 8
  23448684.106    23448685.475    -3968973.257 8  -5873386.791 9
 89 11 20 10 18 29.0800000  0  4G 2G 6G11G 9
  23890059.360    23890060.534     7413244.842 9   1734585.729 8
  21079423.705    21079424.882    -7904878.785 9   8844177.765 8
  22171688.697    22171691.459    -4700795.635 9  -7445378.062 9
  23432091.842    23432093.277    -4056166.229 8  -5941329.345 8
 89 11 20 10 18 59.0800000  0  4G 2G 6G11G 9
  23905307.063    23905310.356     7493380.550 9   1797029.109 8
  21071026.511    21071029.082    -7949007.461 9   8809791.784 8
  22154606.357    22154608.826    -4790563.581 9  -7515327.083 9
  23415502.467    23415502.349    -4143345.759 8  -6009261.396 7
 89 11 20 10 19 29.0800000  0  4G 2G 6G11G 9
  23920561.021    23920562.863     7573535.953 9   1859487.844 7
  21062670.515    21062671.870    -7992915.184 9   8775577.979 9
  22137595.258    22137597.621    -4879958.100 9  -7584985.135 8
  23398914.177    23398916.377    -4230510.445 8  -6077181.922 7
 89 11 20 10 19 59.0800000  0  4G 2G 6G11G 9
  23935817.480    23935820.045     7653711.205 9   1921962.053 8
  21054357.656    21054359.778    -8036599.886 9   8741537.951 8
  22120655.796    22120657.732    -4968976.825 9  -7654350.351 8
  23382332.148    23382332.044    -4317659.216 9  -6145090.086 8
 89 11 20 10 20 29.0800000  0  4G 2G 6G11G 9
  23951077.645    23951081.311     7733905.179 9   1984450.793 7
  21046087.659    21046089.395    -8080059.777 9   8707673.125 9
  22103787.525    22103789.736    -5057617.448 9  -7723420.945 8
  23365751.642    23365752.021    -4404790.497 9  -6212984.629 8
 89 11 20 10 20 59.0800000  0  4G 2G 6G11G 9
  23966341.374    23966344.730     7814117.653 8   2046954.030 8
  21037860.923    21037861.386    -8123292.919 9   8673984.970 9
  22086993.249    22086993.586    -5145877.306 9  -7792194.851 9
  23349175.027    23349175.641    -4491903.127 9  -6280864.612 7
 89 11 20 10 21 29.0800000  0  4G 2G 6G11G 9
  23981608.395    23981612.465     7894347.811 7   2109470.967 7
  21029676.519    21029678.958    -8166297.475 9   8640474.951 9
  22070269.982    22070271.928    -5233753.933 9  -7860670.136 8
  23332601.570    23332602.546    -4578995.727 9  -6348728.980 9
 89 11 20 10 21 59.0800000  0  4G 2G 6G11G 9
  23996880.353    23996881.083     7974595.348 8   2172001.492 6
  21021537.422    21021538.276    -8209071.407 9   8607144.621 8
  22053621.025    22053624.470    -5321244.712 9  -7928844.741 8
  23316033.431    23316032.671    -4666066.998 9  -6416576.752 9
 89 11 20 10 22 29.0800000  0  4G 2G 6G11G 9
  24012152.499    24012156.775     8054860.038 7   2234545.379 7
  21013442.708    21013442.817    -8251612.804 9   8573995.470 8
  22037046.574    22037048.960    -5408347.182 9  -7996716.779 8
  23299467.310    23299469.497    -4753115.665 9  -6484406.912 8
 89 11 20 10 22 59.0800000  0  4G 2G 6G11G 9
  24027431.583    24027433.444     8135141.081 7   2297101.971 9
  21005392.338    21005392.979    -8293919.792 8   8541028.978 9
  22020545.797    22020548.043    -5495059.091 9  -8064284.485 9
  23282907.139    23282908.380    -4840140.160 8  -6552218.198 8
 89 11 20 10 23 29.0800000  0  4G 2G 6G11G 9
  24042710.795    24042712.141     8215438.256 8   2359671.163 8
  20997386.116    20997387.046    -8335990.407 9   8508246.694 9
  22004119.251    22004122.587    -5581377.683 9  -8131545.720 8
  23266350.681    23266353.190    -4927139.285 8  -6620009.676 7
 89 11 20 10 23 59.0800000  0  4G 2G 6G11G 9
  24057994.282    24057996.877     8295750.583 8   2422252.178 9
  20989425.400    20989426.993    -8377822.656 9   8475650.144 9
  21987769.173    21987771.513    -5667300.853 9  -8198498.810 8
  23249800.575    23249802.899    -5014111.785 7  -6687780.409 7
 89 11 20 10 24 29.0800000  0  4G 2G 6G11G 9
  24073279.547    24073282.412     8376077.883 8   2484844.803 8
  20981510.569    20981511.708    -8419414.722 9   8443240.744 9
  21971493.532    21971495.479    -5752826.227 9  -8265141.933 8
  23233255.695    23233256.485    -5101056.273 8  -6755529.357 8
 89 11 20 10 24 59.0800000  0  4G 2G 6G11G 9
  24088568.465    24088569.433     8456419.796 9   2547448.881 8
  20973641.581    20973643.447    -8460764.580 9   8411020.082 8
  21955295.246    21955297.317    -5837951.373 9  -8331473.193 8
  23216716.234    23216716.623    -5187971.199 9  -6823255.284 7
 89 11 20 10 25 29.0800000  0  4G 2G 6G11G 9
  24103860.055    24103861.928     8536775.506 8   2610063.650 9
  20965819.375    20965820.479    -8501870.276 9   8378989.672 8
  21939172.695    21939175.302    -5922673.815 9  -8397490.663 8
  23200184.387    23200185.211    -5274855.177 9  -6890957.110 7
 89 11 20 10 25 59.0800000  0  4G 2G 6G11G 9
  24119153.949    24119155.596     8617144.560 9   2672688.827 8
  20958044.819    20958045.686    -8542729.804 9   8347151.084 9
  21923128.182    21923129.961    -6006991.371 9  -8463192.634 7
  23183656.972    23183657.515    -5361706.844 9  -6958633.763 9
 89 11 20 10 26 29.0800000  0  4G 2G 6G11G 9
  24134450.475    24134452.524     8697526.905 9   2735324.432 8
  20950316.259    20950316.543    -8583341.196 8   8315505.861 8
  21907160.766    21907163.558    -6090901.575 9  -8528577.212 8
  23167135.757    23167136.961    -5448524.765 9  -7026284.106 8
 89 11 20 10 26 59.0800000  0  4G 2G 6G11G 9
  24149748.892    24149750.565     8777921.928 9   2797969.811 9
  20942635.876    20942636.422    -8623702.461 9   8284055.525 9
  21891270.734    21891272.723    -6174402.392 9  -8593642.772 7
  23150621.140    23150622.608    -5535307.476 8  -7093906.996 9
 89 11 20 10 27 29.0800000  0  4G 2G 6G11G 9
  24165049.880    24165052.016     8858329.447 9   2860624.971 9
  20935004.062    20935003.538    -8663811.884 9   8252801.407 8
  21875459.558    21875460.793    -6257491.525 9  -8658387.533 8
  23134113.545    23134115.051    -5622053.601 8  -7161501.340 8
 89 11 20 10 27 59.0800000  0  4G 2G 6G11G 9
  24180352.974    24180353.895     8938749.115 9   2923289.606 8
  20927419.119    20927419.798    -8703667.159 9   8221745.332 8
  21859726.767    21859728.581    -6340166.313 9  -8722809.429 8
  23117613.897    23117615.429    -5708761.500 9  -7229065.917 9
 89 11 20 10 28 29.0800000  0  4G 2G 6G11G 9
  24195658.962    24195661.383     9019180.301 9   2985963.230 9
  20919883.221    20919884.487    -8743266.500 9   8190888.682 8
  21844073.644    21844075.647    -6422424.538 9  -8786906.734 7
  23101121.384    23101122.349    -5795429.795 9  -7296599.664 8
 89 11 20 10 28 59.0800000  0  4G 2G 6G11G 9
  24210966.335    24210968.607     9099622.838 9   3048645.705 8
  20912396.572    20912397.541    -8782607.834 9   8160233.119 8
  21828500.200    21828502.109    -6504263.976 9  -8850677.714 7
  23084637.157    23084638.559    -5882057.110 9  -7364101.496 9
 89 11 20 10 29 29.0800000  0  4G 2G 6G11G 9
  24226276.412    24226278.471     9180075.893 9   3111336.364 8
  20904960.418    20904961.954    -8821689.130 8   8129780.167 8
  21813006.242    21813009.148    -6585682.447 9  -8914120.673 8
  23068161.124    23068161.869    -5968641.754 9  -7431570.073 8
 89 11 20 10 29 59.0800000  0  4G 2G 6G11G 9
  24241588.421    24241590.540     9260538.789 9   3174034.669 8
  20897572.153    20897574.925    -8860508.424 9   8099531.352 8
  21797593.004    21797596.265    -6666677.697 9  -8977233.867 8
  23051692.124    23051692.675    -6055182.285 9  -7499004.272 8
 89 11 20 10 30 29.0800000  0  4G 2G 6G11G 9
  24256901.575    24256903.150     9341011.657 9   3236740.736 9
  20890235.798    20890237.251    -8899063.727 9   8069488.283 8
  21782261.546    21782265.039    -6747247.276 9  -9040015.351 8
  23035233.029    23035233.787    -6141677.261 9  -7566402.968 9
 89 11 20 10 30 59.0800000  0  4G 2G 6G11G 9
  24272216.789    24272219.362     9421493.972 9   3299454.213 8
  20882950.034    20882951.828    -8937353.058 9   8039652.443 8
  21767010.854    21767013.850    -6827389.273 9  -9102463.632 8
  23018781.473    23018783.187    -6228124.889 8  -7633764.762 8
 89 11 20 10 31 29.0800000  0  4G 2G 6G11G 9
  24287534.146    24287535.576     9501985.486 9   3362174.885 8
  20875714.804    20875716.984    -8975374.454 9   8010025.393 8
  21751842.699    21751845.222    -6907101.540 9  -9164577.065 8
  23002340.346    23002342.582    -6314523.833 8  -7701088.548 9
 89 11 20 10 31 59.0800000  0  4G 2G 6G11G 9
  24302852.554    24302854.831     9582485.700 8   3424902.160 8
  20868530.785    20868531.529    -9013125.853 9   7980608.744 8
  21736755.773    21736758.766    -6986381.748 9  -9226353.821 8
  22985909.153    22985912.089    -6400872.494 9  -7768373.144 8
 89 11 20 10 32 29.0800000  0  4G 2G 6G11G 9
  24318173.333    24318174.536     9662994.120 8   3487636.022 6
  20861397.528    20861399.756    -9050605.303 9   7951403.987 8
  21721751.921    21721754.848    -7065227.706 9  -9287792.200 8
  22969487.871    22969488.961    -6487169.389 9  -7835617.461 8
 89 11 20 10 32 59.0800000  0  4G 2G 6G11G 9
  24333493.696    24333496.902     9743510.438 5   3550375.999 7
  20854318.799    20854319.792    -9087810.754 8   7922412.728 8
  21706831.618    21706833.770    -7143637.806 9  -9348890.978 9
  22953077.293    22953078.321    -6573412.830 9  -7902820.149 8
 89 11 20 10 33 29.0800000  0  4G 2G 6G11G 9
  24348818.862    24348819.217     9824034.389 8   3613121.788 7
  20847290.802    20847291.201    -9124740.191 9   7893636.547 7
  21691994.274    21691996.185    -7221609.594 9  -9409648.185 8
  22936675.687    22936676.026    -6659601.316 9  -7969980.053 8
 89 11 20 10 33 59.0800000  0  4G 2G 6G11G 9
  24364142.945    24364144.246     9904565.343 8   3675873.150 7
  20840316.695    20840315.781    -9161391.552 8   7865077.035 8
  21677240.420    21677241.982    -7299140.640 9  -9470061.980 7
  22920284.752    22920285.543    -6745733.100 9  -8037095.758 8
 89 11 20 10 34 29.0800000  0  4G 2G 6G11G 9
  24379467.676    24379468.883     9985103.656 8   3738630.310 5
  20833395.672    20833395.975    -9197762.827 9   7836735.774 7
  21662570.482    21662572.399    -7376229.008 9  -9530130.828 8
  22903904.315    22903904.721    -6831806.629 8  -8104166.075 7
 89 11 20 10 34 59.0800000  0  4G 2G 6G11G 9
  24394795.839    24394798.717    10065648.058 9   3801392.154 8
  20826528.176    20826527.344    -9233851.947 9   7808614.393 8
  21647986.302    21647988.885    -7452872.576 9  -9589853.065 8
  22887537.632    22887538.203    -6917820.270 8  -8171189.680 8
 89 11 20 10 35 29.0800000  0  4G 2G 6G11G 9
  24410124.033    24410126.436    10146198.728 9   3864158.897 9
  20819713.817    20819713.744    -9269656.847 9   7780714.481 7
  21633486.145    21633488.900    -7529069.173 9  -9649227.010 8
  22871181.387    22871183.254    -7003772.285 9  -8238165.323 8
 89 11 20 10 35 59.0800000  0  4G 2G 6G11G 9
  24425452.027    24425454.190    10226755.576 8   3926930.327 7
  20812955.506    20812955.781    -9305175.619 9   7753037.512 9
  21619071.214    21619073.476    -7604816.728 9  -9708251.058 8
  22854837.890    22854839.190    -7089660.932 9  -8305091.568 8
 89 11 20 10 36 29.0800000  0  4G 2G 6G11G 9
  24440783.825    24440786.451    10307317.825 9   3989706.311 7
  20806251.405    20806251.740    -9340406.232 9   7725585.095 8
  21604743.626    21604744.667    -7680113.286 9  -9766923.678 8
  22838505.959    22838507.900    -7175484.693 9  -8371967.243 9
 89 11 20 10 36 59.0800000  0  4G 2G 6G11G 9
  24456115.422    24456118.216    10387884.875 9   4052485.840 9
  20799601.623    20799604.788    -9375346.694 9   7698358.782 8
  21590500.410    21590503.217    -7754957.088 9  -9825243.526 8
  22822186.471    22822189.456    -7261242.047 9  -8438791.149 9
 89 11 20 10 37 29.0800000  0  4G 2G 6G11G 9
  24471446.005    24471450.114    10468457.241 8   4115269.383 9
  20793009.690    20793011.382    -9409994.825 9   7671360.235 8
  21576345.242    21576346.681    -7829346.160 9  -9883209.006 8
  22805880.743    22805882.184    -7346931.031 9  -8505561.779 9
 89 11 20 10 37 59.0800000  0  4G 2G 6G11G 9
  24486780.894    24486783.359    10549034.263 9   4178056.442 9
  20786471.009    20786473.203    -9444348.536 9   7644591.125 8
  21562276.021    21562277.840    -7903278.156 9  -9940818.339 7
  22789588.286    22789589.044    -7432549.992 9  -8572277.838 8
 89 11 20 10 38 29.0800000  0  3G 6G11G 9
  20779989.995    20779991.683    -9478406.016 8   7618052.850 6
  21548294.370    21548298.110    -7976751.181 9  -9998070.027 7
  22773308.736    22773309.392    -7518097.402 9  -8638938.127 8
 89 11 20 10 38 59.0800000  0  3G 6G11G 9
  20773566.983    20773569.718    -9512165.074 9   7591747.067 7
  21534400.898    21534403.199    -8049763.545 9 -10054962.772 8
  22757042.762    22757045.219    -7603571.331 9  -8705541.166 8
 89 11 20 10 39 29.0800000  0  3G 6G11G 9
  20767199.433    20767202.213    -9545623.724 9   7565675.384 8
  21520595.864    21520596.718    -8122313.149 9 -10111494.912 8
  22740792.906    22740793.499    -7688970.281 9  -8772085.784 8
 89 11 20 10 39 59.0800000  0  3G 6G11G 9
  20760890.529    20760892.211    -9578779.962 9   7539839.355 8
  21506877.068    21506880.419    -8194398.091 9 -10167664.983 8
  22724556.151    22724558.086    -7774292.140 9  -8838570.338 8
 89 11 20 10 40 29.0800000  0  3G 6G11G 9
  20754638.249    20754639.508    -9611631.697 9   7514240.591 8
  21493249.615    21493251.347    -8266016.654 9 -10223471.640 8
  22708335.107    22708336.791    -7859535.319 9  -8904993.594 9
 89 11 20 10 40 59.0800000  0  3G 6G11G 9
  20748446.817    20748446.321    -9644176.724 9   7488880.848 8
  21479709.602    21479711.784    -8337166.533 9 -10278913.104 8
  22692128.774    22692130.180    -7944697.981 9  -8971354.087 9
 89 11 20 10 41 29.0800000  0  3G 6G11G 9
  20742311.773    20742312.012    -9676413.172 9   7463761.545 7
  21466259.578    21466262.158    -8407846.360 9 -10333988.277 9
  22675939.217    22675940.454    -8029778.409 8  -9037650.464 9
 89 11 20 10 41 59.0800000  0  3G 6G11G 9
  20736236.980    20736237.440    -9708338.941 8   7438884.325 7
  21452899.744    21452902.176    -8478054.230 8 -10388695.698 8
  22659765.537    22659765.440    -8114774.872 8  -9103881.425 8
 89 11 20 10 42 29.0800000  0  3G 6G11G 9
  20730221.010    20730220.693    -9739952.054 9   7414250.737 7
  21439629.134    21439632.206    -8547788.204 9 -10443033.850 7
  22643606.217    22643605.901    -8199685.437 9  -9170045.446 8
 89 11 20 10 42 59.0800000  0  3G 6G11G 9
  20724264.557    20724264.210    -9771250.291 9   7389862.490 8
  21426450.427    21426453.991    -8617046.072 9 -10497000.993 8
  22627465.019    22627465.765    -8284508.251 9  -9236141.112 8
 89 11 20 10 43 29.0800000  0  3G 6G11G 9
  20718368.465    20718368.972    -9802231.830 9   7365721.026 7
  21413361.914    21413363.916    -8685826.401 9 -10550596.053 8
  22611340.958    22611341.505    -8369241.628 9  -9302167.133 7
 89 11 20 10 43 59.0800000  0  3G 6G11G 9
  20712533.939    20712534.454    -9832894.508 9   7341828.026 7
  21400364.679    21400367.396    -8754127.610 9 -10603817.766 8
  22595234.795    22595235.537    -8453883.850 9  -9368122.152 7
 89 11 20 10 44 29.0800000  0  3G 6G11G 9
  20706759.945    20706759.158    -9863236.418 9   7318184.960 7
  21387458.117    21387461.536    -8821947.863 9 -10656664.703 8
  22579145.047    22579146.702    -8538433.121 8  -9434004.698 7
 89 11 20 10 44 59.0800000  0  3G 6G11G 9
  20701046.729    20701047.805    -9893255.295 9   7294793.614 8
  21374644.956    21374647.743    -8889285.327 9 -10709135.447 9
  22563074.198    22563075.985    -8622887.159 8  -9499813.020 9
 89 11 20 10 45 29.0800000  0  3G 6G11G 9
  20695396.595    20695398.006    -9922949.225 9   7271655.497 8
  21361922.886    21361925.276    -8956138.177 9 -10761228.559 8
  22547020.635    22547021.418    -8707244.293 9  -9565545.848 8
 89 11 20 10 45 59.0800000  0  3G 6G11G 9
  20689808.493    20689809.881    -9952316.134 9   7248772.193 8
  21349293.393    21349297.273    -9022504.894 8 -10812942.883 8
  22530987.277    22530988.623    -8791502.576 9  -9631201.670 8
 89 11 20 10 46 29.0800000  0  3G 6G11G 9
  20684283.357    20684283.458    -9981353.937 9   7226145.343 7
  21336757.888    21336759.645    -9088383.973 9 -10864277.196 8
  22514973.792    22514973.621    -8875660.140 9  -9696779.007 8
 89 11 20 10 46 59.0800000  0  3G 6G11G 9
  20678819.942    20678821.132   -10010060.634 8   7203776.488 7
  21324315.103    21324317.289    -9153773.694 9 -10915230.220 7
  22498977.637    22498978.706    -8959714.993 9  -9762276.298 8
 89 11 20 10 47 29.0800000  0  3G 6G11G 9
  20673420.241    20673420.529   -10038434.274 8   7181667.174 8
  21311964.499    21311967.030    -9218672.343 9 -10965800.581 8
  22483002.255    22483004.428    -9043665.350 9  -9827692.141 8
 89 11 20 10 47 59.0800000  0  3G 6G11G 9
  20668085.460    20668085.628   -10066472.805 8   7159818.941 8
  21299709.323    21299710.842    -9283078.174 9 -11015986.915 7
  22467046.975    22467048.837    -9127509.137 9  -9893024.924 8
 89 11 20 10 48 29.0800000  0  3G 6G11G 9
  20662813.358    20662814.047   -10094174.025 9   7138233.575 8
  21287546.798    21287549.432    -9346989.430 9 -11065787.895 8
  22451112.261    22451113.907    -9211244.525 9  -9958273.223 8
 89 11 20 10 48 59.0800000  0  3G 6G11G 9
  20657606.918    20657608.277   -10121535.890 9   7116912.662 8
  21275479.130    21275481.978    -9410404.722 8 -11115202.390 7
  22435199.279    22435201.049    -9294869.330 9 -10023435.362 8
 89 11 20 10 49 29.0800000  0  3G 6G11G 9
  20652465.623    20652466.595   -10148556.628 8   7095857.526 8
  21263506.120    21263510.052    -9473322.571 9 -11164229.269 8
  22419308.853    22419309.024    -9378381.810 9 -10088509.997 7
 89 11 20 10 49 59.0800000  0  3G 6G11G 9
  20647388.793    20647389.802   -10175233.925 9   7075070.021 8
  21251628.616    21251630.882    -9535741.525 9 -11212867.389 7
  22403438.594    22403439.065    -9461780.111 9 -10153495.687 8
 89 11 20 10 50 29.0800000  0  4G13G 6G11G 9
                  24512222.375   -21549941.043 8
  20642378.021    20642379.004   -10201565.804 9   7054551.679 7
  21239845.987    21239848.878    -9597659.832 9 -11261115.411 8
  22387589.534    22387591.012    -9545062.041 9 -10218390.681 7
 89 11 20 10 50 59.0800000  0  4G13G 6G11G 9
  24489654.167    24489656.345   -21668628.292 9  27434033.309 8
  20637433.368    20637435.593   -10227550.300 9   7034304.030 8
  21228158.251    21228160.340    -9659076.327 9 -11308972.399 8
  22371764.238    22371766.320    -9628225.547 9 -10283193.396 8
 89 11 20 10 51 29.0800000  0  4G13G 6G11G 9
  24467090.759    24467091.953   -21787200.044 9  27341639.713 8
  20632556.108    20632557.163   -10253185.405 9   7014328.599 7
  21216567.056    21216570.384    -9719989.304 9 -11356437.042 8
  22355961.142    22355962.897    -9711268.909 9 -10347902.506 7
 89 11 20 10 51 59.0800000  0  4G13G 6G11G 9
  24444548.974    24444552.697   -21905653.601 9  27249338.237 8
  20627744.161    20627746.599   -10278469.083 8   6994627.046 6
  21205072.012    21205074.774    -9780396.968 9 -11403507.938 8
  22340183.226    22340183.443    -9794189.841 9 -10412516.187 8
 89 11 20 10 52 29.0800000  0  4G13G 6G11G 9
  24422030.893    24422033.528   -22023986.762 9  27157130.644 7
  20623001.122    20623000.503   -10303399.364 9   6975200.852 7
  21193672.989    21193675.173    -9840298.414 9 -11450184.370 8
  22324427.608    22324428.127    -9876986.436 9 -10477033.026 9
 89 11 20 10 52 59.0800000  0  4G13G 6G11G 9
  24399536.528    24399540.211   -22142196.878 9  27065018.885 8
  20618324.194    20618324.760   -10327974.086 8   6956051.726 7
  21182371.990    21182372.911    -9899692.043 9 -11496465.121 8
  22308696.425    22308696.972    -9959656.473 9 -10541451.231 9
 89 11 20 10 53 29.0800000  0  4G13G 6G11G 9
  24377066.063    24377067.885   -22260281.169 9  26973005.102 6
  20613714.489    20613716.141   -10352191.405 9   6937181.079 7
  21171165.592    21171168.373    -9958576.414 9 -11542349.049 8
  22292988.102    22292989.151   -10042197.983 9 -10605769.258 9
 89 11 20 10 53 59.0800000  0  4G13G 6G11G 9
  24354618.225    24354622.372   -22378237.239 7  26881091.289 6
  20609175.412    20609176.872   -10376049.225 9   6918590.542 8
  21160058.207    21160060.419   -10016950.354 9 -11587835.219 8
  22277305.709    22277306.952   -10124609.032 9 -10669985.642 8
 89 11 20 10 54 29.0800000  0  4G13G 6G11G 9
  24332197.692    24332199.945   -22496062.431 8  26789279.514 4
  20604704.481    20604705.296   -10399545.538 9   6900281.739 7
  21149046.860    21149048.377   -10074812.310 9 -11632922.429 8
  22261648.019    22261648.890   -10206887.207 8 -10734098.448 8
 89 11 20 10 54 59.0800000  0  4G13G 6G11G 9
  24309802.627    24309805.703   -22613753.894 9  26697571.759 4
  20600302.547    20600303.757   -10422678.161 9   6882256.337 8
  21138134.132    21138136.087   -10132161.105 9 -11677609.793 7
  22246017.132    22246017.281   -10289030.656 9 -10798106.311 8
 89 11 20 10 55 29.0800000  0  4G13G 6G11G 9
  24287434.179    24287434.837   -22731309.767 5  26605970.019 6
  20595969.759    20595970.478   -10445445.289 8   6864515.740 8
  21127318.094    21127321.526   -10188995.489 9 -11721896.316 8
  22230411.818    22230412.626   -10371037.282 9 -10862007.599 8
 89 11 20 10 55 59.0800000  0  4G13G 6G11G 9
  24265088.150    24265090.631   -22848726.350 8  26514476.535 6
  20591706.847    20591707.958   -10467844.916 8   6847061.480 8
  21116601.912    21116603.641   -10245314.090 9 -11765780.936 8
  22214832.905    22214833.657   -10452905.071 9 -10925800.717 7
 89 11 20 10 56 29.0800000  0  4G13G 6G11G 9
  24242771.931    24242776.150   -22966001.972 5  26423092.990 6
  20587514.543    20587516.526   -10489875.128 9   6829895.072 8
  21105982.305    21105984.846   -10301115.435 8 -11809262.480 8
  22199281.037    22199281.798   -10534631.765 9 -10989483.876 8
 89 11 20 10 56 59.0800000  0  4G13G 6G11G 9
  24220482.289    24220485.593   -23083133.628 9  26331821.614 7
  20583393.185    20583395.397   -10511533.820 8   6813018.174 8
  21095463.212    21095465.220   -10356398.398 9 -11852340.095 8
  22183754.529    22183757.534   -10616215.383 8 -11053055.508 8
 89 11 20 10 57 29.0800000  0  4G13G 6G11G 9
  24198220.560    24198223.458   -23200118.675 9  26240664.419 8
  20579342.574    20579344.141   -10532819.034 8   6796432.293 7
  21085042.016    21085044.571   -10411161.727 9 -11895012.820 8
  22168258.956    22168261.049   -10697653.648 9 -11116513.858 8
 89 11 20 10 57 59.0800000  0  4G13G 6G11G 9
  24175988.126    24175990.002   -23316954.599 9  26149623.508 8
  20575363.816    20575365.484   -10553728.779 8   6780138.986 7
  21074719.822    21074722.595   -10465404.149 9 -11937279.628 8
  22152790.319    22152790.909   -10778944.173 9 -11179857.096 8
 89 11 20 10 58 29.0800000  0  4G13G 6G11G 9
  24153783.283    24153785.874   -23433638.633 9  26058700.845 9
  20571455.978    20571456.560   -10574261.062 8   6764139.790 8
  21064496.380    21064499.719   -10519124.775 9 -11979139.840 8
  22137349.842    22137350.161   -10860085.050 9 -11243083.763 8
 89 11 20 10 58 59.0800000  0  4G13G 6G11G 9
  24131607.707    24131611.232   -23550168.368 9  25967898.549 8
  20567622.089    20567624.217   -10594413.977 9   6748436.200 8
  21054373.422    21054376.167   -10572322.327 9 -12020592.460 7
  22121937.487    22121938.216   -10941074.131 9 -11306192.150 8
 89 11 20 10 59 29.0800000  0  4G13G 6G11G 9
  24109463.527    24109465.044   -23666541.121 9  25877218.454 7
  20563858.003    20563860.714   -10614185.513 9   6733029.805 8
  21044349.587    21044352.821   -10624995.708 9 -12061636.631 8
  22106552.772    22106555.883   -11021909.335 8 -11369180.627 8
 89 11 20 10 59 59.0800000  0  4G13G 6G11G 9
  24087347.773    24087351.409   -23782754.414 9  25786662.673 7
  20560169.437    20560172.022   -10633573.622 9   6717922.180 7
  21034426.236    21034429.073   -10677144.038 9 -12102271.678 8
  22091202.690    22091203.395   -11102588.378 8 -11432047.398 8
 89 11 20 11  0 29.0800000  0  4G13G 6G11G 9
  24065265.073    24065266.349   -23898805.333 9  25696233.439 9
  20556553.681    20556555.416   -10652576.515 8   6703114.743 8
  21024602.662    21024605.786   -10728765.816 9 -12142496.415 7
  22075880.784    22075882.021   -11183109.035 9 -11494790.743 8
 89 11 20 11  0 59.0800000  0  4G13G 6G11G 9
  24043211.718    24043214.945   -24014692.182 9  25605931.937 8
  20553011.556    20553012.342   -10671192.171 8   6688609.041 8
  21014880.040    21014882.771   -10779860.136 9 -12182310.156 8
  22060587.880    22060590.143   -11263468.900 9 -11557408.823 9
 89 11 20 11  1 29.0800000  0  4G13G 6G11G 9
  24021191.432    24021194.078   -24130411.946 9  25515760.765 9
  20549541.696    20549544.591   -10689418.775 9   6674406.483 7
  21005257.744    21005261.155   -10830425.758 9 -12221711.930 7
  22045327.204    22045327.800   -11343666.268 8 -11619900.309 8
 89 11 20 11  1 59.0800000  0  4G13G 6G11G 9
  23999202.688    23999205.079   -24245961.729 8  25425722.028 7
  20546147.985    20546149.513   -10707254.104 8   6660508.835 8
  20995736.202    20995738.677   -10880461.817 9 -12260701.035 8
  22030096.027    22030097.655   -11423698.395 8 -11682262.994 8
 89 11 20 11  2 29.0800000  0  4G13G 6G11G 9
  23977246.770    23977250.159   -24361338.920 9  25335817.646 8
  20542828.798    20542830.669   -10724696.475 9   6646917.380 8
  20986315.762    20986317.548   -10929967.381 9 -12299276.791 8
  22014899.977    22014900.641   -11503563.433 8 -11744495.458 8
 89 11 20 11  2 59.0800000  0  4G13G 6G11G 9
  23955324.931    23955327.136   -24476541.357 8  25246049.703 7
  20539584.505    20539587.609   -10741743.960 8   6633633.633 7
  20976995.539    20976997.677   -10978941.264 9 -12337438.249 8
  21999734.322    21999735.011   -11583258.971 9 -11806595.870 8
 89 11 20 11  3 29.0800000  0  4G13G 6G11G 9
  23933436.579    23933438.543   -24591566.083 9  25156419.883 7
  20536415.795    20536417.763   -10758394.661 8   6620659.064 8
  20967778.135    20967779.964   -11027382.809 9 -12375184.884 7
  21984601.132    21984602.065   -11662782.757 9 -11868562.476 9
 89 11 20 11  3 59.0800000  0  4G13G 6G11G 9
  23911583.572    23911585.652   -24706410.956 9  25066930.548 7
  20533324.560    20533325.338   -10774646.490 8   6607995.279 8
  20958661.279    20958664.222   -11075290.914 9 -12412515.869 8
  21969501.373    21969501.507   -11742132.257 9 -11930393.267 8
 89 11 20 11  4 29.0800000  0  4G13G 6G11G 9
  23889763.044    23889765.870   -24821073.124 9  24977583.288 8
  20530308.065    20530309.735   -10790497.695 9   6595643.679 8
  20949646.546    20949648.586   -11122664.669 9 -12449430.479 8
  21954434.218    21954436.020   -11821305.544 8 -11992086.730 8
 89 11 20 11  4 59.0800000  0  4G13G 6G11G 9
  23867980.343    23867981.918   -24935550.352 9  24888380.406 8
  20527367.757    20527370.088   -10805946.329 8   6583605.797 8
  20940732.995    20940735.554   -11169503.131 9 -12485927.959 7
  21939402.546    21939403.492   -11900300.279 9 -12053641.071 7
 89 11 20 11  5 29.0800000  0  4G13G 6G11G 9
  23846228.746    23846232.567   -25049839.583 9  24799323.752 8
  20524504.691    20524507.765   -10820990.520 8   6571883.043 7
  20931922.580    20931924.814   -11215805.519 9 -12522007.744 7
  21924405.584    21924406.870   -11979114.006 9 -12115054.411 8
 89 11 20 11  5 59.0800000  0  4G13G 6G11G 9
  23824518.906    23824519.245   -25163939.265 9  24710415.064 8
  20521719.583    20521721.508   -10835628.326 9   6560476.949 8
  20923213.833    20923216.068   -11261570.856 9 -12557669.008 7
  21909442.017    21909444.136   -12057744.446 9 -12176324.907 8
 89 11 20 11  6 29.0800000  0  4G13G 6G11G 9
  23802838.432    23802844.997   -25277845.776 8  24621656.630 9
  20519013.235    20519013.493   -10849857.960 8   6549388.916 8
  20914607.507    20914609.379   -11306798.534 9 -12592911.350 7
  21894513.714    21894516.879   -12136189.478 9 -12237450.920 8
 89 11 20 11  6 59.0800000  0  4G13G 6G11G 9
  23781204.285    23781206.273   -25391557.381 9  24533050.322 9
  20516382.086    20516384.170   -10863677.562 9   6538620.396 7
  20906102.266    20906105.366   -11351487.639 9 -12627734.010 9
  21879622.116    21879624.202   -12214446.705 7 -12298430.552 8
 89 11 20 11  7 29.0800000  0  4G13G 6G11G 9
  23759599.674    23759605.039   -25505070.632 8  24444598.388 8
  20513830.646    20513830.567   -10877085.185 9   6528172.906 8
  20897702.816    20897703.137   -11395637.459 9 -12662136.460 7
  21864766.979    21864768.201   -12292513.762 8 -12359261.987 8
 89 11 20 11  7 59.0800000  0  4G13G 6G11G 9
  23738040.794    23738043.032   -25618383.580 9  24356302.626 9
  20511359.109    20511360.148   -10890079.067 8   6518047.786 8
  20889403.033    20889404.672   -11439247.035 9 -12696117.927 7
  21849947.480    21849948.215   -12370388.397 9 -12419943.509 8
 89 11 20 11  8 29.0800000  0  4G13G 6G11G 9
  23716513.169    23716517.262   -25731494.179 8  24268164.508 7
  20508965.069    20508966.221   -10902657.417 9   6508246.490 8
  20881207.185    20881210.554   -11482315.697 9 -12729677.931 8
  21835165.483    21835166.934   -12448068.293 9 -12480473.309 8
 89 11 20 11  8 59.0800000  0  4G13G 6G11G 9
  23695031.034    23695033.404   -25844399.095 9  24180186.684 9
  20506650.790    20506652.215   -10914818.333 9   6498770.438 8
  20873115.258    20873117.083   -11524842.936 9 -12762816.019 8
  21820421.393    21820422.673   -12525550.937 9 -12540849.375 8
 89 11 20 11  9 29.0800000  0  4G13G 6G11G 9
  23673580.476    23673585.850   -25957096.135 7  24092370.927 8
  20504416.235    20504417.660   -10926560.112 8   6489621.000 7
  20865125.302    20865128.107   -11566828.359 9 -12795531.912 8
  21805715.165    21805716.073   -12602834.105 9 -12601069.993 8
 89 11 20 11  9 59.0800000  0  4G13G 6G11G 9
  23652179.932    23652181.933   -26069582.746 9  24004718.919 8
  20502261.630    20502263.171   -10937880.729 3   6480799.736 1
  20857238.493    20857240.728   -11608270.890 9 -12827824.807 8
  21791047.193    21791047.508   -12679915.346 8 -12661133.247 9
 89 11 20 11 10 29.0800000  0  4G13G 6G11G 9
  23630816.200    23630816.332   -26181856.405 6  23917233.189 6
  20500188.310    20500188.740   -10948778.467 8   6472307.994 7
  20849455.805    20849458.231   -11649169.790 9 -12859694.063 7
  21776418.068    21776419.029   -12756792.250 9 -12721037.305 9
 89 11 20 11 10 59.0800000  0  4G13G 6G11G 9
  23609490.146    23609493.128   -26293914.555 9  23829914.893 7
  20498195.862    20498196.435   -10959251.540 9   6464147.154 7
  20841777.659    20841777.632   -11689524.610 9 -12891139.379 8
  21761828.224    21761828.190   -12833462.621 9 -12780780.426 8
 89 11 20 11 11 29.0800000  0  4G13G 6G11G 9
  23588209.878    23588210.955   -26405754.803 9  23742766.881 8
  20496283.582    20496285.016   -10969298.033 9   6456318.720 9
  20834201.600    20834202.002   -11729334.549 9 -12922160.089 8
  21747277.901    21747277.795   -12909923.745 9 -12840360.509 8
 89 11 20 11 11 59.0800000  0  4G13G 6G11G 9
  23566964.632    23566971.139   -26517374.458 7  23655790.442 7
  20494453.007    20494453.369   -10978916.379 9   6448823.899 8
  20826728.640    20826731.017   -11768599.318 9 -12952756.016 7
  21732768.044    21732769.033   -12986173.418 9 -12899775.779 7
 89 11 20 11 12 29.0800000  0  4G13G 6G11G 9
  23545770.801    23545773.244   -26628771.595 9  23568987.490 8
  20492705.168    20492705.529   -10988104.902 8   6441664.018 8
  20819361.429    20819363.660   -11807318.590 9 -12982926.871 7
  21718299.491    21718298.992   -13062209.285 9 -12959024.451 8
 89 11 20 11 12 59.0800000  0  4G13G 6G11G 9
  23524615.812    23524618.386   -26739943.651 9  23482359.916 6
  20491038.750    20491039.798   -10996861.549 9   6434840.642 8
  20812097.617    20812099.288   -11845491.265 9 -13012671.807 7
  21703871.040    21703870.977   -13138028.811 9 -13018104.552 8
 89 11 20 11 13 29.0800000  0  4G13G 6G11G 9
  23503497.778    23503505.545   -26850887.898 9  23395909.886 9
  20489454.753    20489455.140   -11005184.791 9   6428354.987 8
  20804938.109    20804938.977   -11883117.247 9 -13041990.739 7
  21689485.072    21689484.982   -13213629.657 9 -13077014.263 7
 89 11 20 11 13 59.0800000  0  4G13G 6G11G 9
  23482434.472    23482435.158   -26961602.303 9  23309638.845 6
  20487954.178    20487954.523   -11013072.834 8   6422208.473 8
  20797881.716    20797881.181   -11920195.963 9 -13070883.220 7
  21675139.893    21675140.924   -13289009.479 9 -13135751.766 7
 89 11 20 11 14 29.0800000  0  4G13G 6G11G 9
  23461410.213    23461412.813   -27072084.009 9  23223549.366 8
  20486536.080    20486536.939   -11020523.905 8   6416402.435 8
  20790930.751    20790932.102   -11956726.916 9 -13099348.882 7
  21660838.980    21660839.731   -13364165.642 9 -13194315.014 7
 89 11 20 11 14 59.0800000  0  4G13G 6G11G 9
  23440429.207    23440433.701   -27182330.417 8  23137642.918 7
  20485199.975    20485202.639   -11027536.203 8   6410938.312 8
  20784083.151    20784084.485   -11992709.763 9 -13127387.439 8
  21646580.027    21646580.114   -13439095.765 9 -13252702.150 8
 89 11 20 11 15 29.0800000  0  4G13G 6G11G 9
  23419498.040    23419499.704   -27292339.664 9  23051921.580 8
  20483949.437    20483952.589   -11034108.183 8   6405817.285 7
  20777339.726    20777341.115   -12028144.264 9 -13154998.738 8
  21632364.731    21632365.723   -13513797.408 9 -13310911.221 8
 89 11 20 11 15 59.0800000  0  4G13G 6G11G 9
  23398608.282    23398612.891   -27402108.886 9  22966387.060 7
  20482784.901    20482785.260   -11040238.230 9   6401040.612 8
  20770700.336    20770704.282   -12063029.564 9 -13182182.080 6
  21618193.159    21618193.905   -13588267.988 9 -13368940.228 8
 89 11 20 11 16 29.0800000  0  4G13G 6G11G 9
  23377765.420    23377768.287   -27511635.493 9  22881041.716 8
  20481702.354    20481704.060   -11045924.583 8   6396609.667 8
  20764167.102    20764169.982   -12097365.435 9 -13208937.276 7
  21604066.538    21604067.185   -13662505.205 9 -13426787.415 8
 89 11 20 11 16 59.0800000  0  4G13G 6G11G 9
  23356971.987    23356975.251   -27620917.334 9  22795886.966 9
  20480704.403    20480706.610   -11051165.429 8   6392525.893 8
  20757737.293    20757739.457   -12131151.874 9 -13235264.376 7
  21589984.511    21589984.086   -13736506.627 9 -13484450.893 8
 89 11 20 11 17 29.0800000  0  4G13G 6G11G 9
  23336223.543    23336220.991   -27729951.912 9  22710925.176 7
  20479792.051    20479793.498   -11055959.290 9   6388790.421 7
  20751413.035    20751415.051   -12164388.508 8 -13261163.030 7
  21575947.868    21575949.115   -13810269.657 9 -13541928.605 8
 89 11 20 11 17 59.0800000  0  4G13G 6G11G 9
  23315515.086    23315524.687   -27838736.740 7  22626157.672 9
  20478965.894    20478966.300   -11060304.394 9   6385404.613 8
  20745193.545    20745195.340   -12197074.785 8 -13286632.839 7
  21561956.285    21561958.790   -13883791.864 9 -13599218.637 9
 89 11 20 11 18 29.0800000  0  4G13G 6G11G 9
  23294866.670    23294867.776   -27947269.898 9  22541586.369 7
  20478224.880    20478225.657   -11064199.146 9   6382369.740 7
  20739078.657    20739080.221   -12229210.698 9 -13311673.777 7
  21548011.848    21548013.924   -13957070.593 9 -13656318.909 8
 89 11 20 11 18 59.0800000  0  4G13G 6G11G 9
  23274263.484    23274265.901   -28055548.806 9  22457213.294 9
  20477569.637    20477570.768   -11067641.911 8   6379687.075 9
  20733066.315    20733068.570   -12260795.830 9 -13336285.552 8
  21534114.188    21534116.223   -14030103.660 8 -13713227.798 8
 89 11 20 11 19 29.0800000  0  4G13G 6G11G 9
  23253707.797    23253708.618   -28163571.267 8  22373039.950 7
  20477000.531    20477001.107   -11070631.153 8   6377357.811 8
  20727161.213    20727163.458   -12291830.028 9 -13360468.025 7
  21520263.154    21520264.617   -14102888.400 9 -13769943.196 8
 89 11 20 11 19 59.0800000  0  4G13G 6G11G 9
  23233198.566    23233200.543   -28271334.545 9  22289068.670 8
  20476519.029    20476518.646   -11073165.243 8   6375383.205 7
  20721360.837    20721363.324   -12322313.310 8 -13384221.216 7
  21506461.338    21506463.251   -14175422.355 8 -13826463.165 7
 89 11 20 11 20 29.0800000  0  4G13G 6G11G 9
  23212740.646    23212746.274   -28378836.615 8  22205300.739 9
  20476123.382    20476124.557   -11075242.619 9   6373764.473 6
  20715664.872    20715665.149   -12352245.345 9 -13407544.869 6
  21492706.464    21492707.317   -14247702.745 8 -13882785.535 8
 89 11 20 11 20 59.0800000  0  4G13G 6G11G 9
  23192336.672    23192337.387   -28486074.559 9  22121738.727 7
  20475814.848    20475815.723   -11076861.704 8   6372502.832 8
  20710073.266    20710075.737   -12381626.007 9 -13430438.874 7
  21479000.398    21479000.965   -14319727.255 9 -13938908.502 8
 89 11 20 11 21 29.0800000  0  4G13G 6G11G 9
  23171981.074    23171982.853   -28593046.178 9  22038384.318 8
  20475594.258    20475595.306   -11078020.784 9   6371599.667 8
  20704587.985    20704590.030   -12410455.006 8 -13452903.015 7
  21465344.550    21465345.776   -14391493.349 8 -13994830.133 7
 89 11 20 11 21 59.0800000  0  4G13G 6G11G 9
  23151676.288    23151679.521   -28699749.473 9  21955238.878 7
  20475461.784    20475462.602   -11078718.465 8   6371056.006 8
  20699206.639    20699209.135   -12438732.256 8 -13474937.212 7
  21451738.025    21451737.847   -14462998.329 8 -14050548.301 8
 89 11 20 11 22 29.0800000  0  4G13G 6G11G 9
  23131419.811    23131421.756   -28806182.062 9  21872304.440 7
  20475416.740    20475416.371   -11078953.241 8   6370873.069 9
  20693930.895    20693932.801   -12466458.021 8 -13496541.678 7
  21438180.932    21438181.391   -14534239.867 9 -14106061.179 8
 89 11 20 11 22 59.0800000  0  4G13G 6G11G 9
  23111219.335    23111223.795   -28912341.212 9  21789582.992 8
  20475460.327    20475462.290   -11078723.474 9   6371052.117 8
  20688760.037    20688763.016   -12493631.682 9 -13517715.943 7
  21424674.529    21424674.825   -14605215.403 9 -14161366.785 8
 89 11 20 11 23 29.0800000  0  4G13G 6G11G 9
  23091071.649    23091071.728   -29018224.601 9  21707076.457 7
  20475593.205    20475593.135   -11078027.454 9   6371594.474 8
  20683694.803    20683695.711   -12520253.291 8 -13538460.045 7
  21411218.466    21411220.128   -14675922.173 9 -14216462.952 8
 89 11 20 11 23 59.0800000  0  4G13G 6G11G 9
  23070975.112    23070975.206   -29123830.734 9  21624786.020 8
  20475814.969    20475816.159   -11076864.152 8   6372500.930 7
  20678732.525    20678734.478   -12546323.413 9 -13558774.409 7
  21397815.555    21397816.873   -14746357.882 9 -14271347.920 7
 89 11 20 11 24 29.0800000  0  4G13G 6G11G 9
  23050932.712    23050934.342   -29229156.284 9  21542714.125 8
  20476124.248    20476126.123   -11075231.787 9   6373772.894 8
  20673876.937    20673878.618   -12571841.613 9 -13578658.719 7
  21384464.220    21384465.960   -14816519.679 9 -14326019.445 8
 89 11 20 11 24 59.0800000  0  4G13G 6G11G 9
  23030942.570    23030944.908   -29334199.442 9  21460862.338 8
  20476524.992    20476526.799   -11073129.028 9   6375411.386 8
  20669125.878    20669128.052   -12596808.270 8 -13598113.240 8
  21371165.486    21371166.091   -14886405.252 9 -14380475.726 8
 89 11 20 11 25 29.0800000  0  4G13G 6G11G 9
  23011007.919    23011010.707   -29438957.949 9  21379232.354 8
  20477016.085    20477015.830   -11070554.352 8   6377417.634 8
  20664480.907    20664481.831   -12621223.350 9 -13617137.962 7
  21357919.933    21357920.394   -14956012.015 9 -14434714.734 7
 89 11 20 11 25 59.0800000  0  4G13G 6G11G 9
  22991128.120    22991130.543   -29543429.238 9  21297826.156 8
  20477594.579    20477596.170   -11067506.394 9   6379792.676 7
  20659938.736    20659940.224   -12645087.174 8 -13635733.140 8
  21344728.318    21344728.191   -15025337.311 9 -14488734.425 7
 89 11 20 11 26 29.0800000  0  4G13G 6G11G 9
  22971303.429    22971304.106   -29647611.359 9  21216645.312 7
  20478265.051    20478266.671   -11063983.591 9   6382537.717 8
  20655502.758    20655505.025   -12668399.558 9 -13653898.634 6
  21331589.834    21331590.343   -15094378.480 9 -14542532.740 7
 89 11 20 11 26 59.0800000  0  4G13G 6G11G 9
  22951532.826    22951535.368   -29751502.128 9  21135691.476 8
  20479026.044    20479027.821   -11059984.736 9   6385653.695 8
  20651171.518    20651172.570   -12691160.558 9 -13671634.468 7
  21318505.173    21318506.562   -15163133.074 8 -14596107.732 7
 89 11 20 11 27 29.0800000  0  4G13G 6G11G 9
  22931818.904    22931820.536   -29855099.140 9  21054966.524 8
  20479878.015    20479880.077   -11055508.255 9   6389141.853 7
  20646944.460    20646946.661   -12713370.255 8 -13688940.710 7
  21305477.806    21305478.482   -15231598.469 9 -14649457.374 8
 89 11 20 11 27 59.0800000  0  4G13G 6G11G 9
  22912160.617    22912163.314   -29958400.123 9  20974472.271 7
  20480821.192    20480822.240   -11050552.819 8   6393003.230 9
  20642823.925    20642825.568   -12735028.946 8 -13705817.607 7
  21292504.956    21292505.309   -15299772.045 8 -14702579.631 8
 89 11 20 11 28 29.0800000  0  4G13G 6G11G 9
  22892559.067    22892563.178   -30061402.639 9  20894210.591 9
  20481854.747    20481856.410   -11045117.066 8   6397238.874 7
  20638805.820    20638807.178   -12756136.731 8 -13722265.217 7
  21279587.971    21279588.288   -15367651.306 9 -14755472.570 8
 89 11 20 11 28 59.0800000  0  4G13G 6G11G 9
  22873017.289    22873020.342   -30164104.855 9  20814182.917 8
  20482981.339    20482982.844   -11039199.628 9   6401849.866 8
  20634894.792    20634894.791   -12776694.137 8 -13738283.963 7
  21266727.228    21266727.295   -15435233.714 9 -14808134.178 8
 89 11 20 11 29 29.0800000  0  4G13G 6G11G 9
  22853532.142    22853533.420   -30266504.310 9  20734391.182 8
  20484199.140    20484201.474   -11032799.252 8   6406837.178 8
  20631086.967    20631089.266   -12796701.062 9 -13753873.767 7
  21253923.821    21253923.172   -15502516.289 9 -14860562.163 7
 89 11 20 11 29 59.0800000  0  4G13G 6G11G 9
  22834104.213    22834105.143   -30368599.223 9  20654836.739 8
  20485510.864    20485510.852   -11025914.520 8   6412201.870 8
  20627383.996    20627387.287   -12816158.037 7 -13769035.020 6
  21241177.380    21241178.076   -15569496.781 9 -14912754.764 8
 89 11 20 11 30 29.0800000  0  4G13G 6G11G 9
  22814734.325    22814735.661   -30470387.017 9  20575521.579 8
  20486913.652    20486912.866   -11018544.274 8   6417944.909 8
  20623787.150    20623788.985   -12835065.504 9 -13783768.110 6
  21228489.062    21228488.964   -15636172.347 9 -14964709.749 7
 89 11 20 11 30 59.0800000  0  4G13G 6G11G 9
  22795423.095    22795425.271   -30571865.710 9  20496447.306 8
  20488407.161    20488407.850   -11010687.035 9   6424067.420 9
  20620294.034    20620296.175   -12853423.597 8 -13798073.110 7
  21215860.313    21215860.658   -15702540.525 9 -15016425.219 7
 89 11 20 11 31 29.0800000  0  4G13G 6G11G 9
  22776171.459    22776174.103   -30673032.920 9  20417615.726 8
  20489995.998    20489996.515   -11002341.625 8   6430570.312 7
  20616904.997    20616906.349   -12871232.677 8 -13811950.307 7
  21203289.352    21203291.201   -15768598.806 9 -15067899.184 7
 89 11 20 11 31 59.0800000  0  4G13G 6G11G 9
  22756979.585    22756983.139   -30773886.214 9  20339028.725 8
  20491676.670    20491678.118   -10993506.821 9   6437454.580 9
  20613620.148    20613621.057   -12888493.269 9 -13825400.109 7
  21190779.048    21190780.382   -15834344.406 9 -15119129.521 7
 89 11 20 11 32 29.0800000  0  4G13G 6G11G 9
  22737848.746    22737850.331   -30874423.673 9  20260687.852 7
  20493451.183    20493452.547   -10984181.404 9   6444721.128 8
  20610439.806    20610443.690   -12905205.545 9 -13838422.635 7
  21178327.226    21178328.908   -15899774.590 8 -15170114.047 7
 89 11 20 11 32 59.0800000  0  4G13G 6G11G 9
  22718776.404    22718778.009   -30974643.333 9  20182594.629 8
  20495319.479    20495320.181   -10974364.075 8   6452371.007 8
  20607363.535    20607364.486   -12921370.048 8 -13851018.338 7
  21165937.141    21165938.902   -15964887.056 9 -15220851.032 7
 89 11 20 11 33 29.0800000  0  4G13G 6G11G 9
  22699765.018    22699769.390   -31074543.301 9  20104750.504 8
  20497281.641    20497282.275   -10964053.715 8   6460405.023 8
  20604392.284    20604392.888   -12936987.071 9 -13863187.443 7
  21153607.418    21153608.423   -16029679.044 8 -15271338.266 8
 89 11 20 11 33 59.0800000  0  4G13G 6G11G 9
  22680816.132    22680819.557   -31174121.280 9  20027157.306 8
  20499338.217    20499338.262   -10953249.151 9   6468824.149 7
  20601523.668    20601526.436   -12952057.158 8 -13874930.358 6
  21141340.390    21141341.044   -16094147.858 9 -15321573.701 7
 89 11 20 11 34 29.0800000  0  4G13G 6G11G 9
  22661928.908    22661931.783   -31273374.604 9  19949817.077 8
  20501487.631    20501489.651   -10941949.165 8   6477629.329 8
  20598760.677    20598763.774   -12966580.888 8 -13886247.539 6
  21129133.600    21129134.925   -16158291.073 8 -15371555.431 8
 89 11 20 11 34 59.0800000  0  4G13G 6G11G 9
  22643104.050    22643107.171   -31372301.914 9  19872730.900 8
  20503733.173    20503733.706   -10930152.501 8   6486821.536 8
  20596099.262    20596100.601   -12980558.860 9 -13897139.441 6
  21116990.248    21116992.146   -16222105.778 9 -15421281.178 8
 89 11 20 11 35 29.0800000  0  4G13G 6G11G 9
  22624342.040    22624345.102   -31470900.876 8  19795900.546 8
  20506071.927    20506074.420   -10917858.255 9   6496401.449 8
  20593545.212    20593545.675   -12993991.114 9 -13907606.133 6
  21104909.556    21104910.166   -16285589.666 8 -15470749.135 7
 89 11 20 11 35 59.0800000  0  4G13G 6G11G 9
  22605641.419    22605643.978   -31569169.115 9  19719327.913 9
  20508506.322    20508508.128   -10905065.123 9   6506370.118 8
  20591091.344    20591094.148   -13006878.542 8 -13917648.290 8
  21092893.354    21092895.054   -16348739.652 9 -15519956.916 8
 89 11 20 11 36 29.0800000  0  4G13G 6G11G 9
  22587005.219    22587008.066   -31667104.751 9  19643014.433 7
  20511036.131    20511037.551   -10891772.045 9   6516728.346 8
  20588742.693    20588744.689   -13019221.895 8 -13927266.456 7
  21080939.185    21080940.039   -16411553.476 9 -15568902.759 7
 89 11 20 11 36 59.0800000  0  4G13G 6G11G 9
  22568431.874    22568434.476   -31764705.600 9  19566961.851 8
  20513661.297    20513661.943   -10877977.997 9   6527476.945 8
  20586497.065    20586500.381   -13031021.850 8 -13936461.224 7
  21069050.443    21069051.390   -16474028.373 9 -15617584.493 8
 89 11 20 11 37 29.0800000  0  4G13G 6G11G 9
  22549923.972    22549923.708   -31861969.821 9  19491171.560 8
  20516381.905    20516382.594   -10863681.926 9   6538616.733 8
  20584355.503    20584357.513   -13042278.699 8 -13945232.777 7
  21057226.773    21057228.507   -16536161.888 9 -15666000.212 7
 89 11 20 11 37 59.0800000  0  4G13G 6G11G 9
  22531479.668    22531480.873   -31958895.499 9  19415645.067 8
  20519197.841    20519199.018   -10848882.694 8   6550148.610 9
  20582316.274    20582318.964   -13052993.052 8 -13953581.614 7
  21045469.076    21045470.996   -16597951.342 9 -15714147.828 9
 89 11 20 11 38 29.0800000  0  4G13G 6G11G 9
  22513100.545    22513102.284   -32055480.326 9  19340384.179 7
  20522110.593    20522110.709   -10833579.374 9   6562073.257 8
  20580380.302    20580383.000   -13063165.656 9 -13961508.317 7
  21033777.422    21033778.389   -16659394.032 9 -15762025.235 7
 89 11 20 11 38 59.0800000  0  4G13G 6G11G 9
  22494785.760    22494787.697   -32151722.674 9  19265390.138 8
  20525119.273    20525120.264   -10817770.803 9   6574391.617 8
  20578548.169    20578549.391   -13072797.034 9 -13969013.274 7
  21022150.911    21022152.030   -16720487.246 9 -15809630.329 8
 89 11 20 11 39 29.0800000  0  4G13G 6G11G 9
  22476537.573    22476538.701   -32247620.282 9  19190664.754 8
  20528223.539    20528223.887   -10801456.115 9   6587104.351 9
  20576819.050    20576820.191   -13081887.927 9 -13976097.078 7
  21010592.640    21010594.017   -16781228.392 8 -15856961.071 8
 89 11 20 11 39 59.0800000  0  4G13G 6G11G 9
  22458354.419    22458358.304   -32343171.244 9  19116209.452 7
  20531424.078    20531425.754   -10784634.263 8   6600212.278 8
  20575190.169    20575192.367   -13090439.216 8 -13982760.416 7
  20999102.332    20999102.505   -16841614.949 9 -15904015.530 8
 89 11 20 11 40 29.0800000  0  4G13G 6G11G 9
  22440238.135    22440241.524   -32438373.384 9  19042025.984 8
  20534721.116    20534722.894   -10767304.240 9   6613716.192 8
  20573666.042    20573668.602   -13098451.458 8 -13989003.713 6
  20987678.495    20987679.770   -16901644.156 9 -15950791.532 8
 89 11 20 11 40 59.0800000  0  4G13G 6G11G 9
  22422187.968    22422190.496   -32533224.722 9  18968115.861 8
  20538115.832    20538119.026   -10749465.322 9   6627616.639 8
  20572243.329    20572245.299   -13105925.648 8 -13994827.754 8
  20976324.182    20976325.206   -16961313.289 9 -15997286.949 8
 89 11 20 11 41 29.0800000  0  4G13G 6G11G 9
  22404205.678    22404207.760   -32627723.731 9  18894480.276 8
  20541608.621    20541609.670   -10731116.442 9   6641914.445 8
  20570924.678    20570926.922   -13112862.631 8 -14000233.179 8
  20965037.914    20965039.583   -17020620.035 9 -16043499.998 8
 89 11 20 11 41 59.0800000  0  4G13G 6G11G 9
  22386289.686    22386292.836   -32721867.822 9  18821121.250 9
  20545197.997    20545197.141   -10712256.757 9   6656610.307 8
  20569706.010    20569708.305   -13119263.101 8 -14005220.562 6
  20953821.898    20953822.809   -17079561.628 9 -16089428.510 8
 89 11 20 11 42 29.0800000  0  4G13G 6G11G 9
  22368443.061    22368445.488   -32815656.015 9  18748039.547 8
  20548884.046    20548884.278   -10692885.334 9   6671704.900 9
  20568590.318    20568591.489   -13125127.737 8 -14009790.398 7
  20942676.125    20942676.442   -17138135.397 9 -16135070.418 8
 89 11 20 11 42 59.0800000  0  4G13G 6G11G 9
  22350663.876    22350665.994   -32909086.320 9  18675236.719 8
  20552667.523    20552668.170   -10673001.366 8   6687198.906 8
  20567575.125    20567577.584   -13130457.427 8 -14013943.396 7
  20931600.083    20931600.521   -17196338.764 9 -16180423.685 8
 89 11 20 11 43 29.0800000  0  4G13G 6G11G 9
  22332952.846    22332955.667   -33002156.437 9  18602714.572 7
  20556548.073    20556548.916   -10652604.060 9   6703092.923 8
  20566662.917    20566666.189   -13135253.192 8 -14017680.356 6
  20920595.807    20920595.273   -17254169.123 9 -16225486.283 8
 89 11 20 11 43 59.0800000  0  4G13G 6G11G 9
  22315311.130    22315313.178   -33094864.499 8  18530474.520 8
  20560528.268    20560528.919   -10631692.511 9   6719387.612 8
  20565851.502    20565853.783   -13139515.648 8 -14021001.739 7
  20909662.367    20909662.959   -17311623.803 9 -16270256.156 7
 89 11 20 11 44 29.0800000  0  4G13G 6G11G 9
  22297737.926    22297741.346   -33187208.604 9  18458518.081 7
  20564604.498    20564607.886   -10610265.879 9   6736083.683 8
  20565141.988    20565143.592   -13143246.096 8 -14023908.543 6
  20898800.275    20898801.903   -17368699.975 9 -16314731.080 8
 89 11 20 11 44 59.0800000  0  4G13G 6G11G 9
  22280236.812    22280237.873   -33279186.976 9  18386846.642 8
  20568781.660    20568782.268   -10588323.379 8   6753181.731 9
  20564532.621    20564533.585   -13146445.308 8 -14026401.452 8
  20888012.026    20888012.148   -17425395.392 9 -16358909.322 7
 89 11 20 11 45 29.0800000  0  4G13G 6G11G 9
  22262802.178    22262805.515   -33370797.542 9  18315461.797 7
  20573055.002    20573055.258   -10565864.360 8   6770682.264 8
  20564024.564    20564027.137   -13149113.989 7 -14028480.938 7
  20877296.796    20877296.976   -17481707.251 9 -16402788.694 7
 89 11 20 11 45 59.0800000  0  4G13G 6G11G 9
  22245440.263    22245443.055   -33462038.690 9  18244364.811 7
  20577428.078    20577428.303   -10542887.975 9   6788585.930 8
  20563618.088    20563620.228   -13151253.319 8 -14030147.935 7
  20866654.149    20866653.279   -17537632.849 9 -16446367.069 8
 89 11 20 11 46 29.0800000  0  4G13G 6G11G 9
  22228148.608    22228151.272   -33552908.024 9  18173557.534 8
  20581897.705    20581899.509   -10519393.462 9   6806893.324 8
  20563310.927    20563314.417   -13152864.482 8 -14031403.400 6
  20856086.267    20856084.482   -17593169.718 9 -16489642.532 8
 89 11 20 11 46 59.0800000  0  4G13G 6G11G 9
  22210927.925    22210931.082   -33643404.248 9  18103041.004 8
  20586467.598    20586468.424   -10495380.118 9   6825605.032 8
  20563105.284    20563107.910   -13153948.420 8 -14032248.003 7
  20845591.335    20845592.238   -17648315.300 9 -16532613.107 8
 89 11 20 11 47 29.0800000  0  4G13G 6G11G 9
  22193779.618    22193780.190   -33733526.095 9  18032816.196 7
  20591135.745    20591136.613   -10470847.325 8   6844721.486 7
  20562999.279    20563002.031   -13154505.877 8 -14032682.380 7
  20835173.113    20835173.057   -17703066.907 9 -16575276.693 8
 89 11 20 11 47 59.0800000  0  4G13G 6G11G 9
  22176700.790    22176703.058   -33823271.418 9  17962884.760 8
  20595903.341    20595904.688   -10445794.680 8   6864243.001 9
  20562992.877    20562994.491   -13154538.468 7 -14032707.755 8
  20824830.229    20824830.204   -17757422.152 9 -16617631.433 8
 89 11 20 11 48 29.0800000  0  4G13G 6G11G 9
  22159694.174    22159696.851   -33912638.106 9  17893248.390 8
  20600768.888    20600771.155   -10420220.912 8   6884170.608 8
  20563085.729    20563089.996   -13154046.622 8 -14032324.495 7
  20814561.310    20814562.157   -17811377.894 9 -16659674.852 8
 89 11 20 11 48 59.0800000  0  4G13G 6G11G 9
  22142760.856    22142762.917   -34001624.591 9  17823908.278 7
  20605735.848    20605736.161   -10394125.950 9   6904504.329 8
  20563279.017    20563283.360   -13153031.558 8 -14031533.539 8
  20804370.233    20804370.636   -17864931.971 9 -16701405.298 9
 89 11 20 11 49 29.0800000  0  4G13G 6G11G 9
  22125899.348    22125902.961   -34090229.351 9  17754865.618 8
  20610799.842    20610802.149   -10367508.941 9   6925244.847 9
  20563571.044    20563575.063   -13151494.577 8 -14030335.882 7
  20794256.341    20794257.216   -17918081.812 9 -16742820.759 9
 89 11 20 11 49 59.0800000  0  4G13G 6G11G 9
  22109112.082    22109114.274   -34178450.192 9  17686122.130 8
  20615963.860    20615966.240   -10340369.401 8   6946392.522 8
  20563964.800    20563966.557   -13149436.644 7 -14028732.288 7
  20784219.230    20784219.519   -17970824.665 9 -16783919.097 8
 89 11 20 11 50 29.0800000  0  4G13G 6G11G 9
  22092396.837    22092399.965   -34266285.328 9  17617679.182 8
  20621229.834    20621229.535   -10312706.537 9   6967947.999 8
  20564453.837    20564457.129   -13146859.500 7 -14026724.116 7
  20774260.033    20774262.955   -18023157.994 9 -16824698.305 8
 89 11 20 11 50 59.0800000  0  4G13G 6G11G 9
  22075757.229    22075759.026   -34353733.684 9  17549537.621 8
  20626593.234    20626594.217   -10284520.004 9   6989911.525 9
  20565042.141    20565044.352   -13143763.763 7 -14024311.844 7
  20764381.497    20764382.172   -18075079.165 8 -16865156.353 8
 89 11 20 11 51 29.0800000  0  4G13G 6G11G 9
  22059190.477    22059191.407   -34440793.479 9  17481698.833 7
  20632055.427    20632057.883   -10255809.296 9   7012283.491 8
  20565730.224    20565732.955   -13140150.809 8 -14021496.539 7
  20754579.242    20754580.004   -18126585.716 8 -16905291.321 9
 89 11 20 11 51 59.0800000  0  4G13G 6G11G 9
  22042698.289    22042699.764   -34527462.818 9  17414164.298 7
  20637620.087    20637621.760   -10226573.839 9   7035064.353 9
  20566516.499    20566518.584   -13136021.699 7 -14018279.052 7
  20744856.449    20744858.053   -18177674.936 9 -16945101.086 8
 89 11 20 11 52 29.0800000  0  4G13G 6G11G 9
  22026279.194    22026281.384   -34613740.277 9  17346935.118 7
  20643282.070    20643283.918   -10196813.205 9   7058254.422 8
  20567400.343    20567403.113   -13131377.823 8 -14014660.434 7
  20735214.559    20735217.237   -18228344.283 8 -16984583.684 8
 89 11 20 11 52 59.0800000  0  4G13G 6G11G 9
  22009935.400    22009938.342   -34699623.946 9  17280012.775 8
  20649046.507    20649047.075   -10166526.841 8   7081854.152 7
  20568381.343    20568384.987   -13126220.472 8 -14010641.716 8
  20725654.545    20725654.432   -18278591.232 9 -17023737.148 9
 89 11 20 11 53 29.0800000  0  4G13G 6G11G 9
  21993668.061    21993670.279   -34785112.380 9  17213398.425 8
  20654910.031    20654910.544   -10135714.411 9   7105863.839 8
  20569461.032    20569462.277   -13120550.700 8 -14006223.706 7
  20716172.618    20716173.250   -18328413.402 8 -17062559.614 8
 89 11 20 11 53 59.0800000  0  4G13G 6G11G 9
  21977475.837    21977478.334   -34870203.980 9  17147093.302 7
  20660873.334    20660874.350   -10104375.371 9   7130283.863 8
  20570637.482    20570639.431   -13114369.833 8 -14001407.428 8
  20706773.741    20706773.943   -18377808.146 9 -17101049.020 8
 89 11 20 11 54 29.0800000  0  4G13G 6G11G 9
  21961359.294    21961360.826   -34954897.386 9  17081098.453 8
  20666937.146    20666937.753   -10072509.426 9   7155114.468 8
  20571909.746    20571911.562   -13107679.020 7 -13996193.808 7
  20697455.939    20697455.856   -18426772.738 8 -17139203.250 8
 89 11 20 11 54 59.0800000  0  4G13G 6G11G 9
  21945319.371    21945321.039   -35039190.696 9  17015415.369 8
  20673100.928    20673102.702   -10040116.231 8   7180355.888 9
  20573279.499    20573283.272   -13100479.720 8 -13990583.967 7
  20688219.970    20688221.476   -18475304.694 8 -17177020.354 8
 89 11 20 11 55 29.0800000  0  4G13G 6G11G 9
  21929353.782    21929357.204   -35123082.147 9  16950045.406 8
  20679365.651    20679367.596   -10007195.405 9   7206008.464 8
  20574745.978    20574748.250   -13092773.468 8 -13984579.082 7
  20679068.157    20679068.174   -18523401.686 8 -17214498.521 8
 89 11 20 11 55 59.0800000  0  4G13G 6G11G 9
  21913466.910    21913468.698   -35206571.155 9  16884989.046 8
  20685730.718    20685733.722    -9973746.549 9   7232072.502 8
  20576309.428    20576311.813   -13084561.374 8 -13978180.021 8
  20669998.449    20669999.982   -18571061.281 9 -17251635.862 8
 89 11 20 11 56 29.0800000  0  4G13G 6G11G 9
  21897656.491    21897657.293   -35289654.981 9  16820248.409 8
  20692196.277    20692199.137    -9939769.472 9   7258548.137 7
  20577968.128    20577970.641   -13075845.196 8 -13971388.201 7
  20661013.121    20661014.125   -18618280.674 9 -17288430.181 8
 89 11 20 11 56 59.0800000  0  4G13G 6G11G 9
  21881923.808    21881925.795   -35372332.399 9  16755824.441 7
  20698763.300    20698764.148    -9905263.695 9   7285435.758 9
  20579721.726    20579725.694   -13066626.047 8 -13964204.444 7
  20652111.631    20652112.921   -18665057.568 8 -17324879.693 7
 89 11 20 11 57 29.0800000  0  4G13G 6G11G 9
  21866268.415    21866270.248   -35454602.342 8  16691718.003 7
  20705429.183    20705431.102    -9870229.071 8   7312735.450 9
  20581570.795    20581573.499   -13056905.093 8 -13956629.661 7
  20643296.124    20643295.428   -18711389.173 8 -17360982.228 9
 89 11 20 11 57 59.0800000  0  4G13G 6G11G 9
  21850689.513    21850692.283   -35536463.146 9  16627930.373 7
  20712197.434    20712198.551    -9834665.249 9   7340447.511 9
  20583516.639    20583519.837   -13046683.878 7 -13948665.075 7
  20634563.484    20634564.931   -18757273.299 8 -17396736.083 8
 89 11 20 11 58 29.0800000  0  4G13G 6G11G 9
  21835190.847    21835193.547   -35617912.988 9  16564462.982 7
  20719065.697    20719066.703    -9798572.158 9   7368571.988 8
  20585556.872    20585559.154   -13035964.031 8 -13940311.929 7
  20625918.460    20625918.747   -18802707.311 9 -17432139.184 8
 89 11 20 11 58 59.0800000  0  4G13G 6G11G 9
  21819770.033    21819772.848   -35698951.110 9  16501316.411 8
  20726034.747    20726036.406    -9761949.507 9   7397109.102 8
  20587690.727    20587693.732   -13024746.949 8 -13931571.345 6
  20617358.830    20617359.304   -18847688.790 9 -17467189.674 8
 89 11 20 11 59 29.0800000  0  4G13G 6G11G 9
  21804427.754    21804429.852   -35779575.706 9  16438492.043 8
  20733104.330    20733106.011    -9724797.091 8   7426059.019 8
  20589918.869    20589921.962   -13013034.020 8 -13922444.393 7
  20608885.055    20608885.917   -18892215.192 9 -17501885.567 7
 89 11 20 11 59 59.0800000  0  4G13G 6G11G 9
  21789165.241    21789166.829   -35859785.340 8  16375991.035 8
  20740275.257    20740276.542    -9687114.759 9   7455421.875 8
  20592243.166    20592245.227   -13000826.868 8 -13912932.330 8
  20600498.967    20600500.445   -18936284.173 8 -17536225.030 8
 89 11 20 12  0 29.0800000  0  4G13G 6G11G 9
  21773980.113    21773982.511   -35939578.608 9  16313814.469 9
  20747546.831    20747548.720    -9648902.367 9   7485197.754 8
  20594658.544    20594661.239   -12988126.742 8 -13903036.107 7
  20592201.412    20592201.943   -18979893.237 8 -17570206.123 9
 89 11 20 12  0 59.0800000  0  4G13G 6G11G 9
  21758875.860    21758878.379   -36018953.946 9  16251963.558 8
  20754920.203    20754920.111    -9610159.823 9   7515386.736 9
  20597169.829    20597171.102   -12974935.630 8 -13892757.324 6
  20583990.843    20583991.130   -19023039.881 8 -17603826.865 8
 89 11 20 12  1 29.0800000  0  4G13G 6G11G 9
  21743851.232    21743853.787   -36097909.653 9  16190439.650 8
  20762393.974    20762394.579    -9570887.086 9   7545988.873 8
  20599772.742    20599774.849   -12961254.837 9 -13882096.961 7
  20575868.388    20575868.978   -19065721.822 9 -17637085.508 8
 89 11 20 12  1 59.0800000  0  4G13G 6G11G 9
  21728905.695    21728908.137   -36176445.461 9  16129242.931 7
  20769967.093    20769968.864    -9531083.930 9   7577004.293 8
  20602469.569    20602472.338   -12947085.911 7 -13871056.233 7
  20567835.023    20567835.311   -19107936.388 9 -17669979.964 8
 89 11 20 12  2 29.0800000  0  4G13G 6G11G 9
  21714041.867    21714044.206   -36254559.641 9  16068374.730 8
  20777643.809    20777643.089    -9490750.457 8   7608432.976 8
  20605259.157    20605259.880   -12932430.368 8 -13859636.336 8
  20559891.018    20559893.024   -19149681.308 9 -17702508.448 8
 89 11 20 12  2 59.0800000  0  4G13G 6G11G 9
  21699257.266    21699260.165   -36332250.872 9  16007836.118 8
  20785418.074    20785419.843    -9449886.477 8   7640275.018 8
  20608139.210    20608142.622   -12917289.765 7 -13847838.462 8
  20552036.675    20552038.480   -19190954.182 9 -17734669.120 8
 89 11 20 12  3 29.0800000  0  4G13G 6G11G 9
  21684554.471    21684556.326   -36409517.839 9  15947628.117 8
  20793295.103    20793296.276    -9408492.159 9   7672530.316 9
  20611112.656    20611115.149   -12901665.910 8 -13835664.041 8
  20544274.827    20544274.428   -19231752.656 8 -17766460.128 8
 89 11 20 12  3 59.0800000  0  4G13G 6G11G 9
  21669931.044    21669933.827   -36486359.128 9  15887751.783 8
  20801273.783    20801274.639    -9366567.405 8   7705198.935 8
  20614176.036    20614180.141   -12885560.372 8 -13823114.261 7
  20536600.850    20536600.838   -19272074.372 8 -17797879.650 8
 89 11 20 12  4 29.0800000  0  4G13G 6G11G 9
  21655390.653    21655392.614   -36562773.414 9  15828208.188 8
  20809352.394    20809354.032    -9324112.260 9   7738280.858 8
  20617333.637    20617336.178   -12868974.524 8 -13810190.210 7
  20529018.654    20529019.544   -19311916.899 9 -17828925.779 7
 89 11 20 12  4 59.0800000  0  4G13G 6G11G 9
  21640930.421    21640932.404   -36638759.443 9  15768998.295 7
  20817532.153    20817534.197    -9281126.833 9   7771775.967 7
  20620581.748    20620584.116   -12851910.171 8 -13796893.312 7
  20521528.236    20521530.344   -19351277.843 9 -17859596.641 8
 89 11 20 12  5 29.0800000  0  4G13G 6G11G 9
  21626551.873    21626554.949   -36714315.779 9  15710123.245 8
  20825813.075    20825814.957    -9237611.111 9   7805684.319 9
  20623918.925    20623921.452   -12834368.853 8 -13783224.748 7
  20514131.288    20514130.459   -19390154.961 8 -17889890.505 8
 89 11 20 12  5 59.0800000  0  4G13G 6G11G 9
  21612256.175    21612259.295   -36789441.334 9  15651583.845 8
  20834194.773    20834195.526    -9193565.318 9   7840005.703 9
  20627348.440    20627349.349   -12816352.315 9 -13769185.876 7
  20506824.314    20506826.219   -19428545.763 9 -17919805.403 8
 89 11 20 12  6 29.0800000  0  4G13G 6G11G 9
  21598043.306    21598045.747   -36864135.209 9  15593380.847 7
  20842676.823    20842679.617    -9148989.623 9   7874739.992 9
  20630865.644    20630867.642   -12797862.342 8 -13754778.122 7
  20499612.570    20499612.470   -19466448.112 9 -17949339.706 9
 89 11 20 12  6 59.0800000  0  4G13G 6G11G 9
  21583911.385    21583913.496   -36938396.043 9  15535515.274 8
  20851260.980    20851261.263    -9103883.909 8   7909887.273 8
  20634474.394    20634477.272   -12778900.777 7 -13740002.866 8
  20492493.231    20492493.391   -19503859.638 8 -17978491.533 7
 89 11 20 12  7 29.0800000  0  4G13G 6G11G 9
  21569862.263    21569865.076   -37012222.339 9  15477988.306 8
  20859944.716    20859947.026    -9058248.648 9   7945447.199 8
  20638171.268    20638174.894   -12759469.197 8 -13724861.381 8
  20485467.261    20485469.067   -19540778.028 9 -18007259.107 8
 89 11 20 12  7 59.0800000  0  4G13G 6G11G 9
  21555896.829    21555899.907   -37085613.548 9  15420800.366 7
  20868730.162    20868731.135    -9012083.853 9   7981419.739 8
  20641958.817    20641960.852   -12739569.389 7 -13709355.025 7
  20478537.765    20478537.610   -19577200.837 9 -18035640.522 8
 89 11 20 12  8 29.0800000  0  4G13G 6G11G 9
  21542014.352    21542016.549   -37158568.685 9  15363952.217 8
  20877615.744    20877617.264    -8965389.699 9   8017804.781 9
  20645834.285    20645835.847   -12719202.821 8 -13693484.967 6
  20471700.636    20471700.525   -19613125.855 9 -18063634.034 8
 89 11 20 12  8 59.0800000  0  4G13G 6G11G 9
  21528213.818    21528216.052   -37231086.215 9  15307445.031 8
  20886601.889    20886602.308    -8918166.594 9   8054601.991 8
  20649798.779    20649800.107   -12698371.510 7 -13677252.779 7
  20464959.508    20464958.873   -19648550.963 9 -18091238.011 7
 89 11 20 12  9 29.0800000  0  4G13G 6G11G 9
  21514498.758    21514500.963   -37303165.097 9  15251279.650 7
  20895688.600    20895689.132    -8870414.616 9   8091811.299 9
  20653850.837    20653853.786   -12677077.178 9 -13660659.789 7
  20458313.410    20458314.450   -19683473.905 9 -18118450.702 8
 89 11 20 12  9 59.0800000  0  4G13G 6G11G 9
  21500866.222    21500868.397   -37374804.109 9  15195457.029 7
  20904876.133    20904877.323    -8822134.107 9   8129432.452 8
  20657990.690    20657994.770   -12655321.700 9 -13643707.483 7
  20451763.757    20451764.799   -19717892.271 8 -18145270.211 7
 89 11 20 12 10 29.0800000  0  4G13G 6G11G 9
  21487316.447    21487319.832   -37446001.846 9  15139978.263 8
  20914164.032    20914166.237    -8773325.311 9   8167465.267 9
  20662218.271    20662220.527   -12633106.701 9 -13626397.060 6
  20445309.648    20445311.771   -19751803.911 8 -18171694.861 7
 89 11 20 12 10 59.0800000  0  4G13G 6G11G 9
  21473853.186    21473855.464   -37516757.484 9  15084843.995 7
  20923553.094    20923553.583    -8723988.644 9   8205909.428 9
  20666533.448    20666534.345   -12610434.119 9 -13608730.125 7
  20438954.569    20438955.004   -19785206.481 8 -18197722.852 7
 89 11 20 12 11 29.0800000  0  4G13G 6G11G 9
  21460473.141    21460475.218   -37587070.104 9  15030054.951 8
  20933041.551    20933043.427    -8674124.453 9   8244764.633 8
  20670934.191    20670934.529   -12587305.565 8 -13590707.875 6
  20432694.771    20432694.424   -19818098.013 9 -18223352.620 7
 89 11 20 12 11 59.0800000  0  4G13G 6G11G 9
  21447176.884    21447179.124   -37656939.041 9  14975611.641 7
  20942630.943    20942632.662    -8623733.103 9   8284030.609 9
  20675420.929    20675423.771   -12563723.048 9 -13572331.893 7
  20426532.798    20426536.091   -19850476.284 9 -18248582.445 7
 89 11 20 12 12 29.0800000  0  4G13G 6G11G 9
  21433965.958    21433969.911   -37726363.107 9  14921514.944 7
  20952319.583    20952320.988    -8572815.061 9   8323707.014 8
  20679994.517    20679996.703   -12539688.442 8 -13553603.641 7
  20420470.232    20420472.166   -19882339.041 9 -18273410.567 7
 89 11 20 12 12 59.0800000  0  4G13G 6G11G 9
  21420839.945    21420841.762   -37795341.626 9  14867765.472 7
  20962108.388    20962112.083    -8521370.657 9   8363793.548 8
  20684653.612    20684657.692   -12515203.418 7 -13534524.393 7
  20414505.622    20414505.949   -19913684.093 9 -18297835.290 8
 89 11 20 12 13 29.0800000  0  4G13G 6G11G 9
  21407798.855    21407801.316   -37863873.574 9  14814363.938 7
  20971999.647    20971999.865    -8469400.338 9   8404289.905 9
  20689398.602    20689401.528   -12490270.055 9 -13515095.802 7
  20408640.224    20408642.056   -19944509.425 8 -18321855.020 6
 89 11 20 12 13 59.0800000  0  4G13G 6G11G 9
  21394842.792    21394845.405   -37931957.685 9  14761311.392 7
  20981989.097    20981990.431    -8416904.480 9   8445195.760 9
  20694228.410    20694229.591   -12464890.337 8 -13495319.404 7
  20402873.903    20402875.581   -19974812.659 9 -18345467.916 8
 89 11 20 12 14 29.0800000  0  4G13G 6G11G 9
  21381973.184    21381974.974   -37999593.152 9  14708608.447 7
  20992078.137    20992078.997    -8363883.670 9   8486510.672 8
  20699142.195    20699145.274   -12439066.171 8 -13475196.684 7
  20397207.367    20397206.669   -20004592.032 9 -18368672.601 7
 89 11 20 12 14 59.0800000  0  4G13G 6G11G 9
  21369187.594    21369189.955   -38066779.017 9  14656255.823 7
  21002266.827    21002268.762    -8310338.406 9   8528234.241 8
  20704140.874    20704142.629   -12412799.313 8 -13454728.995 7
  20391639.837    20391640.655   -20033845.302 9 -18391467.351 6
 89 11 20 12 15 29.0800000  0  4G13G 6G11G 9
  21356487.442    21356489.360   -38133513.958 9  14604254.579 8
  21012556.741    21012557.631    -8256269.192 9   8570366.079 8
  20709223.691    20709225.540   -12386091.668 8 -13433917.839 7
  20386173.712    20386173.880   -20062570.291 9 -18413850.462 6
 89 11 20 12 15 59.0800000  0  4G13G 6G11G 9
  21343875.056    21343876.696   -38199797.834 9  14552604.806 7
  21022945.901    21022947.537    -8201676.510 9   8612905.813 8
  20714388.763    20714391.246   -12358945.292 9 -13412764.836 7
  20380808.839    20380808.658   -20090765.060 8 -18435820.382 6
 89 11 20 12 16 29.0800000  0  4G13G 6G11G 9
  21331347.531    21331351.082   -38265629.338 9  14501307.525 6
  21033432.823    21033435.232    -8146560.880 9   8655853.059 9
  20719637.009    20719640.478   -12331361.832 9 -13391271.249 7
  20375544.857    20375544.651   -20118427.394 9 -18457375.456 7
 89 11 20 12 16 59.0800000  0  4G13G 6G11G 9
  21318906.742    21318907.710   -38331008.043 9  14450363.069 7
  21044021.256    21044021.558    -8090922.967 9   8699207.277 8
  20724969.948    20724972.162   -12303343.450 8 -13369438.739 7
  20370382.514    20370380.168   -20145555.215 8 -18478514.014 6
 89 11 20 12 17 29.0800000  0  4G13G 6G11G 9
  21306551.814    21306554.526   -38395932.921 9  14399772.260 7
  21054708.106    21054709.281    -8034763.441 9   8742967.934 9
  20730384.269    20730385.790   -12274892.093 9 -13347268.848 7
  20365322.169    20365320.845   -20172146.653 8 -18499234.612 6
 89 11 20 12 17 59.0800000  0  4G13G 6G11G 9
  21294283.036    21294285.297   -38460402.990 9  14349535.858 7
  21065493.089    21065494.936    -7978082.937 9   8787134.551 8
  20735880.060    20735882.039   -12246009.815 8 -13324763.167 7
  20360363.454    20360364.694   -20198199.827 9 -18519535.797 7
 89 11 20 12 18 29.0800000  0  4G13G 6G11G 9
  21282101.671    21282103.726   -38524417.708 9  14299654.260 8
  21076378.921    21076380.084    -7920882.016 9   8831706.707 9
  20741458.366    20741460.582   -12216698.429 8 -13301923.127 8
  20355508.581    20355511.161   -20223712.539 8 -18539415.832 6
 89 11 20 12 18 59.0800000  0  4G13G 6G11G 9
  21270006.420    21270009.984   -38587976.440 9  14250128.014 7
  21087362.830    21087363.146    -7863161.343 9   8876683.838 8
  20747116.948    20747119.048   -12186959.965 9 -13278750.313 7
  20350758.216    20350759.312   -20248682.973 9 -18558873.286 6
 89 11 20 12 19 29.0800000  0  4G13G 6G11G 9
  21257998.433    21258001.194   -38651078.389 9  14200957.670 8
  21098445.129    21098447.222    -7804921.747 9   8922065.341 8
  20752857.263    20752859.494   -12156796.390 8 -13255246.220 7
  20346109.026    20346109.597   -20273109.017 8 -18577906.575 6
 89 11 20 12 19 59.0800000  0  4G13G 6G11G 9
  21246078.390    21246079.357   -38713722.533 9  14152144.040 8
  21109626.905    21109627.596    -7746163.839 9   8967850.703 8
  20758676.838    20758679.726   -12126209.717 9 -13231412.450 7
  20341565.215    20341566.432   -20296988.716 8 -18596514.128 7
 89 11 20 12 20 29.0800000  0  4G13G 6G11G 9
  21234244.827    21234246.416   -38775908.335 9  14103687.568 7
  21120906.471    21120908.020    -7686888.354 9   9014039.375 9
  20764577.608    20764579.634   -12095202.161 8 -13207250.716 8
  20337125.522    20337127.397   -20320320.081 8 -18614694.409 7
 89 11 20 12 20 59.0800000  0  4G13G 6G11G 9
  21222498.084    21222501.316   -38837635.252 9  14055588.667 7
  21132284.197    21132285.202    -7627096.110 9   9060630.726 8
  20770557.734    20770558.444   -12063775.506 8 -13182762.422 7
  20332790.909    20332789.760   -20343101.565 7 -18632446.209 7
 89 11 20 12 21 29.0800000  0  4G13G 6G11G 9
  21210838.710    21210840.964   -38898902.449 9  14007848.004 7
  21143760.287    21143763.123    -7566787.868 9   9107624.154 8
  20776617.503    20776619.136   -12031931.881 8 -13157949.213 7
  20328559.527    20328561.600   -20365331.108 8 -18649767.936 6
 89 11 20 12 21 59.0800000  0  4G13G 6G11G 9
  21199267.898    21199271.404   -38959709.101 9  13960466.220 7
  21155334.020    21155336.354    -7505964.471 9   9155019.003 7
  20782758.009    20782758.517   -11999673.438 9 -13132812.776 6
  20324434.301    20324435.863   -20387006.803 8 -18666658.067 6
 89 11 20 12 22 29.0800000  0  4G13G 6G11G 9
  21187785.618    21187787.033   -39020055.046 9  13913443.420 7
  21167006.545    21167008.993    -7444626.686 9   9202814.669 8
  20788972.834    20788975.155   -11967002.262 9 -13107354.718 8
  20320416.290    20320416.684   -20408127.015 8 -18683115.377 6
 89 11 20 12 22 59.0800000  0  4G13G 6G11G 9
  21176390.600    21176390.184   -39079939.444 9  13866780.270 7
  21178777.516    21178778.835    -7382775.417 8   9251010.446 8
  20795268.899    20795271.127   -11933920.331 9 -13081576.574 7
  20316502.619    20316504.223   -20428689.598 8 -18699138.160 6
 89 11 20 12 23 29.0800000  0  4G13G 6G11G 9
  21165081.431    21165083.850   -39139361.632 9  13820477.273 7
  21190643.300    21190646.751    -7320411.363 9   9299605.800 8
  20801643.265    20801643.645   -11900429.489 9 -13055479.821 8
  20312695.833    20312697.717   -20448693.058 7 -18714725.278 7
 89 11 20 12 23 59.0800000  0  4G13G 6G11G 9
  21153861.480    21153863.741   -39198321.418 9  13774534.582 7
  21202609.393    21202610.311    -7257535.614 9   9348599.875 8
  20808093.407    20808093.637   -11866532.062 9 -13029066.248 7
  20308995.996    20308997.683   -20468135.219 8 -18729875.003 7
 89 11 20 12 24 29.0800000  0  4G13G 6G11G 9
  21142730.761    21142731.815   -39256818.111 9  13728952.742 7
  21214671.641    21214671.787    -7194149.071 9   9397991.967 8
  20814619.198    20814620.994   -11832230.296 9 -13002337.596 7
  20305405.463    20305403.962   -20487014.530 8 -18744586.137 7
 89 11 20 12 24 59.0800000  0  4G13G 6G11G 9
  21131687.815    21131689.383   -39314850.725 9  13683732.538 7
  21226829.878    21226831.640    -7130252.613 9   9447781.395 8
  20821224.006    20821226.428   -11797526.340 9 -12975295.575 8
  20301917.941    20301920.170   -20505329.403 8 -18758857.464 6
 89 11 20 12 25 29.0800000  0  4G13G 6G11G 9
  21120732.585    21120734.830   -39372418.801 9  13638874.306 7
  21239086.589    21239088.009    -7065847.177 9   9497967.434 7
  20827904.450    20827906.503   -11762421.839 9 -12947941.422 8
  20298541.421    20298542.359   -20523077.765 8 -18772687.345 7
 89 11 20 12 25 59.0800000  0  4G13G 6G11G 9
  21109865.684    21109867.044   -39429522.123 9  13594378.222 7
  21251439.831    21251440.720    -7000933.818 9   9548549.271 8
  20834659.930    20834661.426   -11726919.214 8 -12920277.026 7
  20295272.319    20295273.071   -20540258.162 8 -18786074.658 7
 89 11 20 12 26 29.0800000  0  4G13G 6G11G 9
  21099088.310    21099091.009   -39486160.285 9  13550244.590 7
  21263887.856    21263890.135    -6935513.449 9   9599526.151 8
  20841491.458    20841493.086   -11691020.486 9 -12892304.010 8
  20292110.602    20292112.465   -20556868.872 8 -18799018.056 7
 89 11 20 12 26 59.0800000  0  4G13G 6G11G 9
  21088399.165    21088401.293   -39542332.703 9  13506473.886 7
  21276433.469    21276435.033    -6869587.100 9   9650897.321 8
  20848396.831    20848400.103   -11654727.726 9 -12864023.926 7
  20289058.802    20289060.915   -20572908.167 8 -18811516.215 6
 89 11 20 12 27 29.0800000  0  4G13G 6G11G 9
  21077798.417    21077800.128   -39598039.078 9  13463066.335 7
  21289075.329    21289076.604    -6803155.848 9   9702661.932 8
  20855378.020    20855381.523   -11618043.227 9 -12835438.600 8
  20286116.392    20286117.690   -20588374.367 8 -18823567.796 7
 89 11 20 12 27 59.0800000  0  4G13G 6G11G 9
  21067286.176    21067289.290   -39653278.920 9  13420022.293 7
  21301812.342    21301813.647    -6736220.734 9   9754819.146 7
  20862433.619    20862435.227   -11580968.966 9 -12806549.571 7
  20283282.758    20283282.322   -20603265.895 8 -18835171.590 7
 89 11 20 12 28 29.0800000  0  4G13G 6G11G 9
  21056863.620    21056865.487   -39708051.756 9  13377342.186 7
  21314645.399    21314646.790    -6668782.866 9   9807368.110 8
  20869562.736    20869563.735   -11543507.144 9 -12777358.542 8
  20280557.604    20280558.909   -20617581.142 7 -18846326.319 7
 89 11 20 12 28 59.0800000  0  4G13G 6G11G 9
  21046529.472    21046532.136   -39762357.389 9  13335026.124 7
  21327574.242    21327574.931    -6600843.292 9   9860308.025 9
  20876763.722    20876765.252   -11505660.110 9 -12747867.330 7
  20277944.612    20277944.921   -20631318.469 8 -18857030.731 8
 89 11 20 12 29 29.0800000  0  4G13G 6G11G 9
  21036284.306    21036287.119   -39816195.146 9  13293074.627 7
  21340597.669    21340599.218    -6532403.088 9   9913638.037 7
  20884039.209    20884040.086   -11467429.574 9 -12718077.313 7
  20275440.831    20275442.140   -20644476.293 7 -18867283.565 5
 89 11 20 12 29 59.0800000  0  4G13G 6G11G 9
  21026128.602    21026130.592   -39869565.055 9  13251487.692 8
  21353716.367    21353717.557    -6463463.439 9   9967357.228 7
  20891386.768    20891389.368   -11428818.214 9 -12687990.563 8
  20273047.455    20273048.000   -20657053.082 7 -18877083.681 7
 89 11 20 12 30 29.0800000  0  4G13G 6G11G 9
  21016061.399    21016064.004   -39922465.948 9  13210266.212 8
  21366930.133    21366930.851    -6394025.443 9  10021464.746 8
  20898806.390    20898809.070   -11389827.986 9 -12657608.567 8
  20270764.600    20270766.331   -20669047.232 8 -18886429.772 7
 89 11 20 12 30 59.0800000  0  4G13G 6G11G 9
  21006084.266    21006085.710   -39974898.191 9  13169409.959 8
  21380238.771    21380239.176    -6324090.348 9  10075959.615 8
  20906297.767    20906300.466   -11350460.890 8 -12626932.900 7
  20268591.913    20268593.688   -20680457.447 7 -18895320.844 7
 89 11 20 12 31 29.0800000  0  4G13G 6G11G 9
  20996195.770    20996196.889   -40026861.863 9  13128918.801 7
  21393642.079    21393642.796    -6253659.429 9  10130840.829 9
  20913860.224    20913861.354   -11310719.224 9 -12595965.375 8
  20266533.962    20266534.958   -20691282.039 8 -18903755.601 6
 89 11 20 12 31 59.0800000  0  4G13G 6G11G 9
  20986396.853    20986399.643   -40078356.132 9  13088793.398 8
  21407137.850    21407138.483    -6182733.833 9  10186107.534 9
  20921493.216    20921496.255   -11270605.170 9 -12564707.694 7
  20264584.399    20264586.168   -20701519.733 8 -18911733.034 6
 89 11 20 12 32 29.0800000  0  4G13G 6G11G 9
  20976686.965    20976688.975   -40129381.066 9  13049033.731 7
  21420728.294    21420729.299    -6111314.799 9  10241758.730 8
  20929197.926    20929199.902   -11230121.076 9 -12533161.666 8
  20262748.077    20262750.026   -20711168.971 8 -18919251.909 6
 89 11 20 12 32 59.0800000  0  4G13G 6G11G 9
  20967066.016    20967068.142   -40179936.341 9  13009640.022 8
  21434412.347    21434413.452    -6039403.669 9  10297793.356 8
  20936971.238    20936973.641   -11189269.097 9 -12501328.933 7
  20261025.401    20261024.603   -20720228.430 9 -18926311.236 6
 89 11 20 12 33 29.0800000  0  4G13G 6G11G 9
  20957535.850    20957538.499   -40230021.619 9  12970612.529 8
  21448190.755    21448191.589    -5967001.591 9  10354210.558 9
  20944815.916    20944816.390   -11148051.098 9 -12469211.004 7
  20259414.298    20259414.377   -20728696.579 8 -18932909.791 7
 89 11 20 12 33 59.0800000  0  4G13G 6G11G 9
  20948094.754    20948096.569   -40279636.560 9  12931951.559 7
  21462060.543    21462062.491    -5894109.988 9  10411009.211 8
  20952728.741    20952728.985   -11106469.542 9 -12436809.787 7
  20257916.924    20257915.043   -20736572.124 8 -18939046.557 7
 89 11 20 12 34 29.0800000  0  4G13G 6G11G 9
  20938742.460    20938744.638   -40328780.850 9  12893657.327 7
  21476024.885    21476025.116    -5820730.296 9  10468188.183 9
  20960709.783    20960709.361   -11064526.714 8 -12404127.085 7
  20256529.023    20256530.806   -20743853.816 9 -18944720.619 7
 89 11 20 12 34 59.0800000  0  4G13G 6G11G 9
  20929480.151    20929481.307   -40377455.380 9  12855729.139 7
  21490081.349    21490082.668    -5746863.605 9  10525746.630 8
  20968758.376    20968761.356   -11022225.009 9 -12371164.714 8
  20255256.819    20255259.028   -20750540.234 7 -18949930.809 7
 89 11 20 12 35 29.0800000  0  4G13G 6G11G 9
  20920307.108    20920309.063   -40425659.198 9  12818167.747 8
  21504229.936    21504231.111    -5672511.412 9  10583683.376 9
  20976876.958    20976879.739   -10979566.359 9 -12337924.186 7
  20254097.516    20254099.184   -20756629.986 7 -18954676.079 7
 89 11 20 12 35 59.0800000  0  4G13G 6G11G 9
  20911223.390    20911225.511   -40473392.251 9  12780973.168 7
  21518471.304    21518473.037    -5597675.074 9  10641997.373 9
  20985062.225    20985065.052   -10936553.041 8 -12304407.317 7
  20253051.772    20253053.257   -20762121.906 9 -18958955.508 6
 89 11 20 12 36 29.0800000  0  4G13G 6G11G 9
  20902229.306    20902232.319   -40520654.495 9  12744145.476 6
  21532804.107    21532804.381    -5522356.093 9  10700687.479 9
  20993313.839    20993315.547   -10893187.469 8 -12270615.971 8
  20252122.759    20252122.315   -20767014.887 8 -18962768.224 7
 89 11 20 12 36 59.0800000  0  4G13G 6G11G 9
  20893325.422    20893327.609   -40567446.044 9  12707684.530 7
  21547227.316    21547228.835    -5446555.816 9  10759752.621 7
  21001632.488    21001632.871   -10849471.819 9 -12236551.837 7
  20251304.637    20251306.165   -20771307.441 8 -18966113.072 6
 89 11 20 12 37 29.0800000  0  4G13G 6G11G 9
  20884512.175    20884513.859   -40613766.925 9  12671590.345 7
  21561742.934    21561745.054    -5370275.558 9  10819191.778 8
  21010018.101    21010021.774   -10805408.046 9 -12202216.444 6
  20250602.529    20250602.650   -20774998.543 8 -18968989.258 6
 89 11 20 12 37 59.0800000  0  4G13G 6G11G 9
  20875786.524    20875788.935   -40659616.451 8  12635863.446 7
  21576350.073    21576351.850    -5293516.855 9  10879003.741 8
  21018468.657    21018470.235   -10760998.583 9 -12167611.673 7
  20250014.551    20250015.624   -20778086.843 8 -18971395.712 6
 89 11 20 12 38 29.0800000  0  4G13G 6G11G 9
  20867151.129    20867152.617   -40704994.997 9  12600503.560 8
  21591047.933    21591048.421    -5216281.290 9  10939187.277 9
  21026985.332    21026987.247   -10716245.602 9 -12132739.229 7
  20249543.305    20249542.853   -20780571.259 8 -18973331.615 7
 89 11 20 12 38 59.0800000  0  4G13G 6G11G 9
  20858605.759    20858608.307   -40749902.474 9  12565510.725 8
  21605835.840    21605837.852    -5138570.200 9  10999741.349 8
  21035565.960    21035567.499   -10671151.432 8 -12097600.905 7
  20249185.341    20249185.963   -20782450.825 8 -18974796.219 7
 89 11 20 12 39 29.0800000  0  4G13G 6G11G 9
  20850149.543    20850150.930   -40794339.025 9  12530884.854 7
  21620713.602    21620715.731    -5060385.224 9  11060664.711 8
  21044211.708    21044212.246   -10625718.027 8 -12062198.251 6
  20248943.890    20248943.241   -20783724.029 8 -18975788.330 6
 89 11 20 12 39 59.0800000  0  4G13G 6G11G 9
  20841782.901    20841785.763   -40838304.234 9  12496626.265 8
  21635681.104    21635682.502    -4981727.824 9  11121956.172 9
  21052921.872    21052922.463   -10579947.780 9 -12026533.144 7
  20248816.108    20248815.643   -20784390.282 7 -18976307.493 6
 89 11 20 12 40 29.0800000  0  4G13G 6G11G 9
  20833506.552    20833508.155   -40881798.610 9  12462734.552 7
  21650738.991    21650740.266    -4902599.915 9  11183614.260 9
  21061695.369    21061698.370   -10533843.314 9 -11990607.602 8
  20248804.707    20248804.755   -20784448.434 7 -18976352.793 7
 89 11 20 12 40 59.0800000  0  4G13G 6G11G 9
  20825319.434    20825321.854   -40924822.717 9  12429209.298 7
  21665886.517    21665887.465    -4823002.562 9  11245638.144 9
  21070531.449    21070534.209   -10487406.811 8 -11954423.312 7
  20248910.278    20248909.123   -20783897.174 8 -18975923.250 6
 89 11 20 12 41 29.0800000  0  4G13G 6G11G 9
  20817222.350    20817222.809   -40967375.937 9  12396050.961 7
  21681121.407    21681123.127    -4742937.676 9  11308026.356 9
  21079430.842    21079430.587   -10440640.350 9 -11917981.913 7
  20249130.577    20249130.545   -20782735.694 8 -18975018.182 7
 89 11 20 12 41 59.0800000  0  4G13G 6G11G 9
  20809214.755    20809214.685   -41009458.801 9  12363259.135 6
  21696446.518    21696447.908    -4662406.639 9  11370777.796 9
  21088392.682    21088392.819   -10393545.924 9 -11881284.960 7
  20249466.658    20249468.972   -20780962.930 7 -18973636.826 6
 89 11 20 12 42 29.0800000  0  4G13G 6G11G 9
  20801295.822    20801296.650   -41051070.749 9  12330834.248 7
  21711859.600    21711861.243    -4581411.211 9  11433891.107 8
  21097415.841    21097417.143   -10346126.174 9 -11844334.508 7
  20249921.948    20249921.759   -20778577.971 8 -18971778.408 7
 89 11 20 12 42 59.0800000  0  4G13G 6G11G 9
  20793466.176    20793468.137   -41092211.949 9  12298776.189 8
  21727361.122    21727362.648    -4499953.002 9  11497365.008 9
  21106500.393    21106503.473   -10298382.978 9 -11807132.032 7
  20250492.351    20250493.689   -20775579.821 8 -18969442.208 7
 89 11 20 12 43 29.0800000  0  4G13G 6G11G 9
  20785726.591    20785728.410   -41132883.504 9  12267084.076 7
  21742949.264    21742951.134    -4418033.726 9  11561198.201 8
  21115648.636    21115650.356   -10250318.990 9 -11769679.557 8
  20251179.132    20251179.924   -20771967.668 8 -18966627.540 7
 89 11 20 12 43 59.0800000  0  4G13G 6G11G 9
  20778077.157    20778078.773   -41173084.859 9  12235758.364 6
  21758625.550    21758626.718    -4335654.923 9  11625389.466 9
  21124854.549    21124856.217   -10201936.416 9 -11731978.853 7
  20251983.873    20251984.357   -20767740.528 7 -18963333.668 7
 89 11 20 12 44 29.0800000  0  4G13G 6G11G 9
  20770516.353    20770516.612   -41212816.724 9  12204798.474 7
  21774389.051    21774389.548    -4252818.442 9  11689937.344 9
  21134121.340    21134121.473   -10153237.512 9 -11694031.665 6
  20252905.156    20252905.806   -20762897.725 7 -18959560.064 7
 89 11 20 12 44 59.0800000  0  4G13G 6G11G 9
  20763044.810    20763047.644   -41252078.876 9  12174204.578 7
  21790238.522    21790239.361    -4169525.975 9  11754840.528 8
  21143448.341    21143450.318   -10104224.614 9 -11655839.815 7
  20253944.624    20253946.046   -20757438.126 8 -18955305.836 6
 89 11 20 12 45 29.0800000  0  4G13G 6G11G 9
  20755662.269    20755665.533   -41290871.628 9  12143976.477 7
  21806174.884    21806177.657    -4085779.153 9  11820097.764 9
  21152835.655    21152836.969   -10054899.820 9 -11617404.905 7
  20255101.570    20255101.838   -20751361.112 8 -18950570.498 7
 89 11 20 12 45 59.0800000  0  4G13G 6G11G 9
  20748370.133    20748370.934   -41329195.235 9  12114113.961 7
  21822197.997    21822198.916    -4001579.726 9  11885707.674 8
  21162280.950    21162283.046   -10005265.487 9 -11578728.807 7
  20256374.236    20256375.282   -20744665.727 8 -18945353.323 7
 89 11 20 12 46 29.0800000  0  4G13G 6G11G 9
  20741166.945    20741167.174   -41367050.163 9  12084616.630 8
  21838306.192    21838307.325    -3916929.691 9  11951668.731 8
  21171783.526    21171785.576    -9955323.793 9 -11539813.192 8
  20257766.167    20257768.089   -20737351.592 8 -18939654.003 6
 89 11 20 12 46 59.0800000  0  4G13G 6G11G 9
  20734051.758    20734052.789   -41404436.351 9  12055484.557 7
  21854500.307    21854500.754    -3831830.627 9  12017979.666 9
  21181344.301    21181346.641    -9905077.223 9 -11500660.034 7
  20259277.144    20259277.830   -20729417.536 9 -18933471.625 6
 89 11 20 12 47 29.0800000  0  4G13G 6G11G 9
  20727026.718    20727028.536   -41441354.474 9  12026717.207 7
  21870778.682    21870780.014    -3746284.348 9  12084639.083 9
  21190963.702    21190965.550    -9854527.860 9 -11461270.918 7
  20260905.257    20260906.872   -20720863.138 7 -18926805.893 6
 89 11 20 12 47 59.0800000  0  4G13G 6G11G 9
  20720090.453    20720091.155   -41477804.386 9  11998314.712 7
  21887142.796    21887143.278    -3660292.685 9  12151645.546 8
  21200641.346    21200642.783    -9803678.020 9 -11421647.678 7
  20262650.869    20262652.327   -20711687.594 8 -18919656.126 6
 89 11 20 12 48 29.0800000  0  4G13G 6G11G 9
  20713243.306    20713243.776   -41513786.953 9  11970276.370 7
  21903590.062    21903591.303    -3573857.379 9  12218997.702 9
  21210374.685    21210376.872    -9752530.048 9 -11381792.121 9
  20264515.817    20264515.626   -20701890.492 8 -18912022.028 7
 89 11 20 12 48 59.0800000  0  4G13G 6G11G 9
  20706484.558    20706486.120   -41549302.240 9  11942602.156 8
  21920122.632    21920123.979    -3486980.542 9  12286693.899 8
  21220162.469    21220165.364    -9701086.174 9 -11341705.985 8
  20266498.296    20266498.270   -20691470.999 8 -18903902.954 7
 89 11 20 12 49 29.0800000  0  4G13G 6G11G 9
  20699815.446    20699817.867   -41584350.558 9  11915291.797 7
  21936738.926    21936740.522    -3399663.787 9  12354732.893 8
  21230008.530    21230010.250    -9649348.706 9 -11301391.058 7
  20268599.770    20268599.591   -20680428.411 8 -18895298.347 6
 89 11 20 12 49 59.0800000  0  4G13G 6G11G 9
  20693234.364    20693236.812   -41618932.380 9  11888344.930 7
  21953437.466    21953438.785    -3311909.121 9  12423113.132 8
  21239909.822    21239910.923    -9597319.947 8 -11260849.182 8
  20270819.705    20270821.297   -20668762.346 7 -18886207.921 6
 89 11 20 12 50 29.0800000  0  4G13G 6G11G 9
  20686742.371    20686745.033   -41653048.781 9  11861760.730 7
  21970220.233    21970221.817    -3223718.440 9  12491833.113 9
  21249866.094    21249867.326    -9545001.829 9 -11220081.821 8
  20273159.031    20273159.429   -20656472.081 8 -18876631.084 7
 89 11 20 12 50 59.0800000  0  4G13G 6G11G 9
  20680338.264    20680341.100   -41686699.767 9  11835539.201 7
  21987084.318    21987086.397    -3135093.578 9  12560891.419 9
  21259875.733    21259878.564    -9492396.555 9 -11179090.710 9
  20275615.298    20275615.859   -20643557.317 7 -18866567.627 7
 89 11 20 12 51 29.0800000  0  4G13G 6G11G 9
  20674023.705    20674026.870   -41719885.259 9  11809680.429 6
  22004031.597    22004033.839    -3046036.477 9  12630286.541 8
  21269940.598    21269942.959    -9439506.555 9 -11137877.716 8
  20278192.339    20278194.092   -20630017.350 8 -18856017.030 6
 89 11 20 12 51 59.0800000  0  4G13G 6G11G 9
  20667796.690    20667798.924   -41752606.313 9  11784183.515 7
  22021061.147    22021063.074    -2956549.124 9  12700016.937 9
  21280059.447    21280061.046    -9386334.298 9 -11096444.788 8
  20280887.267    20280887.780   -20615851.908 8 -18844979.019 6
 89 11 20 12 52 29.0800000  0  4G13G 6G11G 9
  20661658.706    20661661.267   -41784863.225 9  11759048.259 7
  22038170.220    22038173.364    -2866633.459 9  12770081.058 8
  21290231.083    21290231.765    -9332882.031 9 -11054793.682 8
  20283702.818    20283703.502   -20601060.584 8 -18833453.328 6
 89 11 20 12 52 59.0800000  0  4G13G 6G11G 9
  20655607.894    20655611.830   -41816656.221 9  11734274.517 7
  22055363.022    22055363.498    -2776291.431 9  12840477.419 8
  21300454.733    21300455.369    -9279152.159 9 -11012926.264 8
  20286636.317    20286636.016   -20585642.705 8 -18821439.385 7
 89 11 20 12 53 29.0800000  0  4G13G 6G11G 9
  20649646.970    20649647.900   -41847985.920 9  11709861.788 6
  22072635.400    22072636.317    -2685525.112 9  12911204.383 8
  21310731.517    21310735.107    -9225146.674 9 -10970844.073 7
  20289689.365    20289690.468   -20569598.136 6 -18808937.114 6
 89 11 20 12 53 59.0800000  0  4G13G 6G11G 9
  20643773.563    20643773.994   -41878853.160 9  11685809.419 7
  22089988.222    22089988.204    -2594336.514 9  12982260.419 8
  21321060.654    21321063.443    -9170868.093 9 -10928549.061 8
  20292862.387    20292863.162   -20552926.589 8 -18795946.306 6
 89 11 20 12 54 29.0800000  0  4G13G 6G11G 9
  20637987.415    20637989.877   -41909258.164 9  11662117.212 6
  22107419.838    22107421.414    -2502727.640 9  13053643.940 9
  21331441.513    21331442.988    -9116318.476 9 -10886042.876 8
  20296153.524    20296155.367   -20535627.626 8 -18782466.584 7
 89 11 20 12 54 59.0800000  0  4G13G 6G11G 9
  20632288.436    20632291.829   -41939201.441 9  11638784.818 7
  22124932.451    22124934.136    -2410700.391 9  13125353.450 9
  21341873.301    21341873.248    -9061499.838 9 -10843327.065 8
  20299565.624    20299565.721   -20517700.843 9 -18768497.675 8
 89 11 20 12 55 29.0800000  0  4G13G 6G11G 9
  20626679.292    20626681.110   -41968683.938 9  11615811.441 7
  22142523.645    22142524.872    -2318256.947 9  13197387.260 9
  21352353.554    21352355.862    -9006414.537 9 -10800403.469 7
  20303096.079    20303095.849   -20499145.971 8 -18754039.319 7
 89 11 20 12 55 59.0800000  0  4G13G 6G11G 9
  20621156.488    20621157.763   -41997706.204 9  11593196.700 8
  22160193.788    22160195.837    -2225399.453 9  13269743.721 8
  21362887.865    21362889.504    -8951065.060 9 -10757274.022 7
  20306745.971    20306747.276   -20479962.808 8 -18739091.419 6
 89 11 20 12 56 29.0800000  0  4G13G 6G11G 9
  20615721.170    20615723.090   -42026268.769 9  11570940.199 8
  22177942.502    22177944.294    -2132129.886 9  13342421.268 9
  21373471.338    21373473.371    -8895453.533 9 -10713940.362 8
  20310516.539    20310516.081   -20460151.098 9 -18723653.747 5
 89 11 20 12 56 59.0800000  0  4G13G 6G11G 9
  20610373.083    20610373.999   -42054372.112 8  11549041.492 7
  22195769.532    22195770.931    -2038450.342 9  13415418.304 9
  21384102.424    21384105.471    -8839582.345 9 -10670404.369 8
  20314406.591    20314407.180   -20439711.069 8 -18707726.450 6
 89 11 20 12 57 29.0800000  0  4G13G 6G11G 9
  20605111.478    20605114.844   -42082017.279 9  11527499.820 8
  22213673.774    22213676.052    -1944362.991 9  13488733.090 9
  21394783.220    21394784.377    -8783453.529 9 -10626667.641 8
  20318415.270    20318415.267   -20418642.066 9 -18691309.055 7
 89 11 20 12 57 59.0800000  0  4G13G 6G11G 9
  20599938.507    20599939.654   -42109204.894 9  11506314.701 7
  22231655.329    22231656.734    -1849869.861 9  13562364.082 8
  21405512.809    21405514.688    -8727069.530 9 -10582732.063 8
  20322545.087    20322545.095   -20396944.107 9 -18674401.551 7
 89 11 20 12 58 29.0800000  0  4G13G 6G11G 9
  20594852.277    20594854.583   -42135934.952 9  11485486.083 7
  22249712.680    22249716.237    -1754973.149 9  13636309.540 8
  21416290.321    21416292.034    -8670432.257 9 -10538599.137 8
  20326791.954    20326792.846   -20374617.063 7 -18657003.878 7
 89 11 20 12 58 59.0800000  0  4G13G 6G11G 9
  20589851.645    20589854.423   -42162208.653 9  11465013.110 7
  22267848.000    22267850.106    -1659675.011 9  13710567.811 9
  21427116.645    21427117.863    -8613544.152 9 -10494270.756 7
  20331161.770    20331161.790   -20351660.785 8 -18639115.879 6
 89 11 20 12 59 29.0800000  0  4G13G 6G11G 9
  20584939.415    20584940.088   -42188026.732 9  11444895.154 7
  22286058.788    22286059.827    -1563977.656 9  13785137.155 9
  21437988.921    21437991.883    -8556407.661 9 -10449748.814 7
  20335649.887    20335649.937   -20328075.439 8 -18620737.681 6
 89 11 20 12 59 59.0800000  0  4G13G 6G11G 9
  20580112.755    20580112.651   -42213389.838 9  11425131.691 7
  22304344.562    22304345.553    -1467883.172 9  13860015.950 9
  21448908.146    21448911.108    -8499024.976 9 -10405035.030 7
  20340257.788    20340257.065   -20303860.841 8 -18601869.148 6
 89 11 20 13  0 29.0800000  0  4G13G 6G11G 9
  20575371.863    20575374.582   -42238298.955 9  11405721.995 8
  22322706.304    22322707.209    -1371393.865 9  13935202.393 9
  21459874.515    21459875.629    -8441398.284 9 -10360131.110 8
  20344985.560    20344985.768   -20279017.149 8 -18582510.423 6
 89 11 20 13  0 59.0800000  0  4G13G 6G11G 9
  20570718.943    20570719.802   -42262754.514 9  11386665.734 7
  22341142.635    22341143.351    -1274511.752 9  14010694.919 9
  21470887.651    21470886.644    -8383529.741 9 -10315038.752 8
  20349832.221    20349833.735   -20253544.416 8 -18562661.547 7
 89 11 20 13  1 29.0800000  0  4G13G 6G11G 9
  20566151.680    20566153.010   -42286757.425 9  11367962.187 7
  22359652.282    22359653.919    -1177239.278 9  14086491.641 8
  21481943.941    21481945.081    -8325421.248 9 -10269759.422 7
  20354799.043    20354801.323   -20227442.450 8 -18542322.383 5
 89 11 20 13  1 59.0800000  0  4G13G 6G11G 9
  20561669.583    20561671.300   -42310308.523 9  11349610.676 6
  22378235.940    22378238.246    -1079578.711 9  14162590.761 9
  21493046.248    21493048.746    -8267075.558 9 -10224295.266 8
  20359885.758    20359889.437   -20200711.497 8 -18521493.077 6
 89 11 20 13  2 29.0800000  0  4G13G 6G11G 9
  20557272.971    20557275.920   -42333408.807 9  11331610.470 7
  22396894.720    22396896.805     -981532.072 9  14238990.706 9
  21504193.428    21504196.930    -8208494.715 9 -10178647.852 8
  20365092.636    20365093.265   -20173351.586 8 -18500173.686 7
 89 11 20 13  2 59.0800000  0  4G13G 6G11G 9
  20552963.473    20552965.792   -42356058.835 9  11313961.120 7
  22415625.160    22415627.646     -883101.671 9  14315689.689 8
  21515386.884    21515388.762    -8149680.881 9 -10132818.896 8
  20370419.126    20370418.414   -20145363.059 8 -18478364.443 6
 89 11 20 13  3 29.0800000  0  4G13G 6G11G 9
  20548738.656    20548738.713   -42378259.544 9  11296661.887 7
  22434428.770    22434429.145     -784289.823 9  14392685.929 8
  21526622.734    21526622.228    -8090636.209 9 -10086810.070 8
  20375863.919    20375864.531   -20116746.090 8 -18456065.504 7
 89 11 20 13  3 59.0800000  0  4G13G 6G11G 9
  20544598.265    20544600.469   -42400011.955 9  11279711.961 7
  22453304.378    22453305.962     -685098.786 9  14469977.621 8
  21537900.954    21537901.745    -8031362.796 9 -10040623.000 8
  20381430.230    20381430.574   -20087500.668 8 -18433276.883 7
 89 11 20 13  4 29.0800000  0  4G13G 6G 3G 9
  20540544.913    20540547.624   -42421316.782 9  11263110.809 7
  22472251.223    22472253.617     -585530.942 9  14547562.915 8
                  23920620.180   -69753696.163 9
  20387115.016    20387114.912   -20057627.080 8 -18409998.768 7
 89 11 20 13  4 59.0800000  0  4G13G 6G 3G 9
  20536575.675    20536577.522   -42442174.774 9  11246857.852 7
  22491269.656    22491271.105     -485588.342 9  14625440.247 8
  23904178.545    23904179.703   -69840229.135 9  88491242.728 8
  20392918.698    20392919.642   -20027125.410 8 -18386231.253 7
 89 11 20 13  5 29.0800000  0  4G13G 6G 3G 9
  20532691.397    20532693.191   -42462587.329 9  11230951.975 8
  22510359.362    22510360.397     -385273.559 9  14703607.592 8
  23887757.359    23887761.278   -69926521.747 9  88424001.730 8
  20398841.744    20398843.246   -19995996.271 8 -18361974.795 7
 89 11 20 13  5 59.0800000  0  4G13G 6G 3G 9
  20528891.669    20528894.085   -42482554.891 8  11215392.820 7
  22529518.269    22529520.205     -284588.841 9  14782063.181 8
  23871383.721    23871383.979   -70012573.686 9  88356948.283 8
  20404886.245    20404885.047   -19964239.885 7 -18337229.552 7
 89 11 20 13  6 29.0800000  0  4G13G 6G 3G 9
  20525176.949    20525178.692   -42502078.485 9  11200179.646 8
  22548748.234    22548749.526     -183536.634 9  14860805.149 8
  23855053.018    23855055.058   -70098384.031 9  88290083.080 7
  20411045.760    20411050.226   -19931856.418 8 -18311995.697 7
 89 11 20 13  6 59.0800000  0  4G13G 6G 3G 9
  20521545.100    20521548.496   -42521158.750 9  11185311.927 7
  22568047.968    22568049.189      -82119.145 9  14939831.715 8
  23838770.017    23838772.171   -70183952.181 9  88223406.607 8
  20417328.567    20417331.495   -19898846.451 8 -18286273.641 7
 89 11 20 13  7 29.0800000  0  4G13G 6G 3G 9
  20517999.509    20518001.131   -42539796.936 8  11170788.669 7
  22587415.566    22587417.324       19661.233 9  15019141.092 8
  23822533.168    23822534.978   -70269277.115 9  88156919.659 7
  20423729.972    20423729.350   -19865210.299 7 -18260063.657 6
 89 11 20 13  7 59.0800000  0  4G13G 6G 3G 9
  20514535.955    20514538.792   -42557994.394 9  11156608.847 8
  22606852.464    22606853.177      121802.055 9  15098731.311 9
  23806343.390    23806345.823   -70354358.067 9  88090622.800 8
  20430249.730    20430251.346   -19830948.415 8 -18233366.095 7
 89 11 20 13  8 29.0800000  0  4G13G 6G 3G 9
  20511157.611    20511158.905   -42575751.759 9  11142771.969 7
  22626357.019    22626357.892      224300.989 9  15178600.595 8
  23790199.008    23790201.755   -70439194.353 8  88024516.600 8
  20436888.796    20436889.436   -19796061.124 8 -18206181.202 7
 89 11 20 13  8 59.0800000  0  4G13G 6G 3G 9
  20507862.962    20507863.554   -42593069.838 9  11129277.370 7
  22645929.736    22645931.614      327155.459 9  15258746.902 9
  23774102.297    23774104.221   -70523784.868 9  87958601.910 8
  20443646.852    20443647.228   -19760549.127 8 -18178509.532 7
 89 11 20 13  9 29.0800000  0  4G13G 6G 3G 9
  20504648.875    20504651.054   -42609949.913 9  11116124.070 8
  22665569.936    22665571.542      430363.255 9  15339168.533 9
  23758050.961    23758055.196   -70608129.243 9  87892879.025 8
  20450523.624    20450524.548   -19724412.759 7 -18150351.327 7
 89 11 20 13  9 59.0800000  0  4G13G 6G 3G 9
  20501519.353    20501523.607   -42626393.232 8  11103311.126 8
  22685275.832    22685277.077      533921.937 8  15419863.580 8
  23742048.783    23742050.042   -70692226.543 9  87827348.664 8
  20457517.583    20457520.176   -19687652.653 8 -18121707.112 8
 89 11 20 13 10 29.0800000  0  4G13G 6G 3G 9
  20498474.585    20498475.863   -42642400.713 8  11090837.781 8
  22705048.954    22705050.462      637828.938 9  15500830.052 8
  23726092.660    23726094.712   -70776075.973 8  87762011.440 8
  20464632.259    20464632.259   -19650269.614 8 -18092577.461 7
 89 11 20 13 10 59.0800000  0  4G13G 6G 3G 9
  20495511.279    20495513.259   -42657972.849 9  11078703.666 8
  22724888.103    22724889.567      742081.960 9  15582066.165 8
  23710183.750    23710185.745   -70859676.760 8  87696867.988 8
  20471864.258    20471865.433   -19612263.885 8 -18062962.629 6
 89 11 20 13 11 29.0800000  0  4G13G 6G 3G 9
  20492630.538    20492633.418   -42673110.971 8  11066907.739 7
  22744791.989    22744793.349      846678.510 9  15663569.927 9
  23694322.524    23694323.848   -70943028.471 8  87631918.604 8
  20479215.914    20479216.354   -19573636.154 8 -18032863.105 7
 89 11 20 13 11 59.0800000  0  4G13G 6G 3G 9
  20489832.246    20489835.513   -42687816.692 9  11055448.741 8
  22764760.473    22764762.667      951616.013 9  15745339.352 9
  23678508.305    23678510.788   -71026130.300 8  87567163.954 9
  20486683.070    20486683.891   -19534386.982 8 -18002279.342 7
 89 11 20 13 12 29.0800000  0  4G13G 6G 3G 9
  20487115.832    20487117.825   -42702090.507 9  11044326.308 8
  22784794.544    22784796.180     1056892.139 9  15827372.661 9
  23662743.381    23662744.405   -71108981.338 9  87502604.703 8
  20494270.178    20494272.519   -19494517.171 8 -17971211.953 7
 89 11 20 13 12 59.0800000  0  4G13G 6G 3G 9
  20484481.981    20484483.788   -42715933.936 9  11033539.250 8
  22804892.287    22804893.897     1162504.315 9  15909667.827 8
  23647025.299    23647026.251   -71191581.093 9  87438241.263 8
  20501974.864    20501976.027   -19454027.454 9 -17939661.539 8
 89 11 20 13 13 29.0800000  0  4G13G 6G 3G 9
  20481929.306    20481930.799   -42729347.673 9  11023086.975 8
  22825051.574    22825053.485     1268450.053 9  15992222.924 9
  23631354.944    23631357.262   -71273928.695 9  87374074.295 8
  20509799.341    20509799.173   -19412918.471 8 -17907628.566 7
 89 11 20 13 13 59.0800000  0  4G13G 6G 3G 9
  20479457.578    20479461.575   -42742333.212 9  11012968.391 8
  22845276.483    22845277.735     1374726.881 9  16075035.978 9
  23615732.139    23615734.794   -71356023.518 8  87310104.316 8
  20517738.660    20517739.768   -19371190.973 8 -17875113.653 7
 89 11 20 13 14 29.0800000  0  4G13G 6G 3G 9
  20477068.587    20477070.452   -42754891.392 9  11003182.817 8
  22865563.232    22865564.249     1481332.261 9  16158105.064 8
  23600158.229    23600159.923   -71437864.920 8  87246331.786 8
  20525796.029    20525797.832   -19328845.879 8 -17842117.504 8
 89 11 20 13 14 59.0800000  0  4G13G 6G 3G 9
  20474758.495    20474761.747   -42767024.173 9  10993728.716 7
  22885911.286    22885912.949     1588263.576 9  16241428.140 9
  23584632.498    23584634.243   -71519452.562 8  87182756.993 8
  20533972.330    20533972.266   -19285883.887 8 -17808640.655 8
 89 11 20 13 15 29.0800000  0  4G13G 6G 3G 9
  20472530.654    20472533.006   -42778732.140 9  10984605.636 7
  22906320.969    22906322.404     1695518.473 9  16325003.363 9
  23569155.366    23569158.394   -71600785.521 8  87119380.668 9
  20542265.031    20542266.357   -19242305.837 8 -17774683.746 7
 89 11 20 13 15 59.0800000  0  4G13G 6G 3G 9
  20470384.003    20470386.168   -42790016.327 9  10975812.767 8
  22926791.216    22926794.525     1803094.211 9  16408828.563 9
  23553726.745    23553728.147   -71681862.856 9  87056203.550 8
  20550673.884    20550675.357   -19198112.866 8 -17740247.672 7
 89 11 20 13 16 29.0800000  0  4G13G 6G 3G 9
  20468317.254    20468319.778   -42800877.943 9  10967349.186 8
  22947323.683    22947325.518     1910988.422 9  16492901.928 9
  23538346.817    23538348.813   -71762684.403 8  86993225.720 8
  20559201.285    20559203.613   -19153305.524 8 -17705332.883 8
 89 11 20 13 16 59.0800000  0  4G13G 6G 3G 9
  20466330.151    20466332.830   -42811318.527 8  10959213.676 8
  22967915.135    22967917.475     2019198.457 9  16577221.421 8
  23523016.291    23523017.908   -71843249.486 9  86930447.748 9
  20567845.091    20567845.270   -19107884.745 9 -17669940.076 7
 89 11 20 13 17 29.0800000  0  4G13G 6G 3G 9
  20464423.235    20464425.558   -42821339.137 8  10951405.440 7
  22988566.104    22988567.520     2127721.768 8  16661785.009 8
  23507733.458    23507736.056   -71923557.229 8  86867870.302 8
  20576604.216    20576604.617   -19061851.671 8 -17634070.154 8
 89 11 20 13 17 59.0800000  0  4G13G 6G 3G 9
  20462597.782    20462598.302   -42830940.798 8  10943923.635 8
  23009276.639    23009278.646     2236555.800 9  16746590.687 7
  23492501.588    23492503.448   -72003607.415 9  86805493.541 8
  20585480.426    20585481.717   -19015207.023 8 -17597723.705 8
 89 11 20 13 18 29.0800000  0  4G13G 6G 3G 9
  20460848.912    20460851.005   -42840125.275 9  10936766.888 7
  23030045.239    23030048.026     2345697.891 9  16831636.437 9
  23477316.365    23477319.670   -72083399.228 9  86743318.104 8
  20594472.847    20594473.866   -18967952.081 8 -17560901.679 7
 89 11 20 13 18 59.0800000  0  4G13G 6G 3G 9
  20459180.460    20459182.811   -42848893.549 9  10929934.472 8
  23050873.798    23050875.347     2455145.524 9  16916920.263 8
  23462183.428    23462184.558   -72162932.005 9  86681344.501 8
  20603581.738    20603581.990   -18920087.768 8 -17523604.828 7
 89 11 20 13 19 29.0800000  0  4G13G 6G 3G 9
  20457590.651    20457592.973   -42857247.202 8  10923425.146 8
  23071757.839    23071760.064     2564896.013 9  17002440.071 8
  23447097.497    23447099.056   -72242205.387 9  86619573.025 8
  20612804.969    20612806.300   -18871615.188 9 -17485833.999 7
 89 11 20 13 19 59.0800000  0  4G13G 6G 3G 9
  20456078.985    20456080.948   -42865187.163 9  10917238.158 7
  23092700.329    23092701.700     2674946.816 9  17088193.905 9
  23432061.869    23432063.286   -72321218.632 9  86558004.249 7
  20622144.125    20622146.181   -18822535.147 9 -17447589.842 7
 89 11 20 13 20 29.0800000  0  4G13G 6G 3G 9
  20454646.763    20454648.655   -42872714.758 9  10911372.496 8
  23113699.007    23113700.463     2785295.327 9  17174179.718 9
  23417075.873    23417078.335   -72399971.381 9  86496638.473 8
  20631599.173    20631600.389   -18772849.003 7 -17408873.366 8
 89 11 20 13 20 59.0800000  0  4G13G 6G 3G 9
  20453292.082    20453295.778   -42879831.292 8  10905827.150 7
  23134753.738    23134755.527     2895938.763 9  17260395.346 9
  23402138.651    23402141.041   -72478463.050 9  86435476.137 8
  20641170.155    20641170.185   -18722557.754 9 -17369685.383 7
 89 11 20 13 21 29.0800000  0  4G13G 6G 3G 9
  20452016.903    20452018.853   -42886538.019 8  10900601.152 8
  23155864.508    23155866.880     3006874.758 9  17346838.930 9
  23387252.726    23387254.250   -72556693.292 9  86374517.516 9
  20650854.797    20650855.512   -18671662.661 9 -17330026.875 8
 89 11 20 13 21 59.0800000  0  4G13G 6G 3G 9
  20450817.935    20450820.487   -42892836.234 9  10895693.461 7
  23177029.898    23177032.102     3118100.408 9  17433508.243 9
  23372415.460    23372417.585   -72634661.272 9  86313763.274 8
  20660654.562    20660654.750   -18620164.838 8 -17289898.717 8
 89 11 20 13 22 29.0800000  0  4G13G 6G 3G 9
  20449696.982    20449698.645   -42898727.985 9  10891102.501 8
  23198250.563    23198252.287     3229613.251 9  17520401.340 8
  23357628.570    23357630.430   -72712366.686 8  86253213.612 7
  20670568.837    20670569.292   -18568065.625 8 -17249301.940 8
 89 11 20 13 22 59.0800000  0  4G13G 6G 3G 9
  20448652.954    20448655.448   -42904213.875 9  10886827.774 8
  23219523.555    23219526.018     3341410.589 9  17607516.110 9
  23342892.054    23342893.728   -72789808.795 8  86192869.114 9
  20680596.622    20680598.049   -18515366.245 8 -17208237.497 8
 89 11 20 13 23 29.0800000  0  4G13G 6G 3G 9
  20447685.465    20447687.172   -42909295.451 9  10882868.124 7
  23240851.878    23240854.447     3453489.700 8  17694850.421 9
  23328205.341    23328207.181   -72866987.444 9  86132729.919 8
  20690739.527    20690741.154   -18462067.825 8 -17166706.289 8
 89 11 20 13 23 59.0800000  0  4G13G 6G 3G 9
  20446795.019    20446797.942   -42913974.354 9  10879222.222 9
  23262233.034    23262235.717     3565847.916 9  17782402.237 9
  23313569.478    23313571.517   -72943901.849 8  86072796.629 9
  20700996.120    20700997.254   -18408171.603 8 -17124709.250 8
 89 11 20 13 24 29.0800000  0  4G13G 6G 3G 9
  20445981.669    20445984.691   -42918251.502 9  10875889.401 8
  23283666.844    23283669.924     3678482.628 8  17870169.491 8
  23298981.857    23298984.482   -73020551.854 8  86013069.349 8
  20711364.616    20711366.712   -18353679.191 8 -17082247.643 7
 89 11 20 13 24 59.0800000  0  4G13G 6G 3G 9
  20445243.729    20445245.794   -42922128.272 8  10872868.546 7
  23305152.006    23305154.564     3791391.096 9  17958150.067 9
  23284447.365    23284448.983   -73096937.032 9  85953548.428 8
  20721847.923    20721849.633   -18298591.596 8 -17039322.260 8
 89 11 20 13 25 29.0800000  0  4G13G 6G 3G 9
  20444582.572    20444585.223   -42925606.322 9  10870158.390 6
  23326690.865    23326693.147     3904570.505 9  18046341.770 8
  23269962.449    23269963.558   -73173056.926 9  85894234.238 7
  20732443.625    20732444.838   -18242910.557 8 -16995934.440 8
 89 11 20 13 25 59.0800000  0  4G13G 6G 3G 9
  20443995.165    20443997.630   -42928686.996 9  10867757.878 8
  23348278.645    23348280.888     4018018.157 8  18134742.482 9
  23255528.073    23255529.383   -73248911.055 9  85835127.118 8
  20743152.141    20743153.181   -18186637.210 8 -16952085.095 7
 89 11 20 13 26 29.0800000  0  4G13G 6G 3G 9
  20443485.185    20443485.190   -42931371.832 9  10865665.816 7
  23369918.121    23369919.115     4131731.493 9  18223350.243 8
  23241144.186    23241146.305   -73324498.914 9  85776227.483 9
  20753972.902    20753974.025   -18129773.115 8 -16907775.431 8
 89 11 20 13 26 59.0800000  0  4G13G 6G 3G 9
  20443050.256    20443050.131   -42933662.159 9  10863881.145 8
  23391605.890    23391607.269     4245707.686 9  18312162.819 8
  23226811.262    23226813.286   -73399820.253 9  85717535.539 8
  20764906.272    20764907.566   -18072319.527 8 -16863006.406 8
 89 11 20 13 27 29.0800000  0  4G13G 6G 3G 9
  20442688.433    20442690.369   -42935559.888 9  10862402.402 8
  23413344.661    23413347.345     4359944.230 9  18401178.268 9
  23212528.785    23212529.243   -73474874.534 9  85659051.674 9
  20775950.770    20775952.848   -18014278.024 9 -16817779.282 8
 89 11 20 13 27 59.0800000  0  4G13G 6G 3G 9
  20442401.790    20442404.215   -42937066.229 9  10861228.641 7
  23435132.817    23435133.651     4474438.158 9  18490394.265 8
  23198297.212    23198299.130   -73549661.510 9  85600776.106 7
  20787107.708    20787109.310   -17955650.165 9 -16772095.242 7
 89 11 20 13 28 29.0800000  0  4G13G 6G 3G 9
  20442188.598    20442190.863   -42938182.561 9  10860358.783 8
  23456968.765    23456970.359     4589186.762 9  18579808.724 8
  23184114.957    23184118.312   -73624180.792 9  85542709.137 8
  20798376.199    20798376.918   -17896437.366 8 -16725955.413 8
 89 11 20 13 28 59.0800000  0  4G13G 6G 3G 9
  20442049.326    20442051.406   -42938910.082 9  10859791.870 8
  23478852.279    23478854.693     4704187.396 9  18669419.570 9
  23169986.102    23169989.251   -73698431.993 8  85484851.072 8
  20809754.808    20809755.280   -17836641.124 9 -16679360.947 8
 89 11 20 13 29 29.0800000  0  4G13G 6G 3G 9
  20441985.506    20441987.700   -42939250.106 9  10859526.920 7
  23500784.181    23500786.227     4819437.405 9  18759224.739 9
  23155909.084    23155910.071   -73772414.637 8  85427202.262 8
  20821243.210    20821245.800   -17776263.016 8 -16632313.073 8
 89 11 20 13 29 59.0800000  0  4G13G 6G 3G 9
  20441994.420    20441995.970   -42939204.556 8  10859562.413 8
  23522761.751    23522764.792     4934933.851 9  18849221.907 9
  23141880.775    23141882.719   -73846128.538 9  85369762.858 8
  20832844.090    20832845.738   -17715304.663 9 -16584813.087 8
 89 11 20 13 30 29.0800000  0  4G13G 6G 3G 9
  20442076.168    20442077.791   -42938774.998 9  10859897.128 8
  23544786.116    23544789.558     5050674.069 9  18939409.050 8
  23127904.864    23127906.453   -73919573.336 9  85312533.150 8
  20844553.973    20844555.206   -17653767.865 9 -16536862.360 7
 89 11 20 13 30 59.0800000  0  4G13G 6G 3G 9
  20442230.306    20442231.041   -42937962.511 9  10860530.251 8
  23566857.790    23566860.634     5166655.312 8  19029783.967 8
  23113980.523    23113981.940   -73992748.686 9  85255513.394 8
  20856374.066    20856376.202   -17591653.962 9 -16488461.942 8
 89 11 20 13 31 29.0800000  0  4G13G 6G 3G 9
  20442458.080    20442458.585   -42936768.758 9  10861460.445 7
  23588973.552    23588975.025     5282874.762 9  19120344.522 9
  23100106.581    23100108.477   -74065654.442 9  85198703.723 9
  20868303.757    20868305.427   -17528964.647 8 -16439613.157 8
 89 11 20 13 31 59.0800000  0  4G13G 6G 3G 9
  20442756.713    20442758.448   -42935195.594 8  10862686.302 8
  23611133.704    23611136.362     5399329.770 9  19211088.628 9
  23086285.017    23086285.747   -74138289.779 9  85142104.754 8
  20880341.930    20880343.440   -17465701.861 9 -16390317.486 7
 89 11 20 13 32 29.0800000  0  4G13G 6G 3G 9
  20443128.493    20443131.173   -42933244.656 9  10864206.515 8
  23633339.083    23633341.567     5516017.290 9  19302013.914 9
  23072513.321    23072515.338   -74210654.861 9  85085716.394 7
  20892489.985    20892490.328   -17401867.140 8 -16340576.175 9
 89 11 20 13 32 59.0800000  0  4G13G 6G 3G 9
  20443571.376    20443573.526   -42930916.845 8  10866020.418 8
  23655588.067    23655589.752     5632934.860 8  19393118.465 8
  23058794.454    23058796.901   -74282749.495 9  85029538.766 8
  20904744.355    20904746.544   -17337462.123 8 -16290390.476 7
 89 11 20 13 33 29.0800000  0  4G13G 6G 3G 9
  20444086.105    20444088.228   -42928213.945 8  10868126.561 7
  23677879.562    23677882.135     5750079.598 8  19484399.974 9
  23045126.993    23045129.718   -74354573.236 9  84973572.207 9
  20917109.818    20917110.197   -17272488.646 9 -16239761.813 8
 89 11 20 13 33 59.0800000  0  4G13G 6G 3G 9
  20444671.509    20444673.015   -42925137.812 9  10870523.561 7
  23700213.060    23700217.403     5867448.684 9  19575856.293 8
  23031511.595    23031512.733   -74426125.817 9  84917816.947 8
  20929580.705    20929582.325   -17206948.591 8 -16188691.666 7
 89 11 20 13 34 29.0800000  0  4G13G 6G 3G 9
  20445327.456    20445328.891   -42921689.983 8  10873210.177 8
  23722590.897    23722593.588     5985039.229 9  19667485.234 8
  23017947.526    23017948.721   -74497407.025 9  84862273.138 8
  20942160.405    20942161.488   -17140843.401 9 -16137181.154 7
 89 11 20 13 34 59.0800000  0  4G13G 6G 3G 9
  20446053.719    20446054.510   -42917871.612 8  10876185.545 8
  23745009.899    23745011.627     6102848.554 9  19759284.680 9
  23004434.082    23004436.278   -74568416.680 8  84806940.937 8
  20954846.565    20954847.767   -17074175.304 9 -16085231.995 7
 89 11 20 13 35 29.0800000  0  4G13G 6G 3G 9
  20446850.711    20446852.275   -42913684.536 9  10879448.210 8
  23767469.096    23767472.308     6220873.686 9  19851252.268 8
  22990972.694    22990975.449   -74639154.527 8  84751820.540 8
  20967640.731    20967642.005   -17006946.194 9 -16032845.686 8
 89 11 20 13 35 59.0800000  0  4G13G 6G 3G 9
  20447717.104    20447719.498   -42909130.567 9  10882996.758 8
  23789968.482    23789970.535     6339112.025 9  19943385.976 7
  22977563.464    22977565.990   -74709620.359 9  84696912.107 9
  20980540.002    20980540.890   -16939157.676 9 -15980023.463 8
 89 11 20 13 36 29.0800000  0  4G13G 6G 3G 9
  20448652.695    20448655.203   -42904210.819 9  10886830.329 8
  23812508.633    23812510.976     6457560.575 9  20035683.481 7
  22964206.763    22964209.332   -74779814.020 9  84642215.762 8
  20993546.692    20993547.244   -16870811.597 8 -15926766.802 8
 89 11 20 13 36 59.0800000  0  4G13G 6G 3G 9
  20449659.160    20449661.540   -42898927.006 9  10890947.592 8
  23835088.545    23835090.121     6576216.786 9  20128142.817 8
  22950900.438    22950903.693   -74849735.356 9  84587731.613 8
  21006657.614    21006658.794   -16801909.975 9 -15873077.239 9
 89 11 20 13 37 29.0800000  0  4G13G 6G 3G 9
  20450733.923    20450734.700   -42893280.720 8  10895347.289 8
  23857707.318    23857709.843     6695077.669 9  20220761.633 7
  22937647.099    22937649.545   -74919383.965 9  84533459.980 8
  21019873.963    21019875.973   -16732454.783 9 -15818956.328 8
 89 11 20 13 37 59.0800000  0  4G13G 6G 3G 9
  20451876.969    20451879.750   -42887273.695 8  10900028.091 8
  23880364.786    23880366.345     6814140.567 8  20313537.840 8
  22924445.681    22924447.928   -74988759.608 9  84479401.031 9
  21033196.588    21033197.794   -16662447.836 9 -15764405.476 7
 89 11 20 13 38 29.0800000  0  4G13G 6G 3G 9
  20453088.443    20453088.848   -42880907.837 9  10904988.503 8
  23903059.493    23903061.142     6933402.618 8  20406469.196 9
  22911295.768    22911297.772   -75057862.314 9  84425554.776 8
  21046622.745    21046623.801   -16591891.095 9 -15709426.210 9
 89 11 20 13 38 59.0800000  0  4G13G 6G 3G 9
  20454367.656    20454369.434   -42874184.220 9  10910227.689 7
  23925791.773    23925793.430     7052860.943 7  20499553.486 9
  22898197.978    22898200.125   -75126691.747 9  84371921.472 8
  21060153.016    21060154.976   -16520786.673 9 -15654020.198 8
 89 11 20 13 39 29.0800000  0  4G13G 6G 3G 9
  20455714.207    20455716.100   -42867104.379 8  10915744.444 7
  23948560.537    23948563.138     7172512.806 9  20592788.591 8
  22885151.415    22885154.448   -75195247.854 9  84318501.121 9
  21073788.466    21073789.003   -16449136.577 9 -15598188.958 8
 89 11 20 13 39 59.0800000  0  4G13G 6G 3G 9
  20457128.985    20457130.906   -42859670.381 9  10921537.179 7
  23971365.698    23971367.566     7292355.082 9  20686172.110 9
  22872158.045    22872160.692   -75263530.675 9  84265293.738 8
  21087526.070    21087527.704   -16376942.891 8 -15541934.186 8
 89 11 20 13 40 29.0800000  0  4G13G 6G 3G 9
  20458611.488    20458613.253   -42851884.025 9  10927604.460 7
  23994206.749    23994208.900     7412385.135 9  20779701.934 9
  22859216.403    22859219.358   -75331539.959 9  84212299.485 7
  21101366.467    21101369.099   -16304207.599 9 -15485257.364 8
 89 11 20 13 40 59.0800000  0  4G13G 6G 3G 9
  20460158.827    20460159.960   -42843746.209 9  10933945.616 7
  24017083.363    24017085.835     7532600.068 9  20873375.828 9
  22846326.854    22846329.122   -75399275.488 9  84159518.540 8
  21115311.225    21115312.276   -16230932.836 9 -15428160.164 9
 89 11 20 13 41 29.0800000  0  4G13G 6G 3G 9
  20461774.348    20461776.442   -42835258.982 9  10940559.043 6
  24039993.431    24039996.966     7652997.138 9  20967191.639 9
  22833489.613    22833491.724   -75466737.303 9  84106950.902 8
  21129357.010    21129357.345   -16157120.553 9 -15370644.137 8
 89 11 20 13 41 59.0800000  0  4G13G 6G 3G 9
  20463455.679    20463457.056   -42826423.741 9  10947443.654 7
  24062939.222    24062941.619     7773573.542 9  21061147.174 8
  22820705.093    22820704.650   -75533925.187 9  84054596.694 8
  21143505.402    21143507.154   -16082772.930 9 -15312710.940 8
 89 11 20 13 42 29.0800000  0  4G13G 6G 3G 9
  20465203.517    20465204.179   -42817242.716 9  10954597.696 7
  24085917.362    24085919.106     7894326.321 9  21155240.158 8
  22807970.556    22807972.773   -75600839.111 9  84002455.969 7
  21157754.855    21157755.088   -16007891.993 9 -15254362.167 8
 89 11 20 13 42 59.0800000  0  4G13G 6G 3G 9
  20467016.318    20467017.354   -42807717.139 9  10962020.228 7
  24108928.514    24108930.340     8015252.684 9  21249468.386 8
  22795289.413    22795291.522   -75667478.745 9  83950528.968 8
  21172104.985    21172106.731   -15932479.983 9 -15195599.588 8
 89 11 20 13 43 29.0800000  0  4G13G 6G 3G 9
  20468894.028    20468893.976   -42797848.568 9  10969710.007 6
  24131972.861    24131975.659     8136349.843 9  21343829.704 8
  22782660.792    22782662.250   -75733844.361 9  83898815.497 7
  21186555.626    21186557.519   -15856539.312 8 -15136425.063 7
 89 11 20 13 43 59.0800000  0  4G13G 6G 3G 9
  20470836.972    20470837.851   -42787639.207 9  10977665.362 7
  24155048.832    24155051.251     8257614.936 8  21438321.875 8
  22770083.956    22770085.987   -75799935.757 9  83847315.705 7
  21201106.726    21201109.190   -15780071.874 9 -15076840.060 8
 89 11 20 13 44 29.0800000  0  4G13G12G 3G 9
  20472843.953    20472845.991   -42777090.360 9  10985885.231 8
                  20292816.487   -84100344.143 9
  22757559.387    22757560.780   -75865752.740 9  83796029.766 7
  21215757.513    21215758.612   -15703079.944 8 -15016846.373 7
 89 11 20 13 44 59.0800000  0  4G13G12G 3G 9
  20474915.037    20474917.668   -42766203.338 9  10994368.629 8
  20587363.414    20587364.884   -84128062.524 8 106815681.273 8
  22745087.331    22745088.458   -75931295.448 9  83744957.530 8
  21230507.828    21230509.728   -15625565.769 8 -14956445.739 8
 89 11 20 13 45 29.0800000  0  4G13G12G 3G 9
  20477051.342    20477053.590   -42754980.128 9  11003113.997 8
  20582200.070    20582201.126   -84155197.508 9 106794537.127 8
  22732667.180    22732668.916   -75996563.950 9  83694098.948 7
  21245358.337    21245359.164   -15547531.856 8 -14895640.123 7
 89 11 20 13 45 59.0800000  0  4G13G12G 3G 9
  20479250.579    20479252.174   -42743422.594 9  11012119.852 7
  20577146.860    20577149.458   -84181747.040 9 106773849.166 8
  22720297.928    22720300.235   -76061558.104 9  83643454.147 8
  21260305.775    21260306.346   -15468980.142 9 -14834431.024 7
 89 11 20 13 46 29.0800000  0  4G13G12G 3G 9
  20481512.607    20481514.472   -42731532.523 9  11021384.824 7
  20572206.211    20572208.611   -84207709.745 9 106753618.492 8
  22707982.727    22707984.579   -76126277.866 9  83593023.169 7
  21275351.490    21275352.545   -15389913.133 9 -14772820.391 8
 89 11 20 13 46 59.0800000  0  4G13G12G 3G 9
  20483839.185    20483841.083   -42719311.197 9  11030907.962 8
  20567378.699    20567379.775   -84233083.887 9 106733846.439 7
  22695719.556    22695722.001   -76190723.098 9  83542806.099 8
  21290495.393    21290496.436   -15310332.909 9 -14710809.868 8
 89 11 20 13 47 29.0800000  0  4G13G12G 3G 9
  20486227.289    20486228.252   -42706760.429 9  11040687.779 8
  20562661.585    20562663.555   -84257867.971 9 106714534.157 8
  22683507.998    22683510.363   -76254894.004 9  83492802.808 8
  21305736.457    21305737.512   -15230241.957 8 -14648401.350 7
 89 11 20 13 47 59.0800000  0  4G13G12G 3G 9
  20488677.490    20488678.551   -42693881.897 9  11050723.007 8
  20558058.724    20558059.729   -84282060.222 9 106695683.046 8
  22671348.504    22671351.364   -76318790.768 9  83443013.126 8
  21321073.992    21321075.778   -15149642.618 9 -14585596.705 7
 89 11 20 13 48 29.0800000  0  4G13G12G 3G 9
  20491190.667    20491191.844   -42680677.595 9  11061012.067 7
  20553567.318    20553569.872   -84305659.345 9 106677294.114 7
  22659241.969    22659243.726   -76382413.135 9  83393437.258 9
  21336507.744    21336508.656   -15068537.351 9 -14522397.822 8
 89 11 20 13 48 59.0800000  0  4G13G12G 3G 9
  20493764.787    20493766.455   -42667149.019 9  11071553.800 8
  20549190.378    20549191.135   -84328663.463 9 106659368.817 7
  22647187.233    22647190.858   -76445761.475 9  83344074.914 7
  21352037.480    21352037.535   -14986928.423 9 -14458806.475 8
 89 11 20 13 49 29.0800000  0  4G13G12G 3G 9
  20496400.811    20496402.951   -42653297.425 9  11082347.243 8
  20544926.295    20544928.349   -84351071.590 9 106641907.934 8
  22635185.089    22635186.145   -76508835.376 9  83294926.430 8
  21367662.602    21367663.387   -14904818.283 9 -14394824.576 8
 89 11 20 13 49 59.0800000  0  4G13G12G 3G 9
  20499096.437    20499097.973   -42639125.288 8  11093390.477 8
  20540776.178    20540776.768   -84372882.091 9 106624912.737 9
  22623234.159    22623235.823   -76571634.970 9  83245991.691 7
  21383381.593    21383384.337   -14822209.207 8 -14330453.877 9
 89 11 20 13 50 29.0800000  0  4G13G12G 3G 9
  20501854.605    20501857.325   -42624633.908 8  11104682.467 8
  20536739.299    20536741.157   -84394093.913 9 106608384.031 8
  22611335.736    22611337.737   -76634160.456 9  83197270.548 8
  21399196.913    21399197.454   -14739103.683 9 -14265696.345 8
 89 11 20 13 50 59.0800000  0  4G13G12G 3G 9
  20504673.705    20504674.407   -42609825.403 9  11116221.552 8
  20532816.359    20532818.887   -84414705.392 9 106592323.135 7
  22599489.914    22599492.186   -76696411.907 9  83148762.926 8
  21415104.813    21415106.297   -14655504.229 8 -14200553.945 8
 89 11 20 13 51 29.0800000  0  4G13G12G 3G 9
  20507551.490    20507553.430   -42594701.277 9  11128006.568 8
  20529009.368    20529011.169   -84434714.876 9 106576731.324 8
  22587695.684    22587698.227   -76758389.487 9  83100468.715 8
  21431107.984    21431109.012   -14571413.287 9 -14135028.557 7
 89 11 20 13 51 59.0800000  0  4G13G12G 3G 9
  20510488.005    20510490.201   -42579263.204 9  11140036.257 8
  20525316.545    20525318.709   -84454121.395 9 106561609.355 8
  22575953.710    22575955.975   -76820092.942 8  83052388.096 9
  21447203.392    21447203.274   -14486833.384 9 -14069122.175 7
 89 11 20 13 52 29.0800000  0  4G13G12G 3G 9
  20513486.191    20513487.194   -42563512.814 9  11152309.281 8
  20521738.380    20521741.049   -84472923.360 9 106546958.458 8
  22564264.595    22564266.531   -76881522.575 9  83004520.877 7
  21463390.007    21463390.877   -14401766.788 9 -14002836.540 7
 89 11 20 13 52 59.0800000  0  4G13G12G 3G 9
  20516541.804    20516544.392   -42547451.700 9  11164824.433 8
  20518276.056    20518277.716   -84491119.814 8 106532779.393 8
  22552626.564    22552628.721   -76942678.678 9  82956866.771 8
  21479669.316    21479671.788   -14316216.238 9 -13936173.807 8
 89 11 20 13 53 29.0800000  0  4G13G12G 3G 9
  20519657.262    20519660.272   -42531081.684 8  11177580.277 8
  20514929.038    20514931.105   -84508709.439 9 106519073.199 8
  22541041.634    22541044.614   -77003560.957 9  82909426.025 7
  21496041.378    21496041.433   -14230184.134 9 -13869135.822 8
 89 11 20 13 53 59.0800000  0  4G13G12G 3G 9
  20522831.358    20522833.321   -42514404.324 9  11190575.619 7
  20511697.639    20511699.062   -84525691.049 9 106505840.770 8
  22529507.509    22529510.082   -77064169.918 8  82862198.276 8
  21512504.017    21512504.244   -14143673.003 9 -13801724.568 7
 89 11 20 13 54 29.0800000  0  4G13G12G 3G 9
  20526062.814    20526064.278   -42497420.987 9  11203809.368 8
  20508581.497    20508583.564   -84542063.446 9 106493083.038 9
  22518026.621    22518027.742   -77124505.525 8  82815183.523 7
  21529056.919    21529058.074   -14056685.431 9 -13733942.086 8
 89 11 20 13 54 59.0800000  0  4G13G12G 3G 9
  20529351.729    20529354.329   -42480134.273 9  11217279.529 8
  20505581.730    20505584.110   -84557825.406 9 106480800.993 8
  22506597.275    22506598.489   -77184567.852 9  82768381.713 8
  21545700.111    21545702.082   -13969223.951 9 -13665790.324 8
 89 11 20 13 55 29.0800000  0  4G13G12G 3G 9
  20532699.946    20532701.546   -42462545.463 9  11230985.101 7
  20502699.089    20502700.857   -84572975.243 9 106468995.917 8
  22495219.851    22495222.631   -77244356.932 9  82721792.822 8
  21562433.595    21562434.079   -13881291.454 9 -13597271.529 8
 89 11 20 13 55 59.0800000  0  4G13G12G 3G 9
  20536103.677    20536104.679   -42444656.466 9  11244924.582 8
  20499933.315    20499935.004   -84587512.250 8 106457668.362 8
  22483893.795    22483895.559   -77303873.100 9  82675416.584 8
  21579254.450    21579256.309   -13792890.241 9 -13528387.494 8
 89 11 20 13 56 29.0800000  0  4G13G12G 3G 9
  20539564.698    20539564.967   -42426469.037 9  11259096.592 7
  20497283.148    20497285.474   -84601434.927 9 106446819.520 8
  22472619.982    22472622.556   -77363116.595 9  82629252.816 7
  21596166.398    21596168.155   -13704022.832 8 -13459140.191 8
 89 11 20 13 56 59.0800000  0  4G13G12G 3G 9
  20543082.208    20543084.576   -42407984.646 9  11273500.013 8
  20494750.574    20494753.296   -84614742.428 9 106436450.033 8
  22461398.363    22461400.221   -77422087.485 9  82583301.454 8
  21613164.916    21613167.403   -13614692.060 9 -13389531.822 8
 89 11 20 13 57 29.0800000  0  4G13G12G 3G 9
  20546656.022    20546657.274   -42389204.792 9  11288133.661 8
  20492336.050    20492337.116   -84627433.593 9 106426560.803 8
  22450228.536    22450229.400   -77480785.913 9  82537562.421 8
  21630251.865    21630253.851   -13524900.536 9 -13319564.450 8
 89 11 20 13 57 59.0800000  0  4G13G12G 3G 9
  20550285.619    20550287.498   -42370131.710 9  11302995.788 7
  20490037.922    20490040.147   -84639507.588 9 106417152.490 8
  22439110.479    22439112.230   -77539212.189 9  82492035.452 8
  21647426.644    21647429.046   -13434651.091 9 -13249240.235 8
 89 11 20 13 58 29.0800000  0  4G13G12G 3G 9
  20553969.935    20553971.618   -42350766.807 9  11318085.327 7
  20487858.938    20487860.939   -84650963.398 9 106408225.859 9
  22428044.379    22428045.899   -77597366.403 9  82446720.486 8
  21664686.764    21664687.991   -13343946.097 8 -13178561.041 7
 89 11 20 13 58 59.0800000  0  4G13G12G 3G 9
  20557710.468    20557711.986   -42331112.302 9  11333400.498 7
  20485796.472    20485798.957   -84661800.102 9 106399781.670 8
  22417029.949    22417032.186   -77655248.685 9  82401617.415 9
  21682033.939    21682035.325   -13252788.341 9 -13107529.075 8
 89 11 20 13 59 29.0800000  0  4G13G12G 3G 9
  20561506.650    20561506.136   -42311169.642 9  11348940.250 7
  20483851.794    20483854.953   -84672016.469 9 106391820.858 8
  22406066.103    22406067.810   -77712859.407 9  82356725.950 8
  21699465.769    21699467.097   -13161180.641 9 -13036146.481 8
 89 11 20 13 59 59.0800000  0  4G13G12G 3G 9
  20565355.300    20565356.711   -42290940.182 9  11364703.442 7
  20482025.014    20482028.259   -84681611.747 9 106384344.003 7
  22395155.379    22395156.935   -77770198.671 9  82312046.011 9
  21716983.396    21716985.797   -13069125.642 9 -12964415.349 7
 89 11 20 14  0 29.0800000  0  4G13G12G 3G 9
  20569258.333    20569261.903   -42270425.969 9  11380688.529 8
  20480318.864    20480320.306   -84690585.009 9 106377351.826 8
  22384295.582    22384298.498   -77827266.713 9  82267577.400 8
  21734585.448    21734586.160   -12976625.949 9 -12892337.702 8
 89 11 20 14  0 59.0800000  0  4G13G12G 3G 9
  20573216.490    20573218.956   -42249628.658 9  11396894.216 8
  20478730.231    20478731.909   -84698935.180 9 106370845.202 9
  22373487.748    22373489.090   -77884063.995 9  82223319.785 8
  21752272.238    21752272.751   -12883684.360 9 -12819915.718 8
 89 11 20 14  1 29.0800000  0  4G13G12G 3G 9
  20577226.616    20577229.029   -42228550.240 9  11413318.940 7
  20477259.993    20477260.638   -84706661.405 9 106364824.742 7
  22362730.369    22362732.183   -77940590.486 9  82179273.179 8
  21770041.364    21770043.936   -12790303.763 9 -12747151.654 8
 89 11 20 14  1 59.0800000  0  4G13G12G 3G 9
  20581292.165    20581294.213   -42207192.203 9  11429961.552 7
  20475908.246    20475910.774   -84713763.090 9 106359290.949 8
  22352025.255    22352028.249   -77996846.379 9  82135437.419 7
  21787895.056    21787896.127   -12696486.771 9 -12674047.549 8
 89 11 20 14  2 29.0800000  0  4G13G12G 3G 9
  20585409.362    20585410.737   -42185556.330 9  11446820.667 8
  20474675.386    20474677.716   -84720239.493 9 106354244.394 9
  22341371.388    22341372.709   -78052832.352 9  82091812.005 8
  21805830.140    21805831.483   -12602236.169 9 -12600605.558 7
 89 11 20 14  2 59.0800000  0  4G13G12G 3G 9
  20589578.822    20589581.169   -42163644.104 9  11463895.111 9
  20473562.578    20473564.552   -84726089.883 9 106349685.630 8
  22330768.992    22330771.100   -78108548.317 9  82048396.985 8
  21823847.873    21823848.744   -12507554.893 9 -12526827.980 8
 89 11 20 14  3 29.0800000  0  4G13G12G 3G 9
  20593800.198    20593802.068   -42141457.466 9  11481183.391 8
  20472568.453    20472570.920   -84731313.345 9 106345615.404 8
  22320218.637    22320219.809   -78163994.587 9  82005192.112 8
  21841945.509    21841947.682   -12412445.776 9 -12452717.034 8
 89 11 20 14  3 59.0800000  0  4G13G12G 3G 9
  20598074.398    20598076.535   -42118998.101 8  11498684.192 8
  20471693.845    20471695.662   -84735909.230 9 106342034.176 8
  22309719.282    22309721.553   -78219171.444 9  81962197.169 8
  21860125.366    21860126.737   -12316911.327 9 -12378274.645 7
 89 11 20 14  4 29.0800000  0  4G13G12G 3G 9
  20602400.500    20602402.412   -42096267.789 9  11516396.103 8
  20470937.922    20470941.542   -84739876.919 9 106338942.457 7
  22299270.996    22299271.430   -78274079.326 9  81919411.816 8
  21878385.212    21878386.826   -12220954.645 9 -12303503.240 8
 89 11 20 14  4 59.0800000  0  4G13G12G 3G 9
  20606776.459    20606778.272   -42073268.092 9  11534317.936 7
  20470303.312    20470306.170   -84743215.791 9 106336340.742 8
  22288872.963    22288874.255   -78328718.370 9  81876835.931 8
  21896724.530    21896727.403   -12124578.464 9 -12228404.979 8
 89 11 20 14  5 29.0800000  0  4G13G12G 3G 9
  20611204.001    20611205.994   -42050000.849 9  11552448.255 8
  20469788.284    20469790.334   -84745925.198 9 106334229.493 8
  22278526.029    22278527.401   -78383089.142 9  81834469.094 9
  21915145.096    21915145.208   -12027785.834 9 -12152982.189 8
 89 11 20 14  5 59.0800000  0  4G13G12G 3G 9
  20615683.068    20615685.851   -42026467.845 9  11570785.638 8
  20469392.290    20469394.601   -84748004.444 9 106332609.282 8
  22268231.401    22268232.201   -78437191.814 9  81792311.157 8
  21933642.559    21933644.546   -11930579.574 9 -12077237.097 8
 89 11 20 14  6 29.0800000  0  4G13G12G 3G 9
  20620211.618    20620212.651   -42002670.770 9  11589328.809 7
  20469116.315    20469119.238   -84749452.873 9 106331480.627 7
  22257986.956    22257987.233   -78491026.669 9  81750361.941 8
  21952218.866    21952219.207   -11832962.378 9 -12001171.787 8
 89 11 20 14  6 59.0800000  0  4G13G12G 3G 9
  20624789.054    20624790.769   -41978611.155 9  11608076.538 7
  20468960.469    20468963.313   -84750270.025 9 106330843.867 7
  22247792.230    22247793.650   -78544594.322 9  81708620.915 8
  21970871.927    21970873.672   -11734937.158 8 -11924788.568 9
 89 11 20 14  7 29.0800000  0  4G13G12G 3G 9
  20629416.610    20629419.309   -41954290.958 9  11627027.331 8
  20468925.722    20468928.566   -84750455.271 9 106330699.499 8
  22237650.060    22237650.350   -78597894.493 9  81667088.316 8
  21989602.145    21989603.645   -11636506.826 9 -11848089.648 8
 89 11 20 14  7 59.0800000  0  4G13G12G 3G 9
  20634094.618    20634097.173   -41929712.245 9  11646179.548 7
  20469010.710    20469013.486   -84750008.433 9 106331047.651 8
  22227557.736    22227559.901   -78650928.088 9  81625763.418 8
  22008409.889    22008411.345   -11537674.455 8 -11771077.466 7
 89 11 20 14  8 29.0800000  0  4G13G12G 3G 9
  20638820.131    20638823.012   -41904876.201 9  11665532.290 6
  20469215.446    20469218.515   -84748928.749 9 106331888.961 8
  22217517.205    22217517.288   -78703695.371 9  81584646.057 8
  22027292.900    22027293.956   -11438442.739 9 -11693754.103 9
 89 11 20 14  8 59.0800000  0  4G13G12G 3G 9
  20643594.598    20643596.887   -41879784.111 9  11685084.558 8
  20469541.476    20469543.969   -84747216.142 9 106333223.436 8
  22207526.354    22207528.118   -78756196.632 9  81543735.979 7
  22046251.434    22046252.719   -11338814.898 9 -11616122.071 8
 89 11 20 14  9 29.0800000  0  4G13G12G 3G 9
  20648417.996    20648420.176   -41854438.465 8  11704834.394 7
  20469988.066    20469990.154   -84744870.123 9 106335051.491 8
  22197585.558    22197587.343   -78808432.066 9  81503033.045 7
  22065284.519    22065287.006   -11238793.542 9 -11538183.412 8
 89 11 20 14  9 59.0800000  0  4G13G12G 3G 9
  20653289.844    20653291.361   -41828840.504 9  11724780.819 7
  20470555.800    20470557.127   -84741890.006 9 106337373.645 8
  22187695.187    22187699.048   -78860402.398 9  81462536.675 7
  22084393.185    22084394.572   -11138381.871 9 -11459940.618 7
 89 11 20 14 10 29.0800000  0  4G13G12G 3G 9
  20658207.815    20658211.787   -41802992.395 9  11744922.181 8
  20471243.902    20471245.820   -84738275.625 9 106340190.029 8
  22177857.138    22177858.616   -78912107.747 9  81422246.799 7
  22103573.541    22103575.842   -11037582.798 9 -11381395.947 7
 89 11 20 14 10 59.0800000  0  4G13G12G 3G 9
  20663173.831    20663177.277   -41776895.323 9  11765257.544 7
  20472052.328    20472054.531   -84734026.563 9 106343500.961 8
  22168068.605    22168069.518   -78963548.529 8  81382163.066 8
  22122828.790    22122830.461   -10936399.176 9 -11302551.627 8
 89 11 20 14 11 29.0800000  0  4G13G12G 3G 9
  20668187.178    20668190.105   -41750551.299 9  11785785.339 8
  20472981.375    20472983.030   -84729142.507 9 106347306.712 8
  22158329.776    22158331.683   -79014725.283 9  81342285.070 7
  22142156.073    22142157.745   -10834834.122 9 -11223410.088 8
 89 11 20 14 11 59.0800000  0  4G13G12G 3G 9
  20673247.802    20673249.337   -41723961.942 8  11806504.287 7
  20474031.692    20474034.281   -84723623.238 9 106351607.408 8
  22148640.828    22148642.377   -79065638.336 9  81302612.558 7
  22161555.846    22161557.460   -10732890.651 8 -11143973.676 9
 89 11 20 14 12 29.0800000  0  4G13G12G 3G 9
  20678352.835    20678356.786   -41697128.807 9  11827413.184 7
  20475202.817    20475205.170   -84717468.409 9 106356403.369 8
  22139002.872    22139004.543   -79116288.369 9  81263145.013 7
  22181026.306    22181027.462   -10630571.740 9 -11064244.712 9
 89 11 20 14 12 59.0800000  0  4G13G12G 3G 9
  20683505.410    20683507.582   -41670054.063 9  11848510.369 7
  20476495.811    20476497.310   -84710678.118 9 106361694.489 8
  22129413.287    22129416.360   -79166675.373 9  81223882.408 7
  22200567.282    22200569.826   -10527880.254 9 -10984225.437 8
 89 11 20 14 13 29.0800000  0  4G13G12G 3G 9
  20688703.575    20688705.880   -41642738.544 9  11869795.167 8
  20477907.949    20477911.497   -84703252.014 9 106367481.042 8
  22119876.117    22119877.582   -79216800.096 9  81184824.168 6
  22220179.775    22220180.773   -10424819.311 9 -10903918.276 8
 89 11 20 14 13 59.0800000  0  4G13G12G 3G 9
  20693946.817    20693947.998   -41615184.616 9  11891265.724 8
  20479442.958    20479444.970   -84695190.000 9 106373763.101 8
  22110388.113    22110388.863   -79266662.689 9  81145970.190 8
  22239861.696    22239863.181   -10321391.941 9 -10823325.577 8
 89 11 20 14 14 29.0800000  0  4G13G12G 3G 9
  20699235.418    20699237.015   -41587393.853 9  11912920.849 8
  20481097.498    20481100.095   -84686492.007 9 106380540.727 7
  22100949.655    22100950.548   -79316263.850 9  81107319.918 7
  22259611.986    22259613.944   -10217601.151 9 -10742449.710 9
 89 11 20 14 14 59.0800000  0  4G13G12G 3G 9
  20704569.309    20704572.358   -41559367.886 9  11934759.232 7
  20482874.581    20482876.548   -84677158.112 9 106387813.864 7
  22091559.520    22091559.723   -79365603.910 9  81068873.108 8
  22279431.562    22279431.788   -10113449.907 9 -10661292.971 8
 89 11 20 14 15 29.0800000  0  4G13G12G 3G 9
  20709946.646    20709948.074   -41531108.639 9  11956779.406 7
  20484771.857    20484773.646   -84667188.660 9 106395582.263 7
  22082220.525    22082220.987   -79414683.253 9  81030629.448 7
  22299317.933    22299319.976   -10008941.416 8 -10579857.854 8
 89 11 20 14 15 59.0800000  0  4G13G12G 3G 9
  20715368.617    20715370.202   -41502617.140 9  11978980.541 8
  20486788.618    20486790.745   -84656583.145 8 106403846.260 8
  22072928.993    22072932.468   -79463502.428 9  80992588.525 6
  22319272.559    22319275.089    -9904078.591 9 -10498146.665 8
 89 11 20 14 16 29.0800000  0  4G13G12G 3G 9
  20720834.531    20720835.043   -41473895.490 9  12001361.035 8
  20488928.050    20488930.629   -84645341.251 9 106412606.154 8
  22063689.369    22063690.976   -79512062.076 9  80954749.842 8
  22339295.497    22339296.739    -9798864.495 9 -10416161.735 9
 89 11 20 14 16 59.0800000  0  4G13G12G 3G 9
  20726342.919    20726345.101   -41444944.902 9  12023919.913 8
  20491188.994    20491190.751   -84633463.238 9 106421861.712 8
  22054498.702    22054500.482   -79560362.404 9  80917113.212 8
  22359382.512    22359385.285    -9693302.331 9 -10333905.574 9
 89 11 20 14 17 29.0800000  0  4G13G12G 3G 9
  20731894.699    20731897.898   -41415767.525 9  12046655.507 7
  20493569.950    20493571.702   -84620949.328 9 106431612.783 8
  22045357.053    22045358.268   -79608403.790 9  80879678.361 7
  22379536.980    22379538.908    -9587395.224 9 -10251380.636 8
 89 11 20 14 17 59.0800000  0  4G13G12G 3G 9
  20737489.729    20737492.577   -41386364.873 9  12069566.648 8
  20496072.630    20496075.102   -84607799.734 9 106441859.191 7
  22036263.275    22036265.598   -79656187.020 9  80842444.671 7
  22399754.866    22399757.381    -9481146.116 9 -10168589.204 9
 89 11 20 14 18 29.0800000  0  4G13G12G 3G 9
  20743128.137    20743128.506   -41356738.347 9  12092652.213 8
  20498695.189    20498698.533   -84594014.426 9 106452600.948 7
  22027219.650    22027221.930   -79703712.506 9  80805411.820 8
  22420038.489    22420039.602    -9374558.026 9 -10085533.633 9
 89 11 20 14 18 59.0800000  0  4G13G12G 3G 9
  20748808.675    20748809.931   -41326889.762 9  12115910.817 7
  20501439.251    20501442.006   -84579593.473 9 106463838.032 7
  22018223.734    22018226.498   -79750980.580 9  80768579.566 8
  22440385.930    22440387.088    -9267634.080 9 -10002216.360 8
 89 11 20 14 19 29.0800000  0  4G13G12G 3G 9
  20754529.501    20754532.002   -41296821.214 9  12139340.835 7
  20504304.480    20504307.081   -84564537.329 9 106475570.056 7
  22009278.707    22009280.979   -79797991.906 9  80731947.362 8
  22460795.103    22460796.860    -9160377.556 9  -9918639.930 8
 89 11 20 14 19 59.0800000  0  4G13G12G 3G 9
  20760292.856    20760295.000   -41266533.867 9  12162941.355 7
  20507291.748    20507292.919   -84548845.832 9 106487797.166 7
  22000382.001    22000384.617   -79844747.105 9  80695514.729 7
  22481268.895    22481270.337    -9052791.553 9  -9834806.771 8
 89 11 20 14 20 29.0800000  0  4G13G12G 3G 9
  20766098.330    20766099.967   -41236029.029 9  12186711.334 8
  20510398.706    20510400.087   -84532519.186 9 106500519.189 8
  21991533.883    21991534.968   -79891246.346 9  80659281.568 8
  22501804.159    22501805.859    -8944879.039 8  -9750719.178 8
 89 11 20 14 20 59.0800000  0  4G13G12G 3G 9
  20771944.176    20771945.472   -41205309.029 9  12210648.953 7
  20513625.861    20513628.223   -84515557.754 9 106513735.848 7
  21982733.857    21982735.228   -79937490.270 8  80623247.345 8
  22522400.180    22522402.854    -8836643.228 9  -9666379.674 8
 89 11 20 14 21 29.0800000  0  4G13G12G 3G 9
  20777830.523    20777833.171   -41174375.155 9  12234753.225 8
  20516973.391    20516977.119   -84497962.011 9 106527446.780 7
  21973981.705    21973984.601   -79983479.506 9  80587411.576 8
  22543057.731    22543058.830    -8728087.192 9  -9581790.652 9
 89 11 20 14 21 59.0800000  0  4G13G12G 3G 9
  20783757.659    20783760.052   -41143229.054 9  12259022.884 8
  20520442.620    20520445.205   -84479732.388 9 106541651.639 7
  21965280.170    21965280.905   -80029214.789 9  80551773.690 8
  22563776.153    22563777.079    -8619214.228 9  -9496954.678 8
 89 11 20 14 22 29.0800000  0  4G13G12G 3G 9
  20789724.730    20789726.791   -41111871.850 9  12283457.035 6
  20524032.756    20524034.858   -84460868.887 9 106556350.450 8
  21956624.376    21956625.138   -80074696.279 9  80516333.576 8
  22584552.692    22584555.944    -8510027.186 9  -9411873.972 9
 89 11 20 14 22 59.0800000  0  4G13G12G 3G 9
  20795731.715    20795732.416   -41080305.556 9  12308054.120 8
  20527742.355    20527744.874   -84441372.187 9 106571542.628 8
  21948017.346    21948018.596   -80119924.578 9  80481090.740 8
  22605390.884    22605392.681    -8400529.362 9  -9326551.082 9
 89 11 20 14 23 29.0800000  0  4G13G12G 3G 9
  20801777.735    20801780.455   -41048532.022 9  12332812.671 7
  20531573.500    20531576.610   -84421242.496 9 106587228.060 9
  21939458.803    21939461.277   -80164900.310 9  80446044.705 8
  22626285.068    22626288.538    -8290723.749 8  -9240988.370 8
 89 11 20 14 23 59.0800000  0  4G13G12G 3G 9
  20807863.219    20807865.781   -41016552.623 8  12357731.639 7
  20535524.622    20535525.412   -84400480.463 9 106603406.241 8
  21930948.195    21930950.446   -80209624.063 9  80411195.011 8
  22647237.817    22647240.171    -8180613.814 9  -9155188.539 9
 89 11 20 14 24 29.0800000  0  4G13G12G 3G 9
  20813988.025    20813990.344   -40984368.970 9  12382809.770 8
  20539594.231    20539597.937   -84379086.341 8 106620076.932 7
  21922485.188    21922486.494   -80254096.258 9  80376541.334 8
  22668249.413    22668251.062    -8070202.569 9  -9069153.909 9
 89 11 20 14 24 59.0800000  0  4G13G12G 3G 9
  20820151.151    20820151.998   -40951982.738 9  12408045.752 8
  20543787.195    20543789.129   -84357060.787 9 106637239.663 8
  21914069.474    21914072.060   -80298317.550 9  80342083.186 8
  22689315.545    22689318.833    -7959493.311 9  -8982887.055 8
 89 11 20 14 25 29.0800000  0  4G13G12G 3G 9
  20826352.383    20826353.800   -40919395.595 9  12433438.292 8
  20548098.504    20548099.912   -84334404.381 9 106654893.968 8
  21905703.289    21905703.921   -80342288.701 9  80307819.944 7
  22710439.799    22710441.458    -7848489.134 9  -8896390.427 9
 89 11 20 14 25 59.0800000  0  4G13G12G 3G 9
  20832591.377    20832594.095   -40886608.669 9  12458986.480 7
  20552529.448    20552531.161   -84311117.562 9 106673039.487 8
  21897382.457    21897384.408   -80386009.985 9  80273751.387 8
  22731619.222    22731621.773    -7737193.124 9  -8809666.398 8
 89 11 20 14 26 29.0800000  0  4G13G12G 3G 9
  20838868.490    20838871.024   -40853623.804 9  12484688.920 7
  20557081.319    20557082.352   -84287200.896 9 106691675.809 7
  21889110.991    21889112.492   -80429482.108 8  80239877.022 8
  22752853.579    22752855.215    -7625608.335 9  -8722717.313 8
 89 11 20 14 26 59.0800000  0  4G13G12G 3G 9
  20845182.049    20845184.324   -40820442.519 9  12510544.434 8
  20561752.479    20561753.566   -84262654.962 9 106710802.459 8
  21880884.216    21880887.046   -80472705.558 8  80206196.403 7
  22774142.265    22774143.419    -7513738.046 9  -8635545.777 9
 89 11 20 14 27 29.0800000  0  4G13G12G 3G 9
  20851534.285    20851535.803   -40787066.059 9  12536552.018 7
  20566542.279    20566543.897   -84237480.615 9 106730418.788 7
  21872706.483    21872709.034   -80515680.993 8  80172709.033 8
  22795483.002    22795485.500    -7401585.608 9  -8548154.381 8
 89 11 20 14 27 59.0800000  0  4G13G12G 3G 9
  20857922.552    20857923.883   -40753496.190 9  12562710.300 8
  20571452.928    20571454.434   -84211678.512 9 106750524.272 8
  21864575.935    21864576.934   -80558408.835 8  80139414.603 8
  22816879.211    22816881.081    -7289154.060 8  -8460545.507 9
 89 11 20 14 28 29.0800000  0  4G13G12G 3G 9
  20864347.265    20864349.855   -40719734.484 9  12589018.068 8
  20576481.911    20576483.318   -84185249.413 9 106771118.316 7
  21856491.477    21856494.773   -80600890.061 9  80106312.348 8
  22838326.031    22838328.998    -7176446.603 9  -8372721.651 8
 89 11 20 14 28 59.0800000  0  4G13G12G 3G 9
  20870808.008    20870811.142   -40685782.487 9  12615474.125 8
  20581630.769    20581632.092   -84158193.770 9 106792200.595 7
  21848455.056    21848457.657   -80643124.925 9  80073402.040 6
  22859826.529    22859827.957    -7063466.417 9  -8284685.259 8
 89 11 20 14 29 29.0800000  0  4G13G12G 3G 9
  20877305.082    20877306.513   -40651641.939 9  12642077.115 8
  20586898.360    20586899.941   -84130512.144 9 106813770.644 9
  21840465.196    21840467.963   -80685114.234 9  80040683.062 8
  22881377.020    22881379.364    -6950216.690 9  -8196438.870 9
 89 11 20 14 29 59.0800000  0  4G13G12G 3G 9
  20883837.572    20883838.630   -40617313.942 9  12668826.152 7
  20592285.320    20592287.409   -84102205.716 9 106835827.555 7
  21832520.939    21832523.034   -80726858.377 9  80008155.148 7
  22902978.366    22902981.351    -6836700.797 9  -8107985.052 8
 89 11 20 14 30 29.0800000  0  4G13G12G 3G 9
  20890404.976    20890406.177   -40582800.240 9  12695719.880 9
  20597789.836    20597792.029   -84073275.271 9 106858370.713 8
  21824624.604    21824626.877   -80768358.242 9  79975817.559 8
  22924629.701    22924631.927    -6722921.864 9  -8019326.292 8
 89 11 20 14 30 59.0800000  0  4G13G12G 3G 9
  20897007.808    20897010.242   -40548102.889 9  12722756.707 8
  20603413.630    20603416.088   -84043722.075 9 106881399.134 8
  21816773.465    21816775.286   -80809614.290 8  79943669.970 8
  22946330.738    22946333.033    -6608882.871 9  -7930464.871 9
 89 11 20 14 31 29.0800000  0  4G13G12G 3G 9
  20903644.397    20903647.331   -40513222.502 9  12749936.175 7
  20609155.532    20609159.099   -84013546.371 9 106904912.608 7
  21808969.488    21808972.169   -80850627.065 9  79911711.935 7
  22968081.212    22968082.776    -6494587.308 9  -7841403.520 8
 89 11 20 14 31 59.0800000  0  4G13G12G 3G 9
  20910316.745    20910318.849   -40478160.366 9  12777257.274 9
  20615017.042    20615018.981   -83982749.000 9 106928910.519 8
  21801210.472    21801212.666   -80891397.242 9  79879942.966 7
  22989878.682    22989881.666    -6380038.380 9  -7752144.768 8
 89 11 20 14 32 29.0800000  0  4G13G12G 3G 9
  20917023.334    20917025.711   -40442918.373 9  12804718.504 8
  20620995.132    20620997.268   -83951331.343 9 106953391.761 9
  21793499.119    21793500.333   -80931925.447 9  79848362.530 7
  23011724.121    23011725.725    -6265239.204 9  -7662691.005 8
 89 11 20 14 32 59.0800000  0  4G13G12G 3G 9
  20923763.965    20923766.341   -40407498.518 9  12832318.323 8
  20627091.706    20627092.804   -83919294.160 9 106978355.737 9
  21785832.926    21785833.896   -80972212.318 9  79816970.140 8
  23033617.890    23033618.721    -6150193.105 9  -7573044.846 8
 89 11 20 14 33 29.0800000  0  4G13G12G 3G 9
  20930537.879    20930540.571   -40371902.501 9  12860055.409 6
  20633305.968    20633308.126   -83886638.869 9 107003801.350 7
  21778213.231    21778214.795   -81012258.785 9  79785765.067 9
  23055555.949    23055558.225    -6034903.214 9  -7483208.713 9
 89 11 20 14 33 59.0800000  0  4G13G12G 3G 9
  20937344.519    20937346.394   -40336130.967 9  12887929.269 7
  20639637.513    20639640.239   -83853365.775 9 107029728.378 9
  21770637.400    21770638.399   -81052064.896 9  79754747.269 8
  23077540.781    23077543.498    -5919372.678 9  -7393185.078 8
 89 11 20 14 34 29.0800000  0  4G13G12G 3G 9
  20944184.168    20944187.103   -40300185.424 9  12915938.721 7
  20646086.426    20646088.333   -83819476.303 9 107056135.712 7
  21763107.151    21763109.552   -81091631.574 8  79723916.076 8
  23099571.141    23099573.231    -5803604.853 9  -7302976.520 8
 89 11 20 14 34 59.0800000  0  4G13G12G 3G 9
  20951057.688    20951059.179   -40264067.134 9  12944082.764 8
  20652652.158    20652655.718   -83784971.620 9 107083022.420 8
  21755624.932    21755625.990   -81130959.383 9  79693270.999 8
  23121645.360    23121648.100    -5687602.882 9  -7212585.539 8
 89 11 20 14 35 29.0800000  0  4G13G12G 3G 9
  20957962.833    20957966.483   -40227778.152 9  12972359.832 8
  20659336.078    20659338.807   -83749852.790 9 107110387.679 8
  21748185.861    21748187.375   -81170049.176 9  79662811.395 7
  23143763.153    23143765.947    -5571370.129 8  -7122014.730 8
 89 11 20 14 35 59.0800000  0  4G13G12G 3G 9
  20964900.874    20964904.181   -40191319.611 9  13000769.027 8
  20666135.930    20666137.616   -83714120.532 9 107138230.935 8
  21740791.702    21740794.890   -81208901.427 9  79632536.880 8
  23165926.281    23165928.872    -5454909.654 9  -7031266.484 8
 89 11 20 14 36 29.0800000  0  4G13G12G 3G 9
  20971871.082    20971873.758   -40154692.848 9  13029309.305 8
  20673051.337    20673054.392   -83677776.721 9 107166550.722 8
  21733444.660    21733445.237   -81247516.763 9  79602446.994 8
  23188129.561    23188133.218    -5338224.666 9  -6940343.294 9
 89 11 20 14 36 59.0800000  0  4G13G12G 3G 9
  20978872.454    20978875.130   -40117899.063 9  13057979.726 7
  20680084.275    20680086.737   -83640822.197 9 107195346.402 8
  21726142.163    21726142.577   -81285895.883 9  79572541.162 7
  23210376.541    23210379.509    -5221318.518 9  -6849247.762 9
 89 11 20 14 37 29.0800000  0  4G13G12G 3G 9
  20985905.507    20985907.441   -40080940.119 9  13086778.847 7
  20687231.752    20687235.672   -83603258.327 9 107224616.867 8
  21718882.031    21718884.073   -81324039.745 9  79542818.621 8
  23232665.422    23232668.371    -5104194.361 9  -6757982.360 8
 89 11 20 14 37 59.0800000  0  4G13G12G 3G 9
  20992970.170    20992972.976   -40043817.614 9  13115705.391 8
  20694496.088    20694498.030   -83565086.087 9 107254361.419 8
  21711669.088    21711669.871   -81361948.662 9  79513279.188 8
  23254994.594    23254996.117    -4986855.492 9  -6666549.640 8
 89 11 20 14 38 29.0800000  0  4G13G12G 3G 9
  21000065.497    21000070.307   -40006532.266 9  13144758.855 7
  20701876.005    20701877.613   -83526306.889 9 107284578.924 8
  21704498.780    21704501.590   -81399623.221 9  79483922.355 8
  23277363.443    23277365.790    -4869305.212 9  -6574952.208 8
 89 11 20 14 38 59.0800000  0  4G13G12G 3G 9
  21007190.774    21007193.422   -39969085.990 9  13173937.723 8
  20709369.918    20709372.938   -83486922.001 9 107315268.379 8
  21697373.982    21697376.434   -81437064.336 9  79454747.418 8
  23299771.289    23299774.955    -4751546.464 9  -6483192.328 7
 89 11 20 14 39 29.0800000  0  4G13G12G 3G 9
  21014346.400    21014349.191   -39931479.929 8  13203241.093 7
  20716980.219    20716982.173   -83446933.110 9 107346428.459 7
  21690294.009    21690296.123   -81474272.674 9  79425753.889 8
  23322220.595    23322223.814    -4633582.807 8  -6391272.756 8
 89 11 20 14 39 59.0800000  0  4G13G12G 3G 9
  21021533.864    21021536.069   -39893715.554 9  13232667.800 7
  20724704.316    20724706.881   -83406341.371 9 107378058.346 8
  21683258.035    21683259.728   -81511248.713 9  79396941.356 8
  23344706.896    23344710.328    -4515417.349 9  -6299195.967 8
 89 11 20 14 40 29.0800000  0  4G13G12G 3G 9
  21028749.431    21028752.594   -39855794.195 9  13262216.831 8
  20732543.134    20732546.836   -83365147.919 9 107410157.072 8
  21676265.054    21676266.611   -81547993.145 9  79368309.302 7
  23367229.757    23367234.968    -4397053.327 9  -6206964.472 8
 89 11 20 14 40 59.0800000  0  4G13G12G 3G 9
  21035994.619    21035999.828   -39817717.478 9  13291886.938 7
  20740496.261    20740498.436   -83323354.258 9 107442723.493 7
  21669316.838    21669319.197   -81584506.666 9  79339857.166 8
  23389790.894    23389794.339    -4278493.915 8  -6114580.687 8
 89 11 20 14 41 29.0800000  0  4G13G12G 3G 9
  21043270.028    21043273.706   -39779486.278 9  13321677.417 8
  20748563.886    20748566.418   -83280961.988 9 107475756.360 9
  21662412.203    21662414.818   -81620790.175 9  79311584.270 9
  23412389.228    23412392.931    -4159742.481 8  -6022047.322 8
 89 11 20 14 41 59.0800000  0  4G13G12G 3G 9
  21050574.927    21050576.803   -39741102.138 9  13351587.075 7
  20756744.121    20756746.604   -83237972.277 9 107509254.762 8
  21655550.738    21655553.453   -81656844.135 9  79283490.230 8
  23435023.697    23435026.610    -4040802.248 9  -5929366.796 8
 89 11 20 14 42 29.0800000  0  4G13G12G 3G 9
  21057908.473    21057909.261   -39702566.590 9  13381614.712 6
  20765038.122    20765040.625   -83194386.719 9 107543217.461 7
  21648734.338    21648735.961   -81692669.127 9  79255574.626 8
  23457692.316    23457695.761    -3921676.286 9  -5836541.562 9
 89 11 20 14 42 59.0800000  0  4G13G12G 3G 9
  21065269.923    21065271.826   -39663880.786 9  13411759.411 7
  20773445.469    20773448.255   -83150207.027 9 107577643.120 7
  21641960.517    21641962.439   -81728266.178 9  79227836.641 8
  23480395.137    23480399.388    -3802367.857 9  -5743574.162 8
 89 11 20 14 43 29.0800000  0  4G13G12G 3G 9
  21072660.306    21072663.612   -39625045.980 9  13442020.241 7
  20781965.383    20781967.154   -83105434.419 9 107612530.798 8
  21635230.067    21635232.839   -81763635.714 9  79200275.905 8
  23503133.795    23503137.788    -3682880.312 9  -5650467.172 8
 89 11 20 14 43 59.0800000  0  4G13G12G 3G 9
  21080079.135    21080081.697   -39586063.550 9  13472396.090 7
  20790596.873    20790600.417   -83060070.422 9 107647879.295 7
  21628543.552    21628545.066   -81798778.493 8  79172891.884 8
  23525906.281    23525909.257    -3563216.895 9  -5557223.162 9
 89 11 20 14 44 29.0800000  0  4G13G12G 3G 9
  21087524.265    21087525.425   -39546935.087 9  13502885.726 6
  20799342.879    20799343.875   -83014116.748 9 107683687.278 8
  21621898.650    21621899.906   -81833695.037 9  79145684.144 9
  23548710.032    23548712.669    -3443380.806 9  -5463844.588 9
 89 11 20 14 44 59.0800000  0  4G13G12G 3G 9
  21094997.526    21094999.918   -39507661.640 9  13533488.334 7
  20808198.630    20808202.483   -82967575.394 9 107719953.187 8
  21615297.590    21615299.096   -81868386.326 9  79118651.943 8
  23571545.814    23571549.182    -3323375.267 9  -5370333.992 8
 89 11 20 14 45 29.0800000  0  4G13G12G 3G 9
  21102499.407    21102501.425   -39468244.261 9  13564203.099 6
  20817166.662    20817170.063   -82920447.749 9 107756675.954 8
  21608737.920    21608740.849   -81902852.875 9  79091794.850 8
  23594414.578    23594417.247    -3203203.454 9  -5276693.812 9
 89 11 20 14 45 59.0800000  0  4G13G12G 3G 9
  21110027.301    21110030.149   -39428684.476 9  13595028.834 6
  20826246.469    20826248.898   -82872735.349 9 107793854.374 7
  21602221.900    21602223.721   -81937095.440 9  79065112.271 8
  23617313.317    23617317.335    -3082868.639 8  -5182926.623 8
 89 11 20 14 46 29.0800000  0  4G13G12G 3G 9
  21117582.067    21117584.429   -39388983.810 9  13625964.341 9
  20835436.132    20835440.757   -82824439.775 9 107831487.218 8
  21595748.771    21595751.115   -81971114.390 9  79038603.969 8
  23640240.331    23640245.722    -2962373.906 7  -5089034.856 7
 89 11 20 14 46 59.0800000  0  4G13G12G 3G 9
  21125163.092    21125166.297   -39349142.905 8  13657009.118 6
  20844737.872    20844741.109   -82775562.818 9 107869573.079 8
  21589318.584    21589318.274   -82004910.943 9  79012268.955 8
  23663201.326    23663206.692    -2841722.864 8  -4995021.274 7
 89 11 20 14 47 29.0800000  0  4G13G12G 3G 9
  21132771.132    21132773.150   -39309163.046 9  13688162.176 8
  20854149.099    20854152.664   -82726106.597 9 107908110.317 8
  21582928.835    21582930.493   -82038485.620 9  78986106.828 8
  23686189.898    23686195.743    -2720918.292 8  -4900888.054 8
 89 11 20 14 47 59.0800000  0  4G13G12G 3G 9
  21140405.357    21140408.020   -39269045.977 9  13719422.151 7
  20863670.595    20863673.088   -82676072.556 9 107947097.800 8
  21576581.550    21576583.214   -82071839.055 9  78960117.104 7
  23709207.081    23709211.432    -2599963.712 9  -4806637.955 8
 89 11 20 14 48 29.0800000  0  4G13G12G 3G 9
  21148066.040    21148069.047   -39228792.450 9  13750788.447 6
  20873301.449    20873303.753   -82625462.216 9 107986534.350 8
  21570276.654    21570277.832   -82104971.740 9  78934299.398 8
  23732252.024    23732256.113    -2478862.139 9  -4712273.309 8
 89 11 20 14 48 59.0800000  0  4G13G12G 3G 9
  21155750.320    21155755.829   -39188404.089 9  13782259.815 7
  20883041.665    20883044.499   -82574277.500 9 108026418.454 7
  21564013.378    21564015.829   -82137884.753 9  78908652.843 8
  23755323.729    23755329.182    -2357616.959 9  -4617796.751 7
 89 11 20 14 49 29.0800000  0  4G13G12G 3G 9
  21163462.202    21163465.165   -39147881.463 9  13813835.797 8
  20892890.993    20892893.550   -82522520.481 9 108066748.520 8
  21557792.793    21557794.149   -82170578.428 9  78883177.211 8
  23778423.863    23778428.213    -2236231.460 9  -4523210.838 8
 89 11 20 14 49 59.0800000  0  4G13G12G 3G 9
  21171199.339    21171201.001   -39107226.480 9  13845514.928 7
  20902848.981    20902850.218   -82470193.007 9 108107523.104 8
  21551612.323    21551614.324   -82203053.758 9  78857871.719 7
  23801548.944    23801553.145    -2114708.585 9  -4428517.899 8
 89 11 20 14 50 29.0800000  0  4G13G12G 3G 9
  21178961.203    21178962.306   -39066440.248 9  13877296.314 8
  20912913.629    20912916.209   -82417297.024 9 108148740.661 7
  21545473.614    21545475.402   -82235311.332 9  78832735.918 8
  23824699.449    23824703.891    -1993051.695 9  -4333720.541 8
 89 11 20 14 50 59.0800000  0  4G13G12G 3G 9
  21186747.148    21186748.251   -39025523.676 9  13909179.262 8
  20923087.768    20923090.327   -82363834.725 9 108190399.505 8
  21539376.439    21539378.040   -82267351.792 9  78807769.285 7
  23847875.307    23847879.809    -1871263.895 9  -4238821.168 9
 89 11 20 14 51 29.0800000  0  4G13G12G 3G 9
  21194557.205    21194560.670   -38984478.273 9  13941162.609 7
  20933369.029    20933373.332   -82309807.473 9 108232498.588 8
  21533320.903    21533322.617   -82299175.862 9  78782971.268 7
  23871075.034    23871079.528    -1749348.636 8  -4143822.518 8
 89 11 20 14 51 59.0800000  0  4G13G12G 3G 9
  21202392.790    21202395.181   -38943304.881 9  13973245.716 8
  20943757.122    20943760.736   -82255217.246 9 108275036.339 8
  21527306.062    21527308.264   -82330784.287 9  78758341.294 8
  23894299.082    23894303.631    -1627308.904 8  -4048726.867 8
 89 11 20 14 52 29.0800000  0  4G13G12G 3G 9
  21210252.458    21210254.504   -38902005.113 9  14005427.265 8
  20954252.957    20954255.131   -82200065.979 9 108318011.265 8
  21521333.398    21521334.275   -82362177.851 9  78733878.732 8
  23917545.776    23917549.708    -1505147.925 9  -3953536.748 9
 89 11 20 14 52 59.0800000  0  4G13G12G 3G 9
  21218134.318    21218136.150   -38860580.052 9  14037706.451 8
  20964854.565    20964855.531   -82144356.013 9 108361421.544 8
  21515398.675    21515400.739   -82393357.240 9  78709583.064 7
  23940814.000    23940817.965    -1382868.941 8  -3858254.677 8
 89 11 20 14 53 29.0800000  0  4G13G12G 3G 9
  21226040.704    21226043.897   -38819031.083 9  14070082.187 7
  20975561.532    20975563.514   -82088089.499 9 108405265.501 8
  21509506.199    21509508.036   -82424322.920 9  78685453.939 7
  23964105.513    23964110.614    -1260475.279 9  -3762883.253 9
 89 11 20 14 53 59.0800000  0  4G13G12G 3G 9
  21233971.932    21233976.655   -38777358.666 9  14102554.115 7
  20986373.185    20986376.469   -82031268.036 9 108449541.871 8
  21503653.925    21503656.490   -82455075.811 9  78661490.603 8
  23987417.826    23987422.148    -1137970.151 9  -3667424.946 8
 89 11 20 14 54 29.0800000  0  4G13G12G 3G 9
  21241925.267    21241928.731   -38735563.760 9  14135121.505 9
  20997291.002    20997295.065   -81973893.883 9 108494248.906 7
  21497842.697    21497844.597   -82485616.638 9  78637692.502 7
  24010750.388    24010755.478    -1015356.460 9  -3571882.051 7
 89 11 20 14 54 59.0800000  0  4G13G12G 3G 9
  21249901.926    21249904.102   -38693647.942 9  14167783.096 8
  21008314.549    21008317.446   -81915969.211 9 108539384.934 7
  21492070.605    21492073.065   -82515945.957 9  78614059.227 8
  24034103.837    24034108.324     -892637.611 9  -3476257.226 8
 89 11 20 14 55 29.0800000  0  4G13G12G 3G 9
  21257899.505    21257903.025   -38651612.445 9  14200537.945 7
  21019442.187    21019444.684   -81857496.232 9 108584948.199 9
  21486339.215    21486341.659   -82546064.623 9  78590590.081 8
  24057475.409    24057480.546     -769816.677 9  -3380552.820 7
 89 11 20 14 55 59.0800000  0  4G13G12G 3G 9
  21265921.123    21265923.785   -38609458.145 9  14233385.381 8
  21030672.592    21030675.207   -81798476.705 9 108630937.362 9
  21480647.398    21480650.912   -82575973.259 8  78567284.611 8
  24080866.238    24080871.053     -646896.975 9  -3284771.461 8
 89 11 20 14 56 29.0800000  0  4G13G12G 3G 9
  21273965.723    21273970.216   -38567185.757 9  14266324.819 7
  21042007.957    21042011.144   -81738912.860 9 108677350.647 8
  21474996.379    21474999.627   -82605672.463 9  78544142.328 8
  24104275.525    24104280.298     -523881.633 9  -3188915.591 7
 89 11 20 14 56 59.0800000  0  4G13G12G 3G 9
  21282033.489    21282037.538   -38524796.662 9  14299355.208 8
  21053445.076    21053447.995   -81678806.931 9 108724186.348 9
  21469384.431    21469386.725   -82635162.849 9  78521162.748 8
  24127701.905    24127708.810     -400773.748 9  -3092987.609 7
 89 11 20 14 57 29.0800000  0  4G13G12G 3G 9
  21290121.001    21290125.123   -38482292.184 9  14332475.514 7
  21064986.171    21064989.380   -81618161.414 9 108771442.511 9
  21463812.381    21463813.986   -82664445.637 9  78498344.943 7
  24151146.625    24151151.928     -277576.720 9  -2996990.166 8
 89 11 20 14 57 59.0800000  0  4G13G12G 3G 9
  21298231.050    21298234.570   -38439673.154 9  14365685.064 8
  21076628.480    21076632.454   -81556978.285 9 108819117.572 8
  21458279.171    21458281.246   -82693521.108 9  78475688.689 7
  24174607.411    24174611.397     -154293.544 9  -2900925.602 7
 89 11 20 14 58 29.0800000  0  4G13G12G 3G 9
  21306362.892    21306365.653   -38396940.688 9  14398983.028 7
  21088373.077    21088376.680   -81495260.044 9 108867209.634 7
  21452786.494    21452788.830   -82722390.120 9  78453193.314 8
  24198083.319    24198086.142      -30927.337 9  -2804796.367 7
 89 11 20 14 58 59.0800000  0  4G13G12G 3G 9
  21314516.670    21314519.633   -38354096.301 9  14432368.180 8
  21100218.506    21100223.253   -81433008.841 9 108915716.967 8
  21447331.872    21447334.263   -82751053.180 9  78430858.423 7
  24221574.057    24221578.562       92518.574 8  -2708605.010 6
 89 11 20 14 59 29.0800000  0  4G13G12G 3G 9
  21322690.996    21322692.643   -38311140.319 9  14465840.269 7
  21112165.915    21112168.952   -81370227.297 9 108964637.551 8
  21441915.692    21441918.444   -82779511.110 9  78408683.363 7
  24245079.525    24245086.726      216041.040 8  -2612354.002 8
 89 11 20 14 59 59.0800000  0  4G13G12G 3G 9
  21330884.096    21330889.863   -38268074.253 9  14499398.171 8
  21124213.774    21124216.575   -81306917.594 9 109013969.688 8
  21436540.011    21436542.126   -82807764.584 9  78386667.626 8
  24268596.897    24268604.191      339637.032 7  -2516045.741 9
 89 11 20 15  0 29.0800000  0  4G13G12G 3G 9
  21339100.649    21339105.944   -38224898.764 9  14533041.312 8
  21136361.926    21136364.978   -81243082.107 9 109063711.527 8
  21431202.536    21431204.169   -82835814.303 9  78364810.666 8
  24292130.753    24292138.967      463303.330 6  -2419682.704 8
 89 11 20 15  0 59.0800000  0  4G13G12G 3G 9
  21347338.565    21347342.258   -38181614.937 9  14566768.900 8
  21148608.449    21148611.951   -81178722.783 9 109113861.564 8
  21425903.634    21425905.502   -82863661.183 9  78343111.762 8
  24315676.965    24315683.558      587036.706 8  -2323267.290 9
 89 11 20 15  1 29.0800000  0  4G13G12G 3G 9
  21355596.443    21355597.774   -38138223.747 8  14600580.127 7
  21160954.877    21160958.078   -81113842.031 9 109164417.897 8
  21420642.791    21420645.383   -82891305.580 9  78321570.617 7
  24339237.228    24339240.928      710834.050 8  -2226802.114 8
 89 11 20 15  1 59.0800000  0  4G13G12G 3G 9
  21363873.710    21363875.784   -38094726.409 9  14634474.061 7
  21173400.453    21173404.076   -81048442.163 9 109215378.741 8
  21415420.722    21415422.300   -82918748.338 9  78300186.605 7
  24362806.575    24362812.066      834692.343 9  -2130289.478 9
 89 11 20 15  2 29.0800000  0  4G13G12G 3G 9
  21372169.836    21372173.285   -38051123.458 9  14668450.291 8
  21185943.475    21185947.336   -80982525.606 9 109266742.191 8
  21410236.849    21410238.638   -82945989.828 9  78278959.421 8
  24386386.503    24386392.753      958608.399 9  -2033731.788 8
 89 11 20 15  2 59.0800000  0  4G13G12G 3G 9
  21380486.037    21380490.990   -38007416.298 9  14702507.733 8
  21198584.994    21198589.612   -80916094.869 9 109318506.304 8
  21405090.835    21405092.938   -82973031.259 9  78257888.137 7
  24409976.344    24409983.950     1082578.928 9  -1937131.697 8
 89 11 20 15  3 29.0800000  0  4G13G12G 3G 9
  21388824.548    21388829.069   -37963605.494 9  14736645.930 8
  21211323.502    21211327.541   -80849152.649 9 109370668.980 8
  21399983.468    21399985.593   -82999873.288 9  78236972.224 7
  24433580.308    24433584.880     1206600.952 8  -1840491.308 9
 89 11 20 15  3 59.0800000  0  4G13G12G 3G 9
  21397181.130    21397184.893   -37919692.384 9  14770863.864 8
  21224159.734    21224162.163   -80781701.470 9 109423228.260 8
  21394913.599    21394915.625   -83026516.157 9  78216211.496 7
  24457189.674    24457192.880     1330671.460 9  -1743813.309 6
 89 11 20 15  4 29.0800000  0  4G13G12G 3G 9
  21405555.871    21405559.405   -37875677.593 9  14805161.000 8
  21237091.616    21237095.919   -80713743.603 9 109476182.355 7
  21389880.727    21389882.581   -83052960.826 9  78195605.217 8
  24480807.374    24480814.391     1454787.129 9  -1647100.134 8
 89 11 20 15  4 59.0800000  0  4G13G12G 3G 9
  21413950.601    21413954.437   -37831561.969 9  14839536.703 7
  21250119.842    21250123.286   -80645281.436 9 109529529.391 8
  21384885.828    21384888.816   -83079207.941 9  78175152.868 7
  24504433.764    24504439.005     1578945.038 8  -1550353.833 5
 89 11 20 15  5 29.0800000  0  4G13G12G 3G 9
  21422364.807    21422369.301   -37787346.586 9  14873990.159 8
  21263242.908    21263246.204   -80576317.732 9 109583267.251 9
  21379929.412    21379931.811   -83105258.362 9  78154853.799 7
  24528069.731    24528075.734     1703141.896 9  -1453577.386 7
 89 11 20 15  5 59.0800000  0  4G13G12G 3G 9
  21430798.687    21430802.166   -37743032.409 9  14908520.597 8
  21276461.010    21276465.070   -80506855.085 9 109637393.897 7
  21375009.266    21375013.005   -83131112.477 9  78134707.695 6
  24551709.600    24551713.845     1827374.647 9  -1356772.903 7
 89 11 20 15  6 29.0800000  0  4G13G12G 3G 9
  21439250.684    21439253.632   -37698620.494 9  14943127.178 8
  21289773.766    21289778.140   -80436896.090 9 109691907.304 8
  21370126.733    21370129.627   -83156770.996 9  78114713.993 7
  24575350.691    24575361.551     1951640.256 3  -1259943.003 7
 89 11 20 15  6 59.0800000  0  4G13G12G 3G 9
  21447719.793    21447723.644   -37654111.670 9  14977809.273 8
  21303180.062    21303184.951   -80366443.128 9 109746805.610 8
  21365281.585    21365283.757   -83182234.752 9  78094872.060 7
  24599011.178    24599015.380     2075935.242 8  -1163089.827 9
 89 11 20 15  7 29.0800000  0  4G13G12G 3G 9
  21456207.290    21456211.397   -37609507.048 9  15012566.025 7
  21316681.291    21316684.365   -80295498.711 9 109802086.886 8
  21360472.681    21360475.426   -83207504.259 9  78075181.487 8
  24622667.929    24622672.985     2200257.274 9  -1066216.044 7
 89 11 20 15  7 59.0800000  0  4G13G12G 3G 9
  21464713.247    21464717.383   -37564807.020 9  15047397.113 8
  21330274.966    21330278.754   -80224065.735 9 109857748.860 8
  21355702.282    21355703.267   -83232580.312 9  78055641.653 7
  24646328.951    24646335.480     2324602.776 7   -969323.705 9
 89 11 20 15  8 29.0800000  0  4G13G12G 3G 9
  21473237.748    21473241.713   -37520012.730 9  15082301.657 8
  21343961.136    21343964.208   -80152146.530 9 109913789.704 8
  21350965.693    21350967.858   -83257463.458 9  78036252.138 8
  24669996.076    24670000.416     2448968.285 9   -872415.756 8
 89 11 20 15  8 59.0800000  0  4G13G12G 3G 9
  21481780.893    21481784.127   -37475124.784 9  15117279.169 7
  21357738.490    21357743.380   -80079743.947 9 109970207.207 7
  21346268.027    21346270.525   -83282154.507 9  78017012.308 8
  24693666.031    24693672.227     2573351.454 9   -775494.049 9
 89 11 20 15  9 29.0800000  0  4G13G12G 3G 9
  21490340.723    21490344.087   -37430143.976 9  15152329.033 7
  21371608.188    21371610.832   -80006860.666 9 110026999.270 8
  21341605.270    21341608.078   -83306654.020 9  77997921.726 8
  24717336.593    24717342.959     2697749.013 8   -678561.324 7
 89 11 20 15  9 59.0800000  0  4G13G12G 3G 9
  21498916.508    21498920.330   -37385071.227 9  15187450.562 8
  21385568.079    21385571.983   -79933499.214 9 110084163.962 8
  21336979.658    21336981.921   -83330962.578 9  77978979.944 8
  24741012.814    24741019.063     2822157.610 9   -581619.621 9
 89 11 20 15 10 29.0800000  0  4G13G12G 3G 9
  21507510.194    21507515.060   -37339907.236 9  15222643.166 8
  21399618.353    21399621.683   -79859662.346 9 110141699.086 7
  21332390.253    21332393.391   -83355080.930 9  77960186.376 8
  24764687.996    24764694.501     2946574.517 9   -484671.862 8
 89 11 20 15 10 59.0800000  0  4G13G12G 3G 9
  21516123.411    21516126.390   -37294653.021 9  15257906.085 7
  21413758.739    21413762.756   -79785352.900 9 110199602.456 8
  21327836.735    21327838.778   -83379009.761 9  77941540.498 8
  24788361.546    24788372.257     3070996.615 7   -387719.801 9
 89 11 20 15 11 29.0800000  0  4G13G12G 3G 9
  21524752.584    21524755.919   -37249309.553 9  15293238.548 6
  21427989.938    21427993.633   -79710573.635 9 110257871.904 9
  21323319.073    21323321.568   -83402749.597 9  77923041.874 7
  24812042.497    24812048.701     3195420.693 9   -290766.297 7
 89 11 20 15 11 59.0800000  0  4G13G12G 3G 9
  21533397.583    21533399.358   -37203877.567 9  15328639.991 6
  21442308.924    21442312.863   -79635327.358 9 110316505.277 8
  21318837.173    21318840.159   -83426301.403 9  77904689.770 7
  24835719.495    24835725.978     3319843.940 9   -193813.414 9
 89 11 20 15 12 29.0800000  0  4G13G12G 3G 9
  21542058.279    21542063.946   -37158357.015 9  15364110.431 7
  21456716.627    21456718.864   -79559616.803 9 110375500.419 9
  21314391.088    21314391.903   -83449665.657 9  77886483.809 8
  24859394.883    24859401.040     3444263.069 6    -96863.709 6
 89 11 20 15 12 59.0800000  0  4G13G12G 3G 9
  21550736.846    21550742.498   -37112749.351 9  15399648.773 7
  21471211.367    21471215.712   -79483444.352 9 110434855.480 8
  21309981.109    21309983.188   -83472843.069 9  77868423.436 7
  24883070.153    24883078.997     3568675.164 9        80.506 7
 89 11 20 15 13 29.0800000  0  4G13G12G 3G 9
  21559432.814    21559437.910   -37067055.748 9  15435254.091 7
  21485793.699    21485797.823   -79406812.895 9 110494568.211 8
  21305605.743    21305608.445   -83495833.896 9  77850508.450 8
  24906744.958    24906751.499     3693077.334 7     97016.757 6
 89 11 20 15 13 59.0800000  0  4G13G12G 3G 9
  21568145.838    21568147.771   -37021276.749 9  15470925.941 8
  21500462.896    21500467.027   -79329725.334 9 110554636.323 8
  21301265.800    21301268.339   -83518638.961 9  77832738.210 8
  24930413.997    24930422.165     3817466.142 8    193942.933 7
 89 11 20 15 14 29.0800000  0  4G13G12G 3G 9
  21576873.844    21576876.950   -36975412.543 9  15506664.197 7
  21515219.420    21515223.344   -79252184.650 9 110615057.525 8
  21296961.839    21296963.196   -83541259.086 9  77815112.090 7
  24954082.492    24954089.207     3941839.091 9    290856.440 8
 89 11 20 15 14 59.0800000  0  4G13G12G 3G 9
  21585617.505    21585619.238   -36929464.429 9  15542467.823 8
  21530060.070    21530063.121   -79174193.871 9 110675829.467 9
  21292692.827    21292694.940   -83563694.975 9  77797629.523 7
  24977745.565    24977752.906     4066192.563 8    387755.068 5
 89 11 20 15 15 29.0800000  0  4G13G12G 3G 9
  21594374.917    21594380.155   -36883432.969 8  15578336.386 7
  21544986.817    21544990.097   -79095755.676 8 110736950.046 8
  21288457.307    21288459.847   -83585947.011 9  77780290.207 8
  25001405.109    25001414.741     4190524.304 7    484636.494 7
 89 11 20 15 15 59.0800000  0  4G13G12G 3G 9
  21603149.986    21603156.211   -36837318.726 9  15614269.449 7
  21559996.973    21560001.521   -79016872.843 9 110798417.082 8
  21284258.241    21284260.893   -83608015.931 9  77763093.589 7
  25025059.399    25025065.570     4314830.662 7    581498.315 1
 89 11 20 15 16 29.0800000  0  4G13G12G 3G 9
  21611941.639    21611946.835   -36791122.511 9  15650266.388 7
  21575091.804    21575096.580   -78937548.329 9 110860228.295 8
  21280093.862    21280096.624   -83629902.175 9  77746039.316 7
  25048710.304    25048718.390     4439109.018 9    678338.268 8
 89 11 20 15 16 59.0800000  0  4G13G12G 3G 9
  21620749.060    21620753.341   -36744845.250 8  15686326.501 7
  21590270.358    21590275.455   -78857784.985 9 110922381.446 8
  21275962.687    21275965.717   -83651606.523 9  77729126.791 7
  25072353.754    25072360.889     4563356.171 9    775153.839 8
 89 11 20 15 17 29.0800000  0  4G13G12G 3G 9
  21629571.207    21629574.099   -36698487.207 9  15722449.558 8
  21605532.205    21605536.895   -78777585.905 9 110984874.133 9
  21271866.720    21271870.381   -83673129.531 9  77712355.568 8
  25095991.087    25095999.785     4687569.461 9    871943.071 8
 89 11 20 15 17 59.0800000  0  4G13G12G 3G 9
  21638407.205    21638410.626   -36652049.451 8  15758634.710 8
  21620874.957    21620880.334   -78696953.989 9 111047704.097 8
  21267807.438    21267810.841   -83694471.644 9  77695725.298 8
  25119621.707    25119629.856     4811745.544 9    968703.245 9
 89 11 20 15 18 29.0800000  0  4G13G12G 3G 9
  21647258.141    21647262.464   -36605532.289 9  15794881.738 7
  21636301.610    21636306.372   -78615892.064 9 111110869.133 8
  21263779.078    21263782.628   -83715633.723 9  77679235.316 8
  25143245.063    25143252.501     4935881.606 9   1065432.213 9
 89 11 20 15 18 59.0800000  0  3G13G12G 3
  21656126.119    21656128.042   -36558936.217 1  15831190.256 1
  21651808.617    21651813.442   -78534403.049 8 111174366.969 8
  21259786.424    21259789.141   -83736616.375 9  77662885.152 7
 89 11 20 15 19 29.0800000  0  3G13G12G 3
  21665008.196    21665012.805   -36512261.977 9  15867559.701 7
  21667395.534    21667400.002   -78452490.057 9 111238195.177 7
  21255828.461    21255830.230   -83757420.091 9  77646674.420 7
 89 11 20 15 19 59.0800000  0  3G13G12G 3
  21673905.652    21673909.121   -36465510.436 9  15903989.378 8
  21683063.362    21683068.560   -78370155.705 9 111302351.721 8
  21251903.336    21251906.678   -83778045.482 9  77630602.639 8
 89 11 20 15 20 29.0800000  0  3G13G12G 3
  21682816.513    21682820.380   -36418682.352 9  15940478.681 7
  21698811.500    21698815.252   -78287402.831 8 111366834.369 9
  21248012.236    21248014.590   -83798492.952 9  77614669.485 7
 89 11 20 15 20 59.0800000  0  3G13G12G 3
  21691742.321    21691747.637   -36371778.244 9  15977027.241 7
  21714637.430    21714642.757   -78204234.877 9 111431640.470 8
  21244154.907    21244158.006   -83818763.592 9  77598874.118 8
 89 11 20 15 21 29.0800000  0  3G13G12G 3
  21700681.314    21700685.149   -36324798.793 8  16013634.521 8
  21730542.855    21730546.901   -78120654.820 9 111496767.697 7
  21240331.290    21240333.859   -83838857.488 9  77583216.465 7
 89 11 20 15 21 59.0800000  0  3G13G12G 3
  21709634.786    21709639.770   -36277744.355 9  16050300.213 8
  21746525.192    21746529.440   -78036665.585 9 111562213.751 8
  21236541.185    21236543.140   -83858775.375 9  77567695.997 8
 89 11 20 15 22 29.0800000  0  3G13G12G 3
  21718603.697    21718607.794   -36230615.657 9  16087023.767 7
  21762585.350    21762589.682   -77952270.622 9 111627975.952 8
  21232784.335    21232787.577   -83878517.695 8  77552312.297 7
 89 11 20 15 22 59.0800000  0  3G13G12G 3
  21727586.354    21727591.227   -36183413.376 9  16123804.667 7
  21778721.489    21778726.093   -77867473.022 9 111694051.918 8
  21229060.167    21229062.938   -83898085.524 9  77537064.607 7
 89 11 20 15 23 29.0800000  0  3G13G12G 3
  21736582.933    21736587.008   -36136137.724 9  16160642.723 8
  21794934.833    21794938.672   -77782275.535 9 111760439.463 8
  21225369.770    21225373.055   -83917478.897 8  77521952.818 8
 89 11 20 15 23 59.0800000  0  3G13G12G 3
  21745591.978    21745598.901   -36088789.508 9  16197537.321 7
  21811222.937    21811226.817   -77696681.516 9 111827135.997 8
  21221712.397    21221716.240   -83936698.782 9  77506976.227 8
 89 11 20 15 24 29.0800000  0  3G13G12G 3
  21754616.232    21754622.224   -36041369.314 9  16234488.008 7
  21827586.233    21827590.165   -77610693.977 9 111894139.172 8
  21218088.536    21218091.192   -83955745.360 9  77492134.677 7
 89 11 20 15 24 59.0800000  0  3G13G12G 3
  21763654.379    21763660.011   -35993877.693 9  16271494.376 8
  21844022.358    21844026.604   -77524316.212 9 111961446.404 7
  21214497.073    21214498.869   -83974619.488 9  77477427.506 7
 89 11 20 15 25 29.0800000  0  3G13G12G 3
  21772705.068    21772710.478   -35946314.548 9  16308556.481 7
  21860534.013    21860538.245   -77437551.049 9 112029055.506 8
  21210938.374    21210939.672   -83993321.700 9  77462854.281 7
 89 11 20 15 25 59.0800000  0  3G13G12G 3
  21781769.651    21781773.445   -35898680.874 9  16345673.519 7
  21877118.910    21877122.920   -77350401.487 9 112096964.149 8
  21207412.504    21207415.074   -84011852.185 9  77448414.880 7
 89 11 20 15 26 29.0800000  0  3G13G12G 3
  21790848.161    21790851.353   -35850977.734 9  16382844.690 7
  21893774.173    21893778.820   -77262870.832 9 112165169.738 8
  21203917.570    21203919.882   -84030211.873 9  77434108.565 8
 89 11 20 15 26 59.0800000  0  3G13G12G 3
  21799938.487    21799942.905   -35803205.315 9  16420069.836 8
  21910502.512    21910507.338   -77174962.049 8 112233669.981 7
  21200456.577    21200458.674   -84048401.027 9  77419935.145 8
 89 11 20 15 27 29.0800000  0  3G13G12G 3
  21809042.177    21809046.289   -35755364.057 9  16457348.617 8
  21927303.371    21927306.929   -77086678.043 9 112302462.607 8
  21197026.807    21197030.234   -84066420.104 9  77405894.249 7
 89 11 20 15 27 59.0800000  0  3G13G12G 3
  21818159.944    21818163.858   -35707454.034 9  16494680.989 7
  21944173.342    21944177.896   -76998022.307 9 112371544.886 8
  21193631.607    21193634.763   -84084269.654 9  77391985.440 7
 89 11 20 15 28 29.0800000  0  3G13G12G 3
  21827288.876    21827294.769   -35659475.993 8  16532066.354 8
  21961114.073    21961118.019   -76908998.168 9 112440914.236 8
  21190267.630    21190269.627   -84101950.514 9  77378208.092 7
 89 11 20 15 28 59.0800000  0  3G13G12G 3
  21836432.575    21836437.813   -35611430.066 9  16569504.615 7
  21978125.120    21978129.280   -76819608.603 9 112510568.318 8
  21186935.019    21186938.347   -84119463.103 9  77364561.844 8
 89 11 20 15 29 29.0800000  0  3G13G12G 3
  21845587.807    21845593.356   -35563317.412 9  16606994.861 8
  21995204.234    21995209.354   -76729856.476 8 112580504.909 8
  21183634.603    21183637.331   -84136807.604 9  77351046.578 8
 89 11 20 15 29 59.0800000  0  3G13G12G 3
  21854756.196    21854761.699   -35515137.853 9  16644537.235 7
  22012350.030    22012356.637   -76639745.240 9 112650721.322 8
  21180365.868    21180367.780   -84153984.688 9  77337661.787 8
 89 11 20 15 30 29.0800000  0  3G13G12G 3
  21863937.726    21863941.511   -35466892.186 9  16682131.133 7
  22029566.507    22029572.749   -76549278.128 8 112721215.038 9
  21177129.158    21177130.425   -84170994.948 8  77324406.965 8
 89 11 20 15 30 59.0800000  0  3G13G12G 3
  21873130.655    21873135.034   -35418581.070 9  16719776.001 7
  22046850.200    22046854.303   -76458458.271 9 112791983.663 9
  21173922.782    21173926.797   -84187838.679 9  77311281.929 7
 89 11 20 15 31 29.0800000  0  3G13G12G 3
  21882336.373    21882341.584   -35370204.573 8  16757471.829 8
  22064198.563    22064203.762   -76367288.897 8 112863024.604 8
  21170749.233    21170752.017   -84204516.416 9  77298286.238 8
 89 11 20 15 31 59.0800000  0  3G13G12G 3
  21891554.603    21891560.130   -35321762.948 8  16795218.419 8
  22081613.830    22081618.205   -76275773.432 9 112934335.231 8
  21167608.193    21167609.776   -84221028.664 9  77285419.495 7
 89 11 20 15 32 29.0800000  0  3G13G12G 3
  21900785.580    21900789.572   -35273256.337 8  16833015.639 6
  22099093.617    22099098.836   -76183915.188 9 113005912.947 7
  21164496.258    21164499.815   -84237375.974 9  77272681.273 9
 89 11 20 15 32 59.0800000  0  3G13G12G 3
  21910028.126    21910033.654   -35224685.314 9  16870863.044 8
  22116639.441    22116644.003   -76091716.995 9 113077755.561 9
  21161417.864    21161420.892   -84253558.604 9  77260071.392 8
 89 11 20 15 33 29.0800000  0  3G13G12G 3
  21919283.855    21919288.843   -35176050.459 9  16908760.192 8
  22134247.474    22134252.264   -75999182.395 9 113149860.310 9
  21158369.949    21158372.689   -84269577.043 8  77247589.421 7
 89 11 20 15 33 59.0800000  0  3G13G12G 3
  21928550.574    21928556.079   -35127352.219 9  16946706.733 6
  22151919.690    22151924.524   -75906314.763 9 113222224.555 9
  21155352.140    21155354.594   -84285432.018 9  77235234.859 8
 89 11 20 15 34 29.0800000  0  3G13G12G 3
  21937829.728    21937834.193   -35078590.626 8  16984702.643 7
  22169654.309    22169659.880   -75813117.157 9 113294845.946 7
  21152365.352    21152368.795   -84301123.631 9  77223007.570 8
 89 11 20 15 34 59.0800000  0  3G13G12G 3
  21947119.784    21947125.386   -35029766.188 9  17022747.536 8
  22187452.511    22187456.636   -75719592.720 9 113367722.000 8
  21149410.705    21149413.989   -84316652.350 8  77210907.206 7
 89 11 20 15 35 29.0800000  0  3G13G12G 3
  21956423.335    21956429.235   -34980878.991 9  17060841.322 8
  22205311.520    22205315.967   -75625744.917 9 113440850.017 8
  21146487.394    21146489.849   -84332018.632 9  77198933.419 8
 89 11 20 15 35 59.0800000  0  3G13G12G 3
  21965738.315    21965744.086   -34931929.774 9  17098983.437 7
  22223231.022    22223235.834   -75531576.983 9 113514227.506 8
  21143593.675    21143596.630   -84347223.116 9  77187085.714 7
 89 11 20 15 36 29.0800000  0  3G13G12G 3
  21975064.750    21975069.663   -34882918.534 9  17137173.882 7
  22241210.772    22241214.624   -75437092.311 9 113587851.804 8
  21140730.290    21140735.650   -84362266.148 9  77175363.821 8
 89 11 20 15 36 59.0800000  0  3G13G12G 3
  21984403.884    21984409.415   -34833846.104 8  17175412.010 7
  22259250.134    22259255.159   -75342293.833 9 113661720.622 8
  21137898.902    21137903.203   -84377148.027 9  77163767.476 8
 89 11 20 15 37 29.0800000  0  3G13G12G 3
  21993753.728    21993757.081   -34784712.260 9  17213698.008 7
  22277348.757    22277353.211   -75247185.020 9 113735831.242 8
  21135097.763    21135101.219   -84391869.141 9  77152296.439 7
 89 11 20 15 37 59.0800000  0  3G13G12G 3
  22003115.263    22003119.332   -34735517.658 9  17252031.352 8
  22295505.311    22295511.317   -75151769.352 8 113810180.981 9
  21132326.787    21132330.531   -84406429.990 9  77140950.252 8
 89 11 20 15 38 29.0800000  0  3G13G12G 3
  22012487.731    22012493.061   -34686262.373 9  17290411.955 8
  22313720.670    22313724.966   -75056049.926 9 113884767.409 8
  21129587.006    21129589.505   -84420830.920 9  77129728.700 8
 89 11 20 15 38 59.0800000  0  3G13G12G 3
  22021871.699    22021877.322   -34636946.689 8  17328839.647 7
  22331993.573    22331998.776   -74960029.996 9 113959588.000 8
  21126877.274    21126879.557   -84435072.388 8  77118631.381 8
 89 11 20 15 39 29.0800000  0  3G13G12G 3
  22031268.606    22031273.578   -34587570.674 9  17367314.344 6
  22350321.665    22350326.892   -74863713.079 9 114034640.012 8
  21124196.876    21124200.247   -84449154.632 9  77107658.135 7
 89 11 20 15 39 59.0800000  0  3G13G12G 3
  22040676.552    22040682.501   -34538134.753 9  17405835.725 8
  22368705.585    22368711.913   -74767102.820 9 114109920.600 8
  21121547.443    21121551.028   -84463078.250 8  77096808.500 8
 89 11 20 15 40 29.0800000  0  3G13G12G 3
  22050094.720    22050100.129   -34488639.239 8  17444403.548 7
  22387145.083    22387152.320   -74670202.060 8 114185427.555 8
  21118927.859    21118931.043   -84476843.090 9  77086082.584 7
 89 11 20 15 40 59.0800000  0  3G13G12G 3
  22059524.731    22059530.159   -34439084.210 9  17483017.731 8
  22405640.514    22405646.155   -74573014.138 9 114261158.247 9
  21116338.038    21116342.511   -84490450.034 9  77075479.700 8
 89 11 20 15 41 29.0800000  0  3G13G12G 3
  22068966.153    22068970.849   -34389469.789 9  17521678.188 7
  22424187.710    22424193.401   -74475542.897 9 114337109.726 8
  21113780.127    21113782.825   -84503899.245 9  77064999.737 8
 89 11 20 15 41 59.0800000  0  3G13G12G 3
  22078419.035    22078425.614   -34339796.298 8  17560384.679 8
  22442790.417    22442795.544   -74377791.266 9 114413279.653 8
  21111250.404    21111253.417   -84517191.420 9  77054642.139 8
 89 11 20 15 42 29.0800000  0  3G13G12G 3
  22087882.465    22087887.996   -34290064.397 8  17599136.683 7
  22461444.903    22461449.242   -74279762.420 9 114489665.635 8
  21108750.732    21108753.001   -84530326.170 8  77044407.205 8
 89 11 20 15 42 59.0800000  0  3G13G12G 3
  22097357.169    22097363.164   -34240274.101 9  17637934.176 8
  22480150.673    22480156.093   -74181459.877 9 114566264.891 8
  21106280.593    21106284.751   -84543304.430 9  77034294.200 7
 89 11 20 15 43 29.0800000  0  3G13G12G 3
  22106843.605    22106847.647   -34190425.368 9  17676777.205 8
  22498908.814    22498915.414   -74082887.221 9 114643074.627 7
  21103842.077    21103845.634   -84556126.348 9  77024303.026 8
 89 11 20 15 43 59.0800000  0  3G13G12G 3
  22116340.748    22116346.440   -34140517.899 9  17715666.006 8
  22517716.795    22517722.078   -73984047.715 9 114720092.284 8
  21101431.007    21101435.364   -84568791.984 9  77014433.643 8
 89 11 20 15 44 29.0800000  0  3G13G12G 3
  22125849.285    22125854.333   -34090552.527 9  17754599.911 8
  22536575.652    22536581.100   -73884944.411 9 114797315.498 8
  21099051.186    21099055.429   -84581301.946 9  77004685.574 8
 89 11 20 15 44 59.0800000  0  3G13G12G 3
  22135368.256    22135375.504   -34040528.948 8  17793579.183 8
  22555484.254    22555489.430   -73785580.904 9 114874741.453 8
  21096700.474    21096704.288   -84593656.550 9  76995058.517 6
 89 11 20 15 45 29.0800000  0  3G13G12G 3
  22144898.922    22144905.102   -33990447.614 9  17832603.455 8
  22574441.659    22574447.457   -73685960.871 9 114952367.286 9
  21094379.665    21094381.790   -84605856.196 8  76985552.234 8
 89 11 20 15 45 59.0800000  0  3G13G12G 3
  22154439.404    22154445.916   -33940308.692 9  17871672.594 6
  22593447.535    22593453.069   -73586087.325 9 115030190.674 8
  21092085.929    21092090.574   -84617900.898 9  76976166.676 8
 89 11 20 15 46 29.0800000  0  3G13G12G 3
  22163992.268    22163998.525   -33890112.109 9  17910786.666 8
  22612500.839    22612506.158   -73485963.672 9 115108208.964 8
  21089824.190    21089827.504   -84629790.924 9  76966901.667 8
 89 11 20 15 46 59.0800000  0  3G13G12G 3
  22173555.176    22173561.568   -33839858.422 9  17949945.233 7
  22631599.117    22631606.303   -73385593.384 8 115186419.398 8
  21087591.096    21087594.583   -84641526.661 9  76957756.849 7
 89 11 20 15 47 29.0800000  0  3G13G12G 3
  22183128.823    22183135.818   -33789548.033 9  17989147.987 8
  22650744.608    22650751.846   -73284979.996 8 115264819.261 9
  21085387.395    21085390.924   -84653108.552 8  76948731.937 7
 89 11 20 15 47 59.0800000  0  3G13G12G 3
  22192713.807    22192719.760   -33739180.522 9  18028395.267 8
  22669936.454    22669943.706   -73184126.549 8 115343406.191 8
  21083212.741    21083216.484   -84664536.629 9  76939826.872 7
 89 11 20 15 48 29.0800000  0  3G13G12G 3
  22202309.504    22202315.537   -33688756.050 9  18067686.922 8
  22689174.161    22689180.561   -73083036.254 9 115422177.679 7
  21081066.277    21081070.306   -84675811.055 9  76931041.530 8
 89 11 20 15 48 59.0800000  0  3G13G12G 3
  22211915.820    22211921.251   -33638274.077 9  18107023.401 7
  22708456.306    22708463.335   -72981712.762 9 115501130.861 8
  21078950.147    21078954.076   -84686932.366 8  76922375.512 8
 89 11 20 15 49 29.0800000  0  3G13G12G 3
  22221533.235    22221539.487   -33587735.491 9  18146404.022 6
  22727781.556    22727788.335   -72880159.886 9 115580262.800 7
  21076863.895    21076867.524   -84697900.720 8  76913828.673 8
 89 11 20 15 49 59.0800000  0  3G13G12G 3
  22231160.205    22231167.489   -33537139.966 8  18185828.982 7
  22747149.570    22747156.477   -72778380.667 9 115659571.110 8
  21074807.005    21074809.461   -84708716.291 8  76905400.877 8
 89 11 20 15 50 29.0800000  0  3G13G12G 3
  22240799.926    22240806.136   -33486487.701 8  18225298.176 7
  22766559.975    22766566.245   -72676378.608 9 115739053.054 9
  21072776.216    21072781.976   -84719379.297 8  76897091.976 8
 89 11 20 15 50 59.0800000  0  3G13G12G 3
  22250450.219    22250454.863   -33435778.716 9  18264811.543 8
  22786012.770    22786016.987   -72574157.179 9 115818705.923 8
  21070776.708    21070780.364   -84729890.116 8  76888901.664 8
 89 11 20 15 51 29.0800000  0  3G13G12G 3
  22260110.126    22260115.697   -33385013.210 9  18304368.976 7
  22805506.046    22805509.899   -72471719.471 9 115898527.333 8
  21068804.327    21068808.070   -84740248.876 8  76880829.833 7
 89 11 20 15 51 59.0800000  0  3G13G12G 3
  22269781.087    22269786.856   -33334191.493 9  18343970.183 7
  22825039.824    22825046.660   -72369069.010 9 115978514.515 7
  21066862.342    21066866.799   -84750455.592 9  76872876.476 7
 89 11 20 15 52 29.0800000  0  3G13G12G 3
  22279462.890    22279469.909   -33283312.933 8  18383615.682 6
  22844613.984    22844620.226   -72266209.397 9 116058664.688 8
  21064949.288    21064953.188   -84760510.681 8  76865041.274 8
 89 11 20 15 52 59.0800000  0  3G13G12G 3
  22289155.387    22289161.626   -33232378.313 9  18423304.861 8
  22864225.710    22864231.796   -72163144.051 9 116138975.156 8
  21063063.965    21063068.896   -84770414.523 9  76857323.951 8
 89 11 20 15 53 29.0800000  0  3G13G12G 3
  22298858.571    22298865.550   -33181387.332 9  18463037.990 7
  22883876.588    22883883.476   -72059876.234 9 116219443.354 9
  21061208.092    21061212.807   -84780166.897 8  76849724.633 7
 89 11 20 15 53 59.0800000  0  3G13G12G 3
  22308573.024    22308578.859   -33130339.572 8  18502815.327 8
  22903565.428    22903573.596   -71956409.160 9 116300066.852 8
  21059381.723    21059385.695   -84789768.102 8  76842243.116 8
 89 11 20 15 54 29.0800000  0  3G13G12G 3
  22318297.629    22318304.685   -33079235.472 8  18542636.559 8
  22923290.987    22923300.649   -71852746.372 8 116380842.839 9
  21057583.287    21057588.818   -84799218.548 8  76834879.062 7
 89 11 20 15 54 59.0800000  0  3G13G12G 3
  22328031.680    22328039.242   -33028075.028 8  18582501.707 6
  22943054.485    22943063.216   -71748891.382 9 116461768.622 8
  21055814.269    21055819.071   -84808518.119 9  76827632.587 8
 89 11 20 15 55 29.0800000  0  3G13G12G 3
  22337779.781    22337785.534   -32976858.430 8  18622410.581 7
  22962855.244    22962860.593   -71644847.409 9 116542841.637 8
  21054072.070    21054076.712   -84817666.950 8  76820503.607 8
 89 11 20 15 55 59.0800000  0  3G13G12G 3
  22347536.608    22347543.484   -32925585.472 9  18662363.379 7
  22982690.367    22982695.043   -71540617.808 8 116624059.265 9
  21052360.002    21052364.832   -84826665.175 8  76813491.938 8
 89 11 20 15 56 29.0800000  0  3G13G12G 3
  22357305.153    22357310.849   -32874256.218 9  18702360.036 9
  23002558.459    23002566.447   -71436206.097 8 116705418.805 9
  21050676.525    21050680.182   -84835513.168 9  76806597.347 8
 89 11 20 15 56 59.0800000  0  3G13G12G 3
  22367083.028    22367089.915   -32822870.088 7  18742401.003 7
  23022459.982    23022467.993   -71331615.905 8 116786917.468 8
  21049020.865    21049027.484   -84844210.949 8  76799819.784 7
 89 11 20 15 57 29.0800000  0  3G13G12G 3
  22376872.512    22376880.293   -32771426.882 9  18782486.473 7
  23042393.467    23042404.531   -71226850.149 7 116868552.861 7
  21047395.398    21047400.844   -84852758.441 9  76793159.355 7
 89 11 20 15 57 59.0800000  0  3G13G12G 3
  22386672.806    22386680.405   -32719927.422 8  18822615.768 8
  23062366.130    23062375.606   -71121912.589 8 116950322.203 8
  21045798.178    21045801.563   -84861155.917 9  76786615.821 7
 89 11 20 15 58 29.0800000  0  3G13G12G 3
  22396484.508    22396490.694   -32668371.372 9  18862789.137 8
  23082369.937    23082376.123   -71016806.810 9 117032222.651 8
  21044227.315    21044231.486   -84869403.545 8  76780189.023 8
 89 11 20 15 58 59.0800000  0  3G13G12G 3
  22406304.856    22406312.218   -32616758.545 7  18903006.748 8
  23102402.820    23102404.763   -70911536.031 9 117114251.573 7
  21042687.130    21042690.758   -84877501.380 8  76773878.978 8
 89 11 20 15 59 29.0800000  0  3G13G12G 3
  22416138.834    22416146.249   -32565088.883 9  18943268.645 7
  23122466.819    23122473.740   -70806103.495 9 117196406.471 8
  21041175.449    21041178.648   -84885449.402 8  76767685.637 8
 89 11 20 15 59 59.0800000  0  3G13G12G 3
  22425980.586    22425988.922   -32513362.250 9  18983574.964 7
  23142558.827    23142566.737   -70700512.929 9 117278684.675 9
  21039691.300    21039695.643   -84893247.890 9  76761608.823 8
 89 11 20 16  0 29.0800000  0  3G13G12G 3
  22435835.122    22435842.403   -32461578.816 9  19023925.516 8
  23162678.811    23162683.208   -70594767.538 8 117361083.439 7
  21038235.797    21038239.282   -84900897.012 9  76755648.404 8
 89 11 20 16  0 59.0800000  0  3G13G12G 3
  22445700.040    22445707.693   -32409738.137 9  19064320.675 7
  23182831.177    23182840.631   -70488870.447 9 117443600.378 9
  21036808.312    21036811.024   -84908396.594 8  76749804.504 7
 89 11 20 16  1 29.0800000  0  3G13G12G 3
  22455577.103    22455584.559   -32357840.551 8  19104760.187 7
  23203013.532    23203019.725   -70382825.394 9 117526232.765 8
  21035409.674    21035413.618   -84915746.457 9  76744077.256 8
 89 11 20 16  1 59.0800000  0  3G13G12G 3
  22465463.159    22465470.759   -32305886.043 9  19145244.053 7
  23223221.009    23223225.521   -70276635.573 9 117608977.728 7
  21034039.654    21034044.099   -84922946.988 7  76738466.387 9
 89 11 20 16  2 29.0800000  0  3G13G12G 3
  22475361.167    22475369.007   -32253874.071 9  19185772.690 7
  23243454.264    23243463.826   -70170304.583 9 117691832.803 9
  21032697.394    21032702.253   -84929998.382 8  76732971.714 8
 89 11 20 16  2 59.0800000  0  3G13G12G 3
  22485270.397    22485275.625   -32201804.776 9  19226345.995 8
  23263713.154    23263721.765   -70063835.661 9 117774795.435 8
  21031385.185    21031387.696   -84936900.363 9  76727593.475 8
 89 11 20 16  3 29.0800000  0  3G13G12G 3
  22495189.959    22495195.782   -32149677.574 9  19266964.431 7
  23284001.914    23284009.216   -69957232.214 9 117857862.702 8
  21030100.018    21030103.531   -84943652.898 9  76722331.690 7
 89 11 20 16  3 59.0800000  0  3G13G12G 3
  22505119.336    22505126.327   -32097492.787 9  19307627.756 7
  23304312.961    23304320.849   -69850497.692 9 117941032.240 9
  21028843.271    21028846.541   -84950256.426 9  76717186.007 8
 89 11 20 16  4 29.0800000  0  3G13G12G 3
  22515062.747    22515068.361   -32045250.018 9  19348336.234 7
  23324646.687    23324654.247   -69743635.180 8 118024301.334 7
  21027613.252    21027619.314   -84956710.630 9  76712156.675 7
 89 11 20 16  4 59.0800000  0  3G13G12G 3
  22525014.418    22525020.065   -31992949.037 9  19389090.086 8
  23345003.759    23345015.784   -69636648.451 6 118107667.502 9
  21026414.800    21026420.788   -84963015.457 8  76707243.754 8
 89 11 20 16  5 29.0800000  0  3G13G12G 3
  22534977.979    22534985.124   -31940589.813 9  19429889.340 7
  23365391.253    23365393.440   -69529540.619 9 118191127.877 8
  21025245.452    21025248.851   -84969171.225 8  76702446.998 7
 89 11 20 16  5 59.0800000  0  3G13G12G 3
  22544952.667    22544960.587   -31888172.433 9  19470733.915 8
                  23385802.290                   118274679.715 9
  21024100.917    21024105.059   -84975177.736 9  76697766.508 8
 89 11 20 16  6 29.0800000  0  3G13G12G 3
  22554938.674    22554946.222   -31835696.511 7  19511624.091 7
  23406220.535    23406225.347   -69488734.053 7 118358320.313 7
  21022986.396    21022990.805   -84981035.007 9  76693202.324 7
 89 11 20 16  6 59.0800000  0  3G13G12G 3
  22564935.043    22564942.626   -31783162.490 9  19552559.543 8
  23426668.437    23426676.338   -69381284.952 8 118442046.752 9
  21021899.712    21021904.577   -84986743.100 9  76688754.408 8
 89 11 20 16  7 29.0800000  0  3G13G12G 3
  22574942.733    22574951.093   -31730569.524 8  19593540.921 8
  23447135.018    23447139.703   -69273728.376 9 118525856.782 7
  21020840.460    21020846.203   -84992302.079 8  76684422.669 8
 89 11 20 16  7 59.0800000  0  3G13G12G 3
  22584962.556    22584971.952   -31677917.170 9  19634568.574 7
  23467620.763    23467631.154   -69166067.766 9 118609747.751 9
  21019812.435    21019817.688   -84997711.299 8  76680207.633 7
 89 11 20 16  8 29.0800000  0  3G13G12G 3
  22594993.415    22595001.772   -31625205.835 8  19675642.187 7
  23488126.871    23488133.894   -69058306.357 9 118693717.511 7
  21018812.696    21018816.880   -85002971.198 9  76676108.954 8
 89 11 20 16  8 59.0800000  0  3G13G12G 3
  22605035.933    22605045.201   -31572434.982 9  19716762.172 9
  23508651.404    23508662.789   -68950447.691 9 118777762.828 9
  21017840.908    21017844.541   -85008081.653 9  76672126.722 8
 89 11 20 16  9 29.0800000  0  3G13G12G 3
  22615088.853    22615096.881   -31519604.436 9  19757928.682 7
  23529195.774    23529202.969   -68842495.241 9 118861881.462 6
  21016896.006    21016900.933   -85013042.566 9  76668260.998 8
 89 11 20 16  9 59.0800000  0  3G13G12G 3
  22625153.353    22625162.173   -31466713.646 8  19799142.107 8
  23549757.339    23549765.874   -68734451.888 9 118946070.697 8
  21015980.170    21015985.118   -85017853.609 9  76664512.084 8
 89 11 20 16 10 29.0800000  0  3G13G12G 3
  22635230.137    22635238.563   -31413762.784 8  19840402.335 8
  23570330.848    23570340.060   -68626320.959 7 119030328.236 8
  21015093.830    21015098.673   -85022514.640 9  76660880.057 8
 89 11 20 16 10 59.0800000  0  3G13G12G 3
  22645317.826    22645326.366   -31360751.656 8  19881709.556 7
  23590928.758    23590934.054   -68518106.312 9 119114651.180 9
  21014234.323    21014238.311   -85027026.103 9  76657364.581 8
 89 11 20 16 11 29.0800000  0  3G13G12G 3
  22655417.541    22655426.811   -31307680.359 7  19923063.639 7
  23611534.968    23611541.475   -68409810.461 9 119199037.099 8
  21013404.167    21013410.418   -85031387.566 9  76653965.981 8
 89 11 20 16 11 59.0800000  0  3G13G12G 3
  22665529.029    22665536.324   -31254547.834 8  19964465.445 7
  23632155.544    23632165.586   -68301438.166 5 119283483.372 9
  21012602.536    21012608.099   -85035598.775 9  76650684.469 8
 89 11 20 16 12 29.0800000  0  3G13G12G 3
  22675651.576    22675658.510   -31201353.925 8  20005915.063 7
  23652796.029    23652802.270   -68192991.646 9 119367987.021 8
  21011831.015    21011835.687   -85039659.924 8  76647519.895 9
 89 11 20 16 12 59.0800000  0  3G13G12G 3
  22685786.588    22685793.316   -31148098.933 9  20047412.277 7
  23673445.414    23673453.859   -68084474.487 9 119452545.425 8
  21011086.816    21011091.782   -85043571.010 9  76644472.248 8
 89 11 20 16 13 29.0800000  0  3G13G12G 3
  22695932.090    22695939.912   -31094782.406 9  20088957.450 8
  23694104.282    23694116.275   -67975890.084 8 119537156.325 8
  21010370.588    21010374.962   -85047331.399 9  76641542.035 8
 89 11 20 16 13 59.0800000  0  3G13G12G 3
  22706088.885    22706098.775   -31041403.845 9  20130550.950 7
  23714782.782    23714791.565   -67867241.407 9 119621817.325 9
  21009684.592    21009689.178   -85050941.081 8  76638729.242 8
 89 11 20 16 14 29.0800000  0  3G13G12G 3
  22716259.061    22716267.345   -30987963.361 8  20172192.688 8
  23735468.866    23735479.828   -67758532.220 9 119706525.339 9
  21009026.216    21009031.067   -85054400.125 9  76636033.813 8
 89 11 20 16 14 59.0800000  0  3G13G12G 3
  22726441.434    22726447.138   -30934460.479 9  20213883.049 7
  23756166.960    23756175.284   -67649765.799 9 119791278.118 7
  21008397.787    21008401.776   -85057708.213 9  76633456.027 7
 89 11 20 16 15 29.0800000  0  3G13G12G 3
  22736634.235    22736642.386   -30880894.875 9  20255622.284 7
  23776875.032    23776885.608   -67540945.392 9 119876072.860 9
  21007795.500    21007801.278   -85060865.183 9  76630995.985 8
 89 11 20 16 15 59.0800000  0  3G13G12G 3
  22746839.016    22746848.618   -30827266.523 8  20297410.411 7
  23797593.511    23797603.086   -67432073.998 9 119960907.296 6
  21007223.350    21007228.055   -85063870.736 9  76628653.941 8
 89 11 20 16 16 29.0800000  0  3G13G12G 3
  22757056.890    22757065.735   -30773574.759 8  20339247.982 6
  23818319.556    23818330.461   -67323155.562 9 120045778.571 8
  21006680.306    21006685.080   -85066724.843 9  76626429.905 9
 89 11 20 16 16 59.0800000  0  3G13G12G 3
  22767286.086    22767294.731   -30719818.877 9  20381135.482 8
  23839055.950    23839064.414   -67214192.561 9 120130684.336 7
  21006167.022    21006171.726   -85069427.257 8  76624324.050 8
 89 11 20 16 17 29.0800000  0  3G13G12G 3
  22777529.138    22777535.802   -30665999.203 8  20423072.704 7
  23859798.117    23859808.455   -67105188.865 8 120215622.049 5
  21005681.335    21005686.589   -85071977.602 8  76622336.703 7
 89 11 20 16 17 59.0800000  0  3G13G12G 3
  22787781.793    22787788.928   -30612115.541 9  20465059.760 7
  23880549.555    23880558.290   -66996147.244 9 120300589.090 7
  21005222.992    21005230.386   -85074376.025 8  76620467.731 8
 89 11 20 16 18 29.0800000  0  3G13G12G 3
  22798048.471    22798055.865   -30558167.433 8  20507097.060 7
  23901301.576    23901315.658   -66887071.818 6 120385582.593 6
  21004798.374    21004802.121   -85076622.245 9  76618717.346 8
 89 11 20 16 18 59.0800000  0  3G13G12G 3
  22808325.717    22808334.838   -30504154.607 8  20549184.772 6
  23922067.963    23922077.723   -66777965.009 9 120470600.461 8
  21004399.326    21004403.976   -85078715.728 8  76617085.977 8
 89 11 20 16 19 29.0800000  0  3G13G12G 3
  22818616.499    22818625.518   -30450077.069 8  20591322.909 7
  23942831.602    23942845.908   -66668830.245 4 120555640.103 7
  21004030.691    21004035.088   -85080656.358 8  76615573.730 7
 89 11 20 16 19 59.0800000  0  3G13G12G 3
  22828919.537    22828928.294   -30395933.547 8  20633512.471 7
  23963608.597    23963617.785   -66559670.875 9 120640698.973 7
  21003688.648    21003695.303   -85082443.974 9  76614180.708 8
 89 11 20 16 20 29.0800000  0  3G13G12G 3
  22839236.545    22839244.044   -30341723.561 8  20675753.810 8
  23984382.778    23984395.762   -66450490.328 7 120725774.269 8
  21003378.784    21003384.589   -85084078.310 9  76612907.116 8
 89 11 20 16 20 59.0800000  0  3G13G12G 3
  22849564.576    22849572.974   -30287447.486 9  20718046.633 8
  24005165.954    24005175.171   -66341292.016 9 120810863.484 7
  21003097.852    21003101.586   -85085559.093 9  76611753.180 8
 89 11 20 16 21 29.0800000  0  3G13G12G 3
  22859905.461    22859914.586   -30233105.493 9  20760390.851 7
  24025946.974    24025958.667   -66232079.065 9 120895964.067 8
  21002844.241    21002849.094   -85086885.959 9  76610719.178 8
 89 11 20 16 21 59.0800000  0  3G13G12G 3
  22870260.031    22870266.476   -30178696.559 8  20802787.237 7
  24046734.043    24046743.980   -66122854.411 9 120981073.752 7
  21002621.489    21002626.171   -85088058.676 9  76609805.296 8
 89 11 20 16 22 29.0800000  0  3G13G12G 3
  22880626.142    22880634.796   -30124220.460 8  20845235.946 7
  24067519.718    24067530.700   -66013621.329 9 121066190.074 9
  21002428.106    21002433.810   -85089076.978 9  76609011.757 7
 89 11 20 16 22 59.0800000  0  3G13G12G 3
  22891005.089    22891013.824   -30069676.799 8  20887737.283 7
  24088308.141    24088318.870   -65904383.010 9 121151310.363 8
  21002263.429    21002269.481   -85089940.500 9  76608338.803 7
 89 11 20 16 23 29.0800000  0  3G13G12G 3
  22901398.296    22901405.996   -30015065.357 9  20930291.480 8
  24109095.906    24109106.969   -65795143.001 9 121236432.081 8
  21002129.504    21002134.266   -85090649.210 9  76607786.508 8
 89 11 20 16 23 59.0800000  0  3G13G12G 3
  22911803.426    22911811.513   -29960385.212 9  20972899.187 8
  24129882.650    24129894.643   -65685904.104 9 121321552.847 9
  21002024.116    21002028.670   -85091202.506 8  76607355.296 8
 89 11 20 16 24 29.0800000  0  3G13G12G 3
  22922222.191    22922230.742   -29905636.363 9  21015560.432 8
  24150670.186    24150680.419   -65576670.277 9 121406669.687 8
  21001949.479    21001953.456   -85091600.313 9  76607045.263 8
 89 11 20 16 24 59.0800000  0  3G13G12G 3
  22932653.297    22932664.499   -29850818.491 8  21058275.467 7
  24171456.243    24171466.586   -65467444.243 8 121491780.494 6
  21001902.389    21001906.385   -85091842.093 9  76606856.809 8
 89 11 20 16 25 29.0800000  0  3G13G12G 3
  22943098.358    22943107.222   -29795930.857 8  21101044.866 7
  24192238.513    24192248.995   -65358228.874 9 121576882.886 7
  21001885.977    21001890.441   -85091927.303 9  76606790.347 7
 89 11 20 16 25 59.0800000  0  3G13G12G 3
  22953556.827    22953565.210   -29740973.524 9  21143868.568 7
  24213019.782    24213031.202   -65249027.926 8 121661974.166 6
  21001898.869    21001904.953   -85091856.298 9  76606845.621 7
 89 11 20 16 26 29.0800000  0  3G13G12G 3
  22964028.718    22964037.443   -29685946.377 8  21186746.661 7
  24233795.241    24233806.804   -65139844.309 6 121747051.716 3
  21001943.034    21001946.679   -85091628.724 9  76607022.905 8
 89 11 20 16 26 59.0800000  0  3G13G12G 3
  22974512.832    22974522.727   -29630848.598 8  21229679.768 8
  24254569.879    24254579.115   -65030681.368 9 121832113.447 5
  21002016.208    21002020.638   -85091243.533 9  76607323.013 8
 89 11 20 16 27 29.0800000  0  3G13G12G 3
  22985011.278    22985019.549   -29575680.190 9  21272667.943 8
  24275337.583    24275351.212   -64921542.321 8 121917156.412 7
  21002120.311    21002124.640   -85090700.957 8  76607745.752 7
 89 11 20 16 27 59.0800000  0  3G13G12G 3
  22995523.265    22995532.730   -29520440.294 9  21315711.790 7
  24296102.300    24296113.291   -64812430.466 9 122002178.168 7
  21002251.696    21002257.348   -85090000.493 8  76608291.526 8
 89 11 20 16 28 29.0800000  0  3G13G12G 3
  23006048.829    23006059.795   -29465128.598 8  21358811.594 7
  24316860.617    24316870.549   -64703348.875 9 122087176.408 7
  21002416.010    21002421.408   -85089141.655 9  76608960.693 7
